[[{"header":{"parameterUnit":"m.s-1","parameterCategory":1,"la1":30.6,"la2":29.2853,"lo1":-89.7004,"lo2":-87.6739,"dy":0.0162,"dx":0.0183,"nx":112,"ny":82,"refTime":"2024-04-09T18:00:00:Z","depth":0,"parameterNumber":2,"parameterNumberName":"U-component_of_WINDS"},"data":[0.0,0.0,0.0,0.0,0.0,0.0,0.0,0.0,0.0,0.0,0.0,0.0,0.0,0.0,0.0,0.0,0.0,0.0,0.0,0.0,0.0,0.0,0.0,0.0,0.0,0.0,0.0,0.0,0.0,0.0,0.0,0.0,0.0,0.0,0.0,0.0,0.0,0.0,0.0,0.0,0.0,0.0,0.0,0.0,0.0,0.0,0.0,0.0,0.0,0.0,0.0,0.0,0.0,0.0,0.0,0.0,0.0,0.0,0.0,0.0,0.0,0.0,0.0,0.0,0.0,0.0,0.0,0.0,0.0,0.0,0.0,0.0,0.0,0.0,0.0,0.0,0.0,0.0,0.0,0.0,0.0,0.0,0.0,0.0,0.0,0.0,0.0,0.0,0.0,0.0,0.0,-3.0606,-3.0591,-3.0607,-3.0598,-3.0598,-3.0588,-3.0525,0.0,0.0,0.0,0.0,0.0,0.0,0.0,0.0,0.0,0.0,0.0,0.0,0.0,0.0,0.0,0.0,0.0,0.0,0.0,0.0,0.0,0.0,0.0,0.0,0.0,0.0,0.0,0.0,0.0,0.0,0.0,0.0,0.0,0.0,0.0,0.0,0.0,0.0,0.0,0.0,0.0,0.0,0.0,0.0,0.0,0.0,0.0,0.0,0.0,0.0,0.0,0.0,0.0,0.0,0.0,0.0,0.0,0.0,0.0,0.0,0.0,0.0,0.0,0.0,0.0,0.0,0.0,0.0,0.0,0.0,0.0,0.0,0.0,0.0,0.0,0.0,0.0,0.0,0.0,0.0,0.0,0.0,0.0,0.0,0.0,0.0,0.0,0.0,0.0,0.0,0.0,0.0,0.0,0.0,0.0,0.0,0.0,0.0,0.0,0.0,0.0,0.0,0.0,0.0,-3.0668,-3.061,-3.0597,-3.06,-3.0602,-3.0598,-3.0598,-3.0593,0.0,0.0,0.0,0.0,0.0,0.0,0.0,0.0,0.0,0.0,0.0,0.0,0.0,0.0,0.0,0.0,0.0,0.0,0.0,0.0,0.0,0.0,0.0,0.0,0.0,0.0,0.0,0.0,0.0,0.0,0.0,0.0,0.0,0.0,0.0,0.0,0.0,0.0,0.0,0.0,0.0,0.0,0.0,0.0,0.0,0.0,0.0,0.0,0.0,0.0,0.0,0.0,0.0,0.0,0.0,0.0,0.0,0.0,0.0,0.0,0.0,0.0,0.0,0.0,0.0,0.0,0.0,0.0,0.0,0.0,0.0,0.0,0.0,0.0,0.0,0.0,0.0,0.0,0.0,0.0,0.0,0.0,0.0,0.0,0.0,0.0,0.0,0.0,0.0,0.0,0.0,0.0,0.0,0.0,0.0,0.0,0.0,0.0,0.0,0.0,0.0,0.0,0.0,-3.0701,-3.0688,-3.0668,-3.0645,-3.0645,-3.06,-3.0595,-3.0606,-3.0598,-3.0535,0.0,0.0,0.0,0.0,0.0,0.0,0.0,0.0,0.0,0.0,0.0,0.0,0.0,0.0,0.0,0.0,0.0,0.0,0.0,0.0,0.0,0.0,0.0,0.0,0.0,0.0,0.0,0.0,0.0,0.0,0.0,0.0,0.0,0.0,0.0,0.0,0.0,0.0,0.0,0.0,0.0,0.0,0.0,0.0,0.0,0.0,0.0,0.0,0.0,0.0,0.0,0.0,0.0,0.0,0.0,0.0,0.0,0.0,0.0,0.0,0.0,0.0,0.0,0.0,0.0,0.0,0.0,0.0,0.0,0.0,0.0,0.0,0.0,0.0,0.0,0.0,0.0,0.0,0.0,0.0,0.0,0.0,0.0,0.0,0.0,0.0,0.0,0.0,0.0,0.0,0.0,0.0,0.0,0.0,0.0,0.0,0.0,0.0,0.0,0.0,0.0,0.0,-3.1746,-3.1695,-3.19,-3.1737,-3.158,-3.1525,-3.1327,-3.1209,-3.1197,-3.1104,0.0,0.0,0.0,0.0,0.0,0.0,0.0,0.0,0.0,0.0,0.0,0.0,0.0,0.0,0.0,0.0,0.0,0.0,0.0,0.0,0.0,0.0,0.0,0.0,0.0,0.0,0.0,0.0,0.0,0.0,0.0,0.0,0.0,0.0,0.0,0.0,0.0,0.0,0.0,0.0,0.0,0.0,0.0,0.0,0.0,0.0,0.0,0.0,0.0,0.0,0.0,0.0,0.0,0.0,0.0,0.0,0.0,0.0,0.0,0.0,0.0,0.0,0.0,0.0,0.0,0.0,0.0,0.0,0.0,0.0,0.0,0.0,0.0,0.0,0.0,0.0,0.0,0.0,0.0,0.0,0.0,0.0,0.0,0.0,0.0,0.0,0.0,0.0,0.0,0.0,0.0,0.0,0.0,0.0,0.0,0.0,0.0,0.0,0.0,0.0,0.0,0.0,-3.4834,-3.4631,-3.5441,-3.4812,-3.4294,-3.4238,-3.3488,-3.2996,-3.2938,-3.2789,0.0,0.0,0.0,0.0,0.0,0.0,0.0,0.0,0.0,0.0,0.0,0.0,0.0,0.0,0.0,0.0,0.0,0.0,0.0,0.0,0.0,0.0,0.0,0.0,0.0,0.0,0.0,0.0,0.0,0.0,0.0,0.0,0.0,0.0,0.0,0.0,0.0,0.0,0.0,0.0,0.0,0.0,0.0,0.0,0.0,0.0,0.0,0.0,0.0,0.0,0.0,0.0,0.0,0.0,0.0,0.0,0.0,0.0,0.0,0.0,0.0,0.0,0.0,0.0,0.0,0.0,0.0,0.0,0.0,0.0,0.0,0.0,0.0,0.0,0.0,0.0,0.0,0.0,0.0,0.0,0.0,0.0,0.0,0.0,0.0,0.0,0.0,0.0,0.0,0.0,0.0,0.0,0.0,0.0,0.0,0.0,0.0,0.0,0.0,0.0,0.0,0.0,-3.5616,-3.5535,0.0,-3.5602,-3.5389,-3.5387,-3.4536,-3.4208,-3.4681,0.0,0.0,0.0,0.0,0.0,0.0,0.0,0.0,0.0,0.0,0.0,0.0,0.0,0.0,0.0,0.0,0.0,0.0,0.0,0.0,0.0,0.0,0.0,0.0,0.0,0.0,0.0,0.0,0.0,0.0,0.0,0.0,0.0,0.0,0.0,0.0,0.0,0.0,0.0,0.0,0.0,0.0,0.0,0.0,0.0,0.0,0.0,0.0,0.0,0.0,0.0,0.0,0.0,0.0,0.0,0.0,0.0,0.0,0.0,0.0,0.0,0.0,0.0,0.0,0.0,0.0,0.0,0.0,0.0,0.0,0.0,0.0,0.0,0.0,0.0,0.0,0.0,0.0,0.0,0.0,0.0,0.0,0.0,0.0,0.0,0.0,0.0,0.0,0.0,0.0,0.0,0.0,0.0,0.0,0.0,0.0,0.0,0.0,0.0,0.0,0.0,0.0,-3.7448,-3.7311,-3.7233,0.0,-3.7292,-3.7121,-3.7078,-3.6231,-3.5933,-3.6469,0.0,0.0,0.0,0.0,0.0,0.0,0.0,0.0,0.0,0.0,0.0,0.0,0.0,0.0,0.0,0.0,0.0,0.0,0.0,0.0,0.0,0.0,0.0,0.0,0.0,0.0,0.0,0.0,0.0,0.0,0.0,0.0,0.0,0.0,0.0,0.0,0.0,0.0,0.0,0.0,0.0,0.0,0.0,0.0,0.0,0.0,0.0,0.0,0.0,0.0,0.0,0.0,0.0,0.0,0.0,0.0,0.0,0.0,0.0,0.0,0.0,0.0,0.0,0.0,0.0,0.0,0.0,0.0,0.0,0.0,0.0,0.0,0.0,0.0,0.0,0.0,0.0,0.0,0.0,0.0,0.0,0.0,0.0,0.0,0.0,0.0,0.0,0.0,0.0,0.0,0.0,0.0,0.0,0.0,0.0,0.0,0.0,0.0,0.0,0.0,0.0,0.0,-4.0776,-4.0351,-4.0136,-4.101,-4.0331,-3.976,-3.9619,-3.8814,-3.8283,0.0,0.0,0.0,0.0,0.0,0.0,0.0,0.0,0.0,0.0,0.0,0.0,0.0,0.0,0.0,0.0,0.0,0.0,0.0,0.0,0.0,0.0,0.0,0.0,0.0,0.0,0.0,0.0,0.0,0.0,0.0,0.0,0.0,0.0,0.0,0.0,0.0,0.0,0.0,0.0,0.0,0.0,0.0,0.0,0.0,0.0,0.0,0.0,0.0,0.0,0.0,0.0,0.0,0.0,0.0,0.0,0.0,0.0,0.0,0.0,0.0,0.0,0.0,0.0,0.0,0.0,0.0,0.0,0.0,0.0,0.0,0.0,0.0,0.0,0.0,0.0,0.0,0.0,0.0,0.0,0.0,0.0,0.0,0.0,0.0,0.0,0.0,0.0,0.0,0.0,0.0,0.0,0.0,0.0,0.0,0.0,0.0,0.0,0.0,0.0,0.0,0.0,0.0,-4.099,-4.0874,-4.0815,-4.1068,-4.0874,-4.0692,-4.0652,-3.9813,-3.9516,-4.0073,0.0,0.0,0.0,0.0,0.0,0.0,0.0,0.0,0.0,0.0,0.0,0.0,0.0,0.0,0.0,0.0,0.0,0.0,0.0,0.0,0.0,0.0,0.0,0.0,0.0,0.0,0.0,0.0,0.0,0.0,0.0,0.0,0.0,0.0,0.0,0.0,0.0,0.0,0.0,0.0,0.0,0.0,0.0,0.0,0.0,0.0,0.0,0.0,0.0,0.0,0.0,0.0,0.0,0.0,0.0,0.0,0.0,0.0,0.0,0.0,0.0,0.0,0.0,0.0,0.0,0.0,0.0,0.0,0.0,0.0,0.0,0.0,0.0,0.0,0.0,0.0,0.0,0.0,0.0,0.0,0.0,0.0,0.0,0.0,0.0,0.0,0.0,0.0,0.0,0.0,0.0,0.0,0.0,0.0,0.0,0.0,0.0,0.0,0.0,0.0,0.0,0.0,-4.1107,-4.1107,-4.1107,-4.1107,-4.1107,-4.1085,-4.1071,-4.0544,-4.0416,-4.0873,0.0,0.0,0.0,0.0,0.0,0.0,0.0,0.0,0.0,0.0,0.0,0.0,0.0,0.0,0.0,0.0,0.0,0.0,0.0,0.0,0.0,0.0,0.0,0.0,0.0,0.0,0.0,0.0,0.0,0.0,0.0,0.0,0.0,0.0,0.0,0.0,0.0,0.0,0.0,0.0,0.0,0.0,0.0,0.0,0.0,0.0,0.0,0.0,0.0,0.0,0.0,0.0,0.0,0.0,0.0,0.0,0.0,0.0,0.0,0.0,0.0,0.0,0.0,0.0,0.0,0.0,0.0,0.0,0.0,0.0,0.0,0.0,0.0,0.0,0.0,0.0,0.0,0.0,0.0,0.0,0.0,0.0,0.0,0.0,0.0,0.0,0.0,0.0,0.0,0.0,0.0,0.0,0.0,0.0,0.0,0.0,0.0,0.0,0.0,0.0,0.0,0.0,-4.1107,-4.1107,-4.1107,-4.1107,-4.1107,-4.1078,-4.1003,-4.1,-4.0984,-4.0917,0.0,0.0,0.0,0.0,0.0,0.0,0.0,0.0,0.0,0.0,0.0,0.0,0.0,0.0,0.0,0.0,0.0,0.0,0.0,0.0,0.0,0.0,0.0,0.0,0.0,0.0,0.0,0.0,0.0,0.0,0.0,0.0,0.0,0.0,0.0,0.0,0.0,0.0,0.0,0.0,0.0,0.0,0.0,0.0,0.0,0.0,0.0,0.0,0.0,0.0,0.0,0.0,0.0,0.0,0.0,0.0,0.0,0.0,0.0,0.0,-3.6142,0.0,0.0,0.0,0.0,0.0,0.0,0.0,0.0,0.0,0.0,0.0,0.0,0.0,0.0,0.0,0.0,0.0,0.0,0.0,0.0,0.0,0.0,0.0,0.0,0.0,0.0,0.0,0.0,0.0,0.0,0.0,0.0,0.0,0.0,0.0,0.0,0.0,0.0,0.0,0.0,0.0,-4.1107,-4.1107,-4.1107,-4.1107,-4.1107,-4.1085,-4.1078,-4.1078,-4.1045,-4.0984,0.0,0.0,0.0,0.0,0.0,0.0,0.0,0.0,0.0,0.0,0.0,0.0,0.0,0.0,0.0,0.0,0.0,0.0,0.0,0.0,0.0,0.0,0.0,0.0,0.0,0.0,0.0,0.0,0.0,0.0,0.0,0.0,0.0,0.0,0.0,0.0,0.0,0.0,0.0,0.0,0.0,0.0,0.0,0.0,0.0,0.0,0.0,0.0,0.0,0.0,0.0,0.0,0.0,0.0,0.0,0.0,0.0,0.0,0.0,0.0,0.0,-3.7517,0.0,0.0,0.0,0.0,0.0,0.0,0.0,0.0,0.0,0.0,0.0,0.0,0.0,0.0,0.0,0.0,0.0,0.0,0.0,0.0,0.0,0.0,0.0,0.0,0.0,0.0,0.0,0.0,0.0,0.0,0.0,0.0,0.0,0.0,0.0,0.0,0.0,0.0,0.0,0.0,-4.11,-4.1094,-4.1107,-4.1107,-4.1107,-4.1107,-4.1107,-4.1107,-4.1081,-4.1045,-4.1027,0.0,0.0,0.0,0.0,0.0,0.0,0.0,0.0,0.0,0.0,0.0,0.0,0.0,0.0,0.0,0.0,0.0,0.0,0.0,0.0,0.0,0.0,0.0,0.0,0.0,0.0,0.0,0.0,0.0,0.0,0.0,0.0,0.0,0.0,0.0,0.0,0.0,0.0,0.0,0.0,0.0,0.0,0.0,0.0,0.0,0.0,0.0,0.0,0.0,0.0,0.0,0.0,0.0,0.0,-4.0655,-4.0644,-4.0644,-4.0722,-4.0839,-4.0103,-3.9458,-3.887,0.0,0.0,0.0,0.0,0.0,0.0,0.0,0.0,0.0,0.0,0.0,0.0,0.0,0.0,0.0,0.0,0.0,0.0,0.0,0.0,0.0,0.0,0.0,0.0,0.0,-4.0581,-4.0893,0.0,0.0,0.0,0.0,0.0,0.0,0.0,0.0,0.0,0.0,0.0,0.0,-4.1109,-4.11,-4.1094,-4.111,-4.1107,-4.1107,-4.1107,-4.1107,-4.1107,-4.1107,-4.1041,-4.1023,0.0,0.0,0.0,0.0,0.0,0.0,0.0,0.0,0.0,0.0,0.0,0.0,0.0,0.0,0.0,0.0,0.0,0.0,0.0,0.0,0.0,0.0,0.0,0.0,0.0,0.0,0.0,0.0,0.0,0.0,0.0,0.0,-3.8085,-3.8104,0.0,0.0,0.0,0.0,0.0,0.0,0.0,0.0,0.0,0.0,0.0,0.0,0.0,0.0,-3.8505,-3.86,-3.8678,-3.8678,-3.8798,-3.8837,-3.8834,-3.8834,-3.9262,-3.9964,-3.9844,0.0,-4.0734,-4.0734,0.0,0.0,0.0,0.0,0.0,0.0,0.0,0.0,0.0,0.0,0.0,0.0,0.0,0.0,0.0,0.0,0.0,0.0,0.0,0.0,0.0,0.0,-4.0932,-4.0932,-4.101,-4.1068,0.0,-4.101,-4.1107,-4.1107,0.0,0.0,0.0,0.0,0.0,0.0,0.0,0.0,-4.1094,-4.1103,-4.1106,-4.1091,-4.1107,-4.1107,-4.1107,-4.1107,-4.1107,-4.1107,-4.1085,-4.1081,-4.1081,-4.1081,0.0,0.0,0.0,0.0,0.0,0.0,0.0,0.0,0.0,0.0,0.0,0.0,0.0,0.0,0.0,0.0,0.0,0.0,0.0,0.0,0.0,0.0,0.0,0.0,0.0,0.0,0.0,0.0,0.0,-3.8169,-3.8138,-3.7653,-3.765,-3.7497,0.0,0.0,0.0,0.0,0.0,0.0,0.0,0.0,0.0,-3.7749,-3.7776,-3.8007,-3.8502,-3.8984,-3.9232,-3.9232,-3.9728,-3.9962,-3.9956,-3.9956,-4.017,-4.0538,-4.0529,-4.0757,-4.1107,-4.1107,-4.1107,-4.1107,0.0,0.0,0.0,0.0,0.0,-4.1045,-4.1027,0.0,0.0,0.0,0.0,0.0,0.0,0.0,0.0,0.0,0.0,0.0,0.0,0.0,0.0,-4.1107,-4.1107,-4.1107,-4.1107,-4.1107,-4.1107,0.0,-4.1107,-4.1107,-4.1107,0.0,0.0,0.0,0.0,0.0,-4.1103,-4.1103,-4.1097,-4.111,-4.1107,-4.1107,-4.1107,-4.1107,-4.1107,-4.1107,-4.1107,-4.1107,-4.1107,-4.1107,-4.1007,0.0,0.0,0.0,0.0,0.0,0.0,0.0,0.0,0.0,0.0,0.0,0.0,0.0,0.0,0.0,0.0,0.0,0.0,0.0,0.0,0.0,0.0,0.0,0.0,0.0,0.0,0.0,0.0,-3.7697,-3.7584,-3.6941,-3.6863,-3.6707,0.0,0.0,0.0,0.0,0.0,0.0,-3.6572,-3.6572,-3.6965,-3.783,-3.7873,-3.828,-3.9151,-3.9808,-4.0134,-4.0131,-4.0552,-4.0883,-4.1089,-4.0875,-4.0992,-4.1401,-4.1406,-4.1536,-4.1711,-4.1283,-4.0971,-4.0796,-4.101,-4.0951,-4.0796,-4.101,-4.1107,-4.1107,-4.1107,-4.1107,-4.1107,-4.1107,0.0,-4.1107,-4.1107,0.0,0.0,0.0,0.0,-4.1107,-4.1107,0.0,-4.1091,-4.1094,-4.1097,-4.1097,-4.1097,-4.1097,-4.1094,0.0,-4.1107,-4.1107,-4.1107,0.0,0.0,0.0,0.0,-4.11,-4.1109,-4.11,-4.1094,-4.111,-4.1107,-4.1107,-4.1107,-4.1107,-4.1107,-4.1107,-4.1107,-4.1107,-4.1107,-4.1107,-4.1038,-4.0882,0.0,0.0,0.0,0.0,0.0,0.0,0.0,0.0,0.0,0.0,0.0,0.0,0.0,0.0,0.0,0.0,0.0,0.0,0.0,0.0,0.0,0.0,0.0,0.0,0.0,0.0,0.0,0.0,0.0,-3.5967,-3.5967,0.0,0.0,0.0,0.0,-3.8305,-3.8363,-3.8369,-3.8363,-3.8363,-3.8772,-3.965,-3.9666,-4.009,-4.0955,-4.1013,-4.1033,-4.1033,-4.0234,-4.0292,-4.1071,-4.0234,-4.0721,-4.2241,-4.2237,-4.2705,-4.3348,-4.175,-4.0601,-3.9941,-4.0776,-4.0581,-3.998,-4.0796,-4.1107,-4.1107,-4.1107,-4.1107,-4.1107,-4.1107,-4.1107,-4.1107,-4.1107,-4.1107,0.0,0.0,-4.1107,-4.1107,-4.1107,-4.1107,-4.1094,-4.1092,-4.1095,-4.1095,-4.1095,-4.1095,-4.1109,0.0,-4.1107,-4.1107,-4.1107,0.0,-4.111,-4.1091,-4.1103,-4.1109,-4.1094,-4.1106,-4.1109,-4.1091,-4.1107,-4.1107,-4.1107,-4.1107,-4.1107,-4.1107,-4.1107,-4.1107,-4.1107,-4.1107,-4.1107,-4.1085,-4.1027,0.0,0.0,0.0,0.0,0.0,0.0,0.0,0.0,0.0,0.0,0.0,0.0,0.0,0.0,0.0,0.0,0.0,0.0,0.0,0.0,0.0,0.0,0.0,0.0,0.0,0.0,0.0,0.0,-3.6746,-3.7233,0.0,0.0,-3.8544,-3.8997,-3.9312,-3.9852,-3.9936,-3.9366,-3.9347,-3.9481,-3.9791,-3.9804,-4.0226,-4.1098,-4.1666,-4.1941,-4.1941,-4.2195,-4.2471,-4.2763,-4.2451,-4.2646,-4.317,-4.2604,-4.2543,-4.2738,-4.1588,-4.1554,-4.2276,-4.2588,-4.2179,-4.1458,-4.175,-4.1536,-4.1107,-4.1107,-4.1107,-4.1107,-4.1107,-4.1107,-4.1107,-4.1107,-4.1107,-4.1107,-4.1107,-4.1107,-4.1107,-4.1107,-4.1107,-4.1091,-4.1097,-4.11,-4.11,-4.11,-4.1109,-4.1095,-4.1109,-4.1097,-4.1107,-4.1107,-4.1107,-4.1107,-4.1107,-4.1094,-4.1292,-4.1809,-4.1873,-4.2088,-4.2646,-4.2705,-4.2705,-4.2705,-4.2198,-4.1867,-4.1867,-4.138,-4.1107,-4.1107,-4.1107,-4.1107,-4.1107,-4.1034,-4.0984,0.0,0.0,0.0,0.0,0.0,0.0,0.0,0.0,0.0,0.0,0.0,0.0,0.0,0.0,0.0,0.0,0.0,0.0,0.0,0.0,0.0,0.0,0.0,0.0,0.0,0.0,-3.7759,-3.8032,-3.8597,-3.9168,-3.975,-4.007,-4.035,-4.0669,-4.0935,-4.0842,-4.027,-4.0524,-4.0814,-4.1105,-4.1664,-4.2383,-4.3258,-4.4119,-4.457,-4.457,-4.4843,-4.5138,-4.5411,-4.5119,-4.5138,-4.5392,-4.4804,-4.4565,-4.4501,-4.3936,-4.4172,-4.4793,-4.3647,-4.2828,-4.2335,-4.2627,-4.2393,-4.1945,-4.1945,-4.175,-4.1497,-4.1497,-4.1322,-4.1107,-4.1107,-4.1107,-4.1107,-4.1107,-4.1107,-4.1107,-4.1107,-4.1107,-4.1091,-4.1097,-4.1097,-4.1097,-4.1097,-4.132,-4.1524,-4.1518,-4.1281,-4.1106,-4.1106,-4.134,-4.1535,-4.1548,-4.1785,-4.2159,-4.2679,-4.276,-4.3,-4.3562,-4.3617,-4.3591,-4.3591,-4.3078,-4.2744,-4.2744,-4.1965,-4.1497,-4.1497,-4.1244,-4.1224,-4.1497,-4.1457,-4.1307,-4.1034,0.0,0.0,0.0,0.0,0.0,0.0,0.0,0.0,0.0,0.0,0.0,0.0,0.0,0.0,0.0,0.0,0.0,0.0,0.0,0.0,0.0,0.0,0.0,-3.8484,-3.852,-3.8928,-3.9786,-3.9883,-4.0532,-4.2242,-4.1641,-4.1493,-4.2383,-4.172,-4.125,-4.1252,-4.2091,-4.2932,-4.3768,-4.537,-4.6618,-4.7454,-4.8335,-4.8767,-4.8747,-4.7928,-4.7986,-4.8767,-4.7928,-4.8006,-4.8803,-4.8764,-4.8755,-4.8756,-4.8737,-4.824,-4.7173,-4.3857,-4.2467,-4.2432,-4.3289,-4.3582,-4.3562,-4.3582,-4.3056,-4.2335,-4.2335,-4.1809,-4.1185,-4.1185,-4.1185,-4.1185,-4.1185,-4.1185,-4.1185,-4.1185,-4.1185,-4.1172,-4.119,-4.1173,-4.1173,-4.1173,-4.1836,-4.2415,-4.2357,-4.1719,-4.1171,-4.1171,-4.1876,-4.2437,-4.2443,-4.3158,0.0,-4.3655,-4.3704,-4.3753,-4.377,-4.3721,-4.3671,-4.3671,-4.3653,-4.364,-4.364,-4.2822,-4.2335,-4.2335,-4.1575,-4.1497,-4.2257,-4.2257,-4.1887,-4.1107,0.0,0.0,0.0,0.0,0.0,0.0,0.0,0.0,0.0,0.0,0.0,0.0,0.0,0.0,0.0,0.0,0.0,0.0,0.0,0.0,0.0,0.0,-4.035,-4.0326,-4.0864,-4.1341,-4.1575,-4.1614,-4.1818,-4.234,-4.2187,-4.2393,-4.3273,-4.4289,-4.4879,-4.4868,-4.5707,-4.6,-4.5609,-4.6039,-4.639,-4.6624,-4.7481,-4.793,-4.793,-4.8283,-4.8576,-4.879,-4.8556,-4.8571,-4.8755,-4.8133,-4.7869,-4.7813,-4.717,-4.7141,-4.7418,-4.6459,-4.4933,-4.327,-4.3504,-4.3192,-4.2744,-4.3387,-4.3445,-4.3231,-4.3231,-4.3094,-4.2919,-4.2919,-4.2919,-4.2919,-4.2919,-4.2919,-4.2919,-4.2919,-4.2919,-4.29,-4.2906,-4.2906,-4.2906,-4.2906,-4.3094,-4.3256,-4.325,-4.3092,-4.2966,-4.2916,-4.3111,-4.329,-4.3336,-4.3556,0.0,-4.4473,-4.4562,-4.4816,-4.5456,-4.5498,-4.5498,-4.5485,-4.4913,-4.454,0.0,-4.3718,-4.3231,-4.3231,-4.2413,-4.1809,-4.1438,-4.1438,-4.1292,0.0,0.0,0.0,0.0,0.0,0.0,0.0,0.0,0.0,0.0,0.0,0.0,0.0,0.0,0.0,0.0,0.0,0.0,0.0,0.0,0.0,0.0,-4.1342,-4.141,-4.198,-4.1909,-4.1926,-4.2257,-4.2627,-4.3004,-4.3415,-4.3785,-4.4203,-4.4712,-4.5694,-4.6267,-4.6253,-4.7116,-4.7372,-4.6866,-4.7526,-4.7895,-4.7895,-4.8751,-4.9181,-4.92,-4.9675,-4.9891,-4.9891,-4.9891,-4.9887,0.0,-4.9354,-4.9133,-4.9098,-4.8586,-4.8457,0.0,0.0,0.0,0.0,0.0,-4.4676,-4.3955,-4.4091,-4.3659,-4.3056,-4.3056,-4.3056,-4.3056,-4.3085,-4.3322,-4.3595,-4.3595,-4.3595,-4.3595,-4.3604,-4.3601,-4.3601,-4.3601,-4.3601,-4.3601,-4.3601,-4.3884,-4.4147,-4.4147,0.0,0.0,-4.4704,-4.4398,-4.4167,-4.4209,-4.4509,-4.4916,-4.5387,-4.5437,-4.5635,-4.6144,-4.6203,-4.62,-4.619,-4.5735,0.0,0.0,0.0,-4.3971,-4.362,-4.3114,0.0,0.0,0.0,-4.1409,-4.1038,0.0,0.0,0.0,-4.0729,-4.0617,0.0,0.0,0.0,0.0,0.0,0.0,0.0,0.0,0.0,0.0,0.0,0.0,0.0,0.0,0.0,0.0,-4.217,-4.2085,-4.3096,-4.2159,-4.1666,-4.2491,-4.327,-4.4098,-4.4952,-4.5751,-4.6242,-4.6334,-4.6445,-4.6531,-4.6631,0.0,0.0,0.0,0.0,-5.0245,-5.0247,-5.1008,-5.1401,-5.1401,-5.141,-5.1394,-5.1394,-5.1394,-5.1394,-5.1392,-5.1392,-5.1406,-5.1394,-5.14,-5.0937,-5.0063,-4.8224,-4.796,-4.8553,-4.7793,-4.7014,0.0,0.0,0.0,0.0,-4.288,-4.2744,-4.2591,-4.2665,-4.3103,-4.359,-4.359,-4.359,-4.3607,-4.3608,-4.3601,-4.3601,-4.3601,-4.3601,-4.362,-4.3737,-4.4345,-4.4933,-4.503,-4.5673,-4.6203,-4.62,-4.5568,-4.5047,-4.5055,-4.5691,-4.6203,-4.6206,-4.6198,-4.6206,-4.6203,0.0,0.0,-4.6203,-4.6206,-4.6199,-4.6199,-4.5478,-4.4656,-4.3776,-4.3757,-4.3348,-4.2452,-4.2354,-4.1945,-4.1244,-4.1146,-4.1075,-4.1019,-4.0874,-4.0823,0.0,0.0,0.0,0.0,0.0,0.0,0.0,0.0,0.0,0.0,0.0,0.0,0.0,0.0,0.0,-4.0767,-4.0798,-4.1101,-4.206,-4.2625,-4.3318,-4.4283,-4.454,-4.4991,-4.5852,-4.6105,-4.6482,-4.72,-4.7905,-4.8596,-4.931,-5.0171,0.0,-5.0679,-5.0989,-5.1147,-5.1156,-5.1312,-5.1392,-5.1392,0.0,0.0,-5.1394,-5.1394,-5.141,-5.1401,-5.1401,-5.1394,-5.14,-5.1394,-5.1294,-5.0917,-4.8454,-4.7602,-4.7735,-4.756,-4.7384,-4.7326,-4.7852,-4.7365,-4.6488,-4.6488,-4.5533,-4.4407,-4.441,-4.404,0.0,-4.3608,-4.3608,-4.3608,-4.3601,-4.3601,-4.3601,-4.3601,-4.3601,-4.3796,-4.4501,-4.4777,-4.5108,-4.5809,-4.6082,-4.6199,-4.6203,-4.606,-4.5958,-4.5947,-4.6089,-4.6203,-4.6206,-4.6198,-4.6198,-4.6193,-4.62,-4.62,-4.6206,-4.6199,-4.6199,-4.6199,-4.6043,-4.5556,-4.4676,-4.4656,-4.4247,-4.3367,-4.2666,-4.2218,-4.2062,-4.1419,-4.1085,-4.1078,-4.0992,-4.093,0.0,0.0,0.0,0.0,0.0,0.0,0.0,0.0,0.0,0.0,0.0,-4.0253,0.0,0.0,-4.0301,-4.0301,-4.0758,-4.1424,-4.2328,-4.3361,-4.4253,-4.4825,-4.5673,-4.6375,-4.6803,-4.7648,-4.8337,-4.8776,-4.9611,-5.0288,-5.0725,-5.116,-5.1399,-5.1406,-5.1401,-5.1401,-5.1406,-5.1406,-5.1406,-5.1406,-5.1392,-5.1394,-5.1394,-5.1394,-5.1392,-5.1406,-5.1406,-5.1403,-5.1396,-5.1408,-5.1403,-5.1274,-4.9952,-4.9435,-4.9351,-4.8957,-4.8522,-4.8144,-4.8144,-4.7579,-4.6842,-4.6842,-4.6569,-4.6121,-4.5683,-4.5547,-4.5371,-4.4494,-4.4241,-4.414,-4.3702,-4.3601,-4.3604,-4.3591,-4.3608,-4.3721,-4.416,-4.4254,-4.4384,-4.4812,-4.491,-4.5046,-4.5478,-4.5543,-4.5709,-4.6125,-4.6206,-4.6203,-4.6193,-4.62,-4.6196,-4.6199,-4.6206,-4.6206,-4.6199,-4.6199,-4.6199,-4.6199,-4.6199,-4.6004,-4.5576,-4.5127,-4.4699,-4.4267,-4.3387,-4.2958,-4.2958,-4.2101,-4.1692,-4.1692,-4.1247,-4.1003,0.0,0.0,0.0,0.0,0.0,0.0,0.0,0.0,-4.0215,-4.0291,-4.0301,-4.0301,-4.0301,-4.0301,-4.0339,-4.0511,-4.1318,-4.2302,-4.3387,-4.4608,-4.5512,-4.5857,-4.6995,-4.7813,-4.7969,-4.9406,-5.0329,-5.0329,-5.0985,-5.1389,-5.1386,-5.1381,-5.1408,-5.1408,-5.1401,-5.1399,-5.1401,-5.1401,-5.1401,-5.1401,-5.139,-5.1394,-5.1394,-5.1394,-5.1392,-5.139,-5.1408,-5.1408,-5.139,-5.1401,-5.1408,-5.1394,-5.1397,-5.1372,-5.1239,-5.0569,-4.9896,-4.9184,-4.8479,-4.7676,-4.6936,-4.6936,-4.7189,-4.7368,-4.6664,-4.6823,-4.696,-4.5556,-4.503,-4.4695,-4.3838,-4.3465,-4.3312,-4.3153,-4.3104,-4.3156,-4.3308,-4.3358,-4.3406,-4.3562,-4.3601,-4.3815,-4.452,-4.4656,-4.5007,-4.6043,-4.6199,-4.6199,-4.6199,-4.6199,-4.6199,-4.6199,-4.6199,-4.6199,-4.6199,-4.6199,-4.6199,-4.6199,-4.6199,-4.6199,-4.6199,-4.5537,-4.5147,-4.5147,-4.4306,-4.3854,-4.3854,-4.2978,-4.2549,-4.2529,-4.1711,-4.1211,-4.0146,-3.99,-3.9911,-3.9975,-3.9996,-4.0027,0.0,0.0,-4.0215,-4.0291,-4.0301,-4.0301,-4.0301,-4.0301,-4.053,-4.1246,-4.2106,-4.3329,-4.5208,-4.6885,-4.8282,-4.9317,-4.8962,-4.8943,-4.9644,-5.0599,-5.1168,-5.1168,-5.1268,-5.131,-5.1312,-5.1362,-5.14,-5.14,-5.1391,-5.1403,-5.1392,-5.1392,-5.1392,-5.1392,-5.1394,-5.1394,-5.1394,-5.1394,-5.141,-5.1399,-5.1405,-5.1408,-5.1401,-5.1399,-5.1408,-5.1394,-5.1391,-5.1405,-5.1372,-5.1219,-5.1096,-5.1014,-5.0918,-5.0307,-4.9566,-4.9566,-4.8631,-4.7485,-4.7388,-4.6881,-4.6297,-4.6105,-4.5501,-4.4699,-4.3835,-4.3036,-4.2276,-4.1559,-4.1383,-4.1578,-4.2299,-4.2455,-4.2666,-4.3445,-4.3601,-4.362,-4.3737,-4.3757,-4.4302,-4.5942,-4.6199,-4.6199,-4.6199,-4.6199,-4.6199,-4.6199,-4.6199,-4.6199,-4.6199,-4.6199,-4.6199,-4.6199,-4.6199,-4.6199,-4.6199,-4.6102,-4.6043,-4.6043,-4.5205,-4.4757,-4.4757,-4.3877,-4.3445,-4.3426,-4.2568,-4.1789,-3.9995,-3.99,0.0,0.0,-3.9996,-4.0046,-4.0176,-4.0196,-4.0215,-4.0291,-4.0301,-4.0301,-4.0301,-4.0692,-4.1266,0.0,-4.3446,-4.5012,-4.6891,-4.8319,-4.9547,-5.0524,-5.041,-5.0385,-5.0716,-5.1097,-5.13,-5.13,-5.1336,-5.1362,-5.1353,-5.1385,-5.1394,-5.1394,-5.14,-5.1408,-5.1394,-5.1394,-5.1394,-5.1394,-5.1394,-5.1394,-5.1394,-5.1394,-5.1408,-5.1403,-5.1397,-5.1397,-5.1405,-5.1405,-5.14,-5.1394,-5.1403,-5.14,-5.1391,-5.1317,-5.1294,-5.131,-5.1308,-5.1067,-5.0755,-5.0755,-5.0287,-4.9625,-4.9118,-4.869,-4.8202,-4.7228,-4.6686,-4.6215,-4.5338,-4.4462,-4.3608,-4.2757,-4.2169,-4.1753,-4.1629,-4.1604,-4.1711,-4.2062,-4.214,-4.2296,-4.2763,-4.2841,-4.325,-4.4501,-4.5124,-4.5634,-4.6141,-4.6199,-4.6199,-4.6199,-4.6199,-4.6199,-4.6199,-4.6199,-4.6199,-4.6199,-4.6199,-4.6199,-4.6199,-4.6199,-4.6199,-4.6199,-4.5848,-4.5654,-4.5654,-4.4773,-4.4364,-4.4345,-4.3465,-4.288,-3.99,0.0,0.0,-3.9986,-3.9996,-4.0017,-4.0157,-4.0186,-4.0206,-4.0263,-4.0291,-4.0358,-4.0597,-4.1304,0.0,-4.331,-4.4988,-4.6683,-4.8283,-4.9422,-5.0349,-5.1067,-5.1239,-5.13,-5.13,-5.1296,-5.1303,-5.1303,-5.134,-5.1366,-5.1362,-5.1388,-5.1391,-5.1369,-5.1391,-5.1394,-5.1394,-5.14,-5.14,-5.14,-5.14,-5.14,-5.14,-5.1372,-5.1372,-5.1394,-5.1385,-5.1362,-5.1369,-5.1369,-5.1366,-5.1362,-5.1366,-5.1369,-5.1366,-5.131,-5.1307,-5.131,-5.1308,-5.13,-5.13,-5.13,-5.13,-5.1183,-5.056,-5.0365,-5.0112,-4.8884,-4.8378,-4.7988,-4.7131,-4.6277,-4.5342,-4.4225,-4.3475,-4.2731,-4.1652,-4.1428,-4.1361,-4.1146,-4.1107,-4.1283,-4.1867,-4.1965,-4.2257,-4.3114,-4.378,-4.4579,-4.5693,-4.6043,-4.6199,-4.6199,-4.6199,-4.6199,-4.6199,-4.6199,-4.6199,-4.6199,-4.6199,-4.6199,-4.6199,-4.6199,-4.6199,-4.6199,-4.6199,-4.6199,-4.6199,-4.5576,-4.5264,-4.5244,-4.4364,-4.3952,0.0,0.0,-3.9911,-3.9986,-3.9996,-4.0007,-4.0096,-4.0157,-4.0196,-4.0196,-4.0253,-4.054,-4.1323,-4.2163,-4.3291,-4.4953,-4.6634,-4.8161,-4.937,-5.0256,-5.0894,-5.1256,-5.1296,-5.13,0.0,-5.13,-5.13,-5.13,-5.1303,-5.1303,-5.1304,-5.1356,-5.1369,-5.1314,-5.1366,-5.1394,-5.1394,-5.1391,-5.1399,-5.1399,-5.1399,-5.1399,-5.1396,-5.133,-5.134,-5.1391,-5.1339,-5.1296,-5.1294,-5.1294,-5.13,-5.1304,-5.1307,-5.1294,-5.1291,-5.1308,-5.1296,-5.131,-5.1308,-5.13,-5.13,-5.13,-5.13,-5.13,-5.1261,-5.1261,-5.1242,-5.1203,-5.0579,-4.9742,-4.8923,-4.8066,-4.6998,-4.5264,-4.4835,-4.4348,-4.263,-4.2257,-4.2023,-4.1244,-4.1107,-4.1107,-4.1127,-4.1146,-4.14,-4.2218,-4.2354,-4.3,-4.4718,-4.5673,-4.6199,-4.6199,-4.6199,-4.6199,-4.6199,-4.6199,-4.6199,-4.6199,-4.6199,-4.6199,-4.6199,-4.6199,-4.6199,-4.6199,-4.6199,-4.6199,-4.6199,-4.618,-4.616,-4.6141,-4.5264,-4.4855,0.0,0.0,-3.9911,-3.9986,-4.0017,-4.0077,-4.0157,-4.0225,-4.0263,-4.0263,-4.117,-4.2049,-4.2316,-4.3959,-4.564,-4.6768,-4.7986,-4.9144,-5.0132,-5.0571,-5.0891,-5.1145,-5.1161,0.0,0.0,0.0,0.0,-5.13,-5.1308,-5.1308,-5.13,-5.1312,-5.1316,-5.1292,-5.131,-5.1333,-5.1339,-5.132,-5.133,-5.133,-5.1378,-5.1403,-5.1403,-5.1372,-5.1388,-5.1394,-5.1382,-5.1336,-5.1294,-5.1294,-5.13,-5.13,-5.1308,-5.1292,-5.1292,-5.1304,-5.1304,-5.1289,-5.13,-5.13,-5.13,-5.13,-5.13,-5.13,-5.13,-5.13,-5.13,-5.13,-5.1086,-5.0794,-5.0521,-4.98,-4.8884,-4.7754,-4.7053,-4.6157,-4.4403,-4.3565,-4.2919,-4.2062,-4.1477,-4.1107,-4.1107,-4.1107,-4.1361,-4.2179,-4.2783,-4.3582,-4.4757,-4.5166,-4.5556,-4.6141,-4.6199,-4.6199,-4.6199,-4.6199,-4.6199,-4.6199,-4.6199,-4.6199,-4.6199,-4.6199,-4.6199,-4.6199,-4.6199,-4.6199,-4.6199,-4.6199,-4.6199,-4.6199,-4.5907,-4.5771,-3.99,-3.99,-3.9911,-3.9954,-4.0007,-4.0077,-4.0118,-4.0196,-4.0263,-4.0263,-4.1371,-4.2526,-4.3119,-4.5029,-4.6901,-4.8067,-4.9048,-4.9882,-5.05,-5.0661,-5.0786,-5.0978,-5.1056,0.0,0.0,0.0,0.0,-5.13,-5.13,-5.13,-5.13,-5.13,-5.13,-5.13,-5.1292,-5.1296,-5.13,-5.1615,-5.1915,-5.2226,-5.2266,-5.2285,-5.2272,-5.1967,-5.183,-5.1804,-5.1492,-5.133,-5.1303,-5.131,-5.13,-5.13,-5.1308,-5.1308,-5.13,-5.13,-5.13,-5.13,-5.13,-5.13,-5.13,-5.13,-5.13,-5.13,-5.13,-5.13,-5.13,-5.13,-5.13,-5.13,-5.13,-5.0872,-5.0268,-4.943,-4.8806,-4.791,-4.6199,-4.5144,-4.4267,-4.341,-4.2315,-4.1536,-4.1536,-4.1283,-4.1283,-4.1789,-4.2354,-4.3133,-4.4286,-4.4718,-4.5108,-4.5673,-4.6004,-4.6199,-4.6199,-4.6199,-4.6199,-4.6199,-4.6199,-4.6199,-4.6199,-4.6199,-4.6199,-4.6199,-4.6199,-4.6199,-4.6199,-4.6199,-4.6199,-4.6199,-4.6199,-4.6199,-3.99,-3.99,-3.99,-3.99,-3.9954,-3.9996,-3.9996,-4.0098,-4.0196,-4.0196,-4.0931,-4.2068,0.0,0.0,-4.7073,-4.8812,-4.9729,-5.0325,-5.0547,-5.0577,-5.0634,0.0,0.0,0.0,0.0,0.0,0.0,-5.1269,0.0,-5.13,-5.13,-5.13,-5.13,-5.13,-5.1339,-5.1378,-5.1378,-5.2235,-5.3084,-5.3903,-5.3904,-5.3891,-5.3868,-5.3031,-5.2657,-5.2593,-5.1775,-5.1405,-5.1405,-5.1374,-5.1351,-5.1347,-5.1296,-5.1269,-5.1269,-5.1269,-5.1269,-5.1269,-5.1269,-5.1292,-5.13,-5.13,-5.13,-5.13,-5.13,-5.13,-5.13,-5.13,-5.13,-5.13,-5.13,-5.13,-5.1086,-5.0268,-5.0073,-4.9625,-4.7988,-4.6956,-4.6063,-4.5147,-4.3526,-4.2296,-4.2296,-4.1633,-4.1107,-4.1107,-4.1107,-4.1692,-4.3328,-4.4267,-4.4796,-4.4894,-4.5634,-4.616,-4.6199,-4.6199,-4.6199,-4.6199,-4.6199,-4.6199,-4.6199,-4.6199,-4.6199,-4.6199,-4.6199,-4.6199,-4.6199,-4.6199,-4.6199,-4.6199,-4.6199,-4.6199,-3.99,-3.99,-3.99,-3.99,-3.9954,-3.9996,-3.9996,-4.0067,-4.0147,-4.0186,-4.1379,-4.2716,0.0,0.0,0.0,-4.8812,-4.9282,0.0,-5.0267,-5.0374,0.0,0.0,0.0,-5.0775,-5.0862,-5.0912,0.0,0.0,-5.1162,-5.13,-5.13,-5.13,-5.13,-5.13,-5.1939,-5.2271,-5.2275,-5.3132,-5.3689,-5.3903,-5.3901,-5.3853,-5.3736,-5.3526,-5.3344,-5.3178,-5.2965,-5.2854,-5.2822,-5.233,-5.203,-5.1844,-5.1356,-5.1066,-5.0933,-5.0933,-5.0933,-5.0933,-5.0933,-5.1095,-5.13,-5.13,-5.13,-5.13,-5.13,-5.13,-5.13,-5.13,-5.13,-5.13,-5.13,-5.13,-5.1242,-5.1028,-5.0969,-5.0677,-4.9605,-4.8729,-4.7696,-4.616,-4.3936,-4.2296,-4.2296,-4.1633,-4.1107,-4.1107,-4.1107,-4.1477,-4.2491,-4.2822,-4.3468,-4.4757,-4.5108,-4.5498,-4.6141,-4.6199,-4.6199,-4.6199,-4.6199,-4.6199,-4.6199,-4.6199,-4.6199,-4.6199,-4.6199,-4.6199,-4.6199,-4.6199,-4.6199,-4.6199,-4.6199,-4.6199,-3.99,-3.99,-3.99,-3.99,-3.9954,-3.9996,-3.9996,-4.0057,-4.0117,-4.0157,-4.1214,0.0,0.0,0.0,0.0,0.0,0.0,0.0,-5.0187,-5.0302,-5.0329,0.0,-5.0557,0.0,-5.0705,-5.0769,-5.0798,0.0,-5.0972,-5.1111,-5.1215,-5.122,-5.1414,-5.1861,-5.2345,-5.2929,-5.3589,-5.4091,-5.4484,-5.478,-5.4769,-5.4741,-5.4653,-5.4259,-5.4037,-5.3913,0.0,-5.3356,-5.332,-5.2988,-5.2552,-5.2066,-5.1687,-5.1247,-5.0798,-5.0798,-5.0798,-5.0798,-5.0798,-5.0926,-5.11,-5.1186,-5.122,-5.1225,-5.1288,-5.13,-5.13,-5.13,-5.13,-5.1292,-5.123,-5.122,-5.122,-5.122,-5.1146,-5.097,-5.0568,-4.9834,-4.8641,-4.6601,-4.5027,-4.3643,-4.2491,-4.1926,-4.1516,-4.1146,-4.1107,-4.1263,-4.1711,-4.2081,-4.2656,-4.3561,-4.4004,-4.4571,-4.5386,-4.5501,-4.5661,-4.5964,-4.6119,-4.6127,-4.5983,-4.6065,-4.6106,-4.6106,-4.6022,-4.6022,-4.6106,-4.6022,-4.5983,-4.5983,-4.5983,-4.6027,-3.99,-3.99,-3.99,-3.99,-3.9943,-3.9986,-3.9986,-4.0036,-4.0086,-4.0077,0.0,-4.1489,-4.237,0.0,-4.5309,-4.7177,0.0,-4.9079,-5.0015,-5.0225,-5.0302,-5.0302,-5.0453,-5.0567,-5.0567,-5.067,-5.0726,-5.0726,-5.0726,-5.0825,-5.1049,-5.1172,-5.173,-5.2835,-5.2879,-5.3549,-5.5016,-5.5035,-5.5322,-5.5887,-5.5891,-5.5894,-5.5833,-5.5075,-5.4729,-5.4658,0.0,0.0,-5.3577,-5.355,-5.3058,-5.2359,-5.2147,-5.1597,-5.0899,-5.0784,-5.0726,-5.0726,-5.0726,-5.0726,-5.0778,-5.0992,-5.1056,-5.108,-5.1201,-5.1224,-5.1224,-5.1224,-5.1224,-5.1205,-5.1086,-5.1056,-5.1056,-5.1056,-5.0932,-5.0855,-5.1017,-5.0408,-4.9185,-4.7081,-4.65,-4.5611,-4.3231,-4.2627,-4.2198,-4.138,-4.1166,-4.1107,-4.1107,-4.1711,-4.2135,-4.2125,-4.2787,-4.3532,-4.4299,-4.4552,-4.4927,-4.5504,-4.592,-4.5993,-4.5717,-4.5859,-4.5956,-4.5956,-4.579,-4.579,-4.5956,-4.579,-4.5703,-4.5703,-4.5703,-4.579,-3.99,-3.99,-3.99,-3.99,-3.9911,-3.9911,-3.9911,-3.9922,0.0,0.0,0.0,-4.0542,-4.1453,-4.1855,0.0,-4.5324,0.0,0.0,0.0,0.0,-5.0302,0.0,0.0,0.0,0.0,0.0,0.0,0.0,0.0,0.0,-5.084,-5.1544,-5.2636,-5.4208,-5.4247,-5.4742,-5.5725,-5.5725,-5.5786,-5.5907,-5.5896,-5.5816,-5.5651,-5.5497,-5.5371,-5.5241,0.0,0.0,-5.4985,-5.4383,-5.3985,-5.3637,-5.2355,-5.168,-5.1365,-5.0656,-5.0388,-5.0388,-5.0388,-5.0388,-5.0445,-5.0753,-5.0855,-5.0862,-5.0891,-5.0898,-5.0898,-5.0898,-5.0898,-5.0872,-5.0862,-5.0855,-5.0855,-5.0855,-5.0832,-5.0805,-5.0847,-5.0306,-4.9687,-4.9262,-4.815,-4.6897,-4.5728,-4.4325,-4.3075,-4.2218,-4.1536,-4.1107,-4.1107,-4.1224,-4.1552,-4.2201,-4.2298,-4.267,-4.3529,-4.4174,-4.4576,-4.4704,-4.5389,-4.5757,-4.571,-4.5731,-4.5744,-4.5744,-4.5717,-4.5717,-4.5744,-4.5717,-4.5703,-4.5703,-4.5703,-4.5717,-3.99,-3.99,-3.99,-3.99,-3.99,-3.99,-3.99,0.0,0.0,0.0,0.0,-4.0108,-4.0572,0.0,0.0,0.0,0.0,0.0,0.0,0.0,0.0,0.0,0.0,0.0,0.0,0.0,0.0,0.0,0.0,0.0,-5.1287,-5.2646,-5.3771,-5.4564,-5.5028,-5.5437,-5.5741,-5.5741,-5.57,-5.5643,-5.5643,-5.5588,-5.5492,-5.5492,-5.5458,-5.5403,-5.5403,0.0,-5.5365,-5.5011,-5.4578,-5.404,-5.3299,-5.2422,-5.1551,-5.1142,-5.0684,-5.0302,-5.0302,-5.0302,-5.0317,-5.0488,-5.0615,-5.0713,-5.0786,-5.0798,-5.0798,-5.0798,-5.0798,-5.0774,-5.0703,-5.0696,-5.0696,-5.0696,-5.0696,-5.0696,-5.0696,-5.0447,-5.0101,-4.9709,-4.9045,-4.813,-4.6849,-4.5595,-4.4331,-4.2976,-4.2163,-4.1542,-4.1054,-4.1068,-4.1211,-4.154,-4.1518,-4.1756,-4.246,-4.2905,-4.3289,-4.3594,-4.4542,-4.5,-4.4816,-4.5324,-4.5603,-4.5603,-4.5533,-4.5533,-4.5603,-4.5533,-4.5481,-4.5481,-4.5481,-4.5533,-3.99,-3.99,-3.99,-3.99,-3.99,-3.99,-3.99,-3.99,0.0,0.0,-3.99,-3.9922,-3.9986,0.0,0.0,0.0,0.0,0.0,0.0,0.0,0.0,0.0,0.0,0.0,0.0,0.0,0.0,0.0,0.0,0.0,-5.1975,-5.3591,-5.4583,-5.4766,-5.5432,-5.573,-5.555,-5.555,-5.5504,-5.5403,-5.5403,-5.5403,-5.5403,-5.5403,-5.5403,-5.5403,-5.5403,0.0,0.0,-5.5403,-5.5002,-5.4352,-5.418,-5.3187,-5.1849,-5.1658,-5.1047,-5.0302,-5.0302,-5.0302,-5.0302,-5.0302,-5.0407,-5.0557,-5.0659,-5.0683,-5.0683,-5.0683,-5.0683,-5.0668,-5.0567,-5.0536,-5.0536,-5.0536,-5.0536,-5.0536,-5.0536,-5.0576,-5.0423,-4.9843,-4.9764,-4.9297,-4.7793,-4.6907,-4.5808,-4.402,-4.3033,-4.2162,-4.1233,-4.1073,-4.1023,-4.0917,-4.0907,-4.1059,-4.1443,-4.1709,-4.204,-4.2489,-4.3536,-4.4023,-4.3759,-4.4672,-4.5177,-4.5177,-4.5255,-4.5351,-4.5455,-4.5351,-4.5307,-4.5307,-4.5307,-4.5361,-3.99,-3.99,-3.99,-3.99,-3.99,-3.99,-3.99,0.0,0.0,-3.99,-3.99,-3.9922,-3.9986,-4.0083,0.0,0.0,0.0,0.0,0.0,0.0,0.0,0.0,0.0,0.0,0.0,0.0,0.0,0.0,0.0,0.0,0.0,-5.363,-5.4522,-5.5294,-5.539,-5.5447,-5.5422,-5.5422,-5.5409,-5.5403,-5.5403,-5.5403,-5.5403,-5.5403,-5.5403,-5.5403,0.0,0.0,0.0,-5.5403,-5.5345,-5.5212,-5.4409,-5.3511,-5.2594,-5.1868,-5.1047,-5.0302,-5.0302,-5.0302,-5.0302,-5.0302,-5.0314,-5.0317,-5.034,-5.0352,-5.0352,-5.0352,-5.0352,-5.034,-5.0317,-5.0337,-5.0337,-5.0337,-5.0337,-5.0337,-5.0337,-5.0464,-5.0577,-5.0519,-5.0606,-5.0384,-4.944,-4.8609,-4.7487,-4.574,-4.4136,-4.2802,-4.1919,-4.1294,-4.0917,-4.0907,-4.0907,-4.0863,-4.0803,-4.135,-4.1701,-4.1629,-4.2451,-4.2929,-4.2908,-4.3702,-4.4132,-4.4132,-4.4906,-4.5317,-4.5309,-4.5317,-4.5307,-4.5307,-4.5307,-4.5317,-3.99,-3.99,-3.99,-3.99,-3.99,-3.99,-3.99,0.0,-3.99,-3.99,-3.99,-3.9911,-3.9933,-3.9975,-4.0131,0.0,0.0,0.0,0.0,0.0,0.0,0.0,0.0,0.0,0.0,0.0,0.0,0.0,0.0,0.0,0.0,-5.4409,-5.504,-5.5403,-5.5403,-5.5403,-5.5403,-5.5403,-5.5403,-5.5403,-5.5403,-5.5403,-5.5403,-5.5403,-5.5403,-5.5403,0.0,0.0,0.0,-5.5403,-5.5403,-5.5365,-5.5021,-5.4352,-5.3473,-5.2633,-5.1811,-5.1009,-5.0474,-5.0302,-5.0302,-5.0302,-5.0302,-5.0302,-5.0302,-5.0302,-5.0302,-5.0302,-5.0302,-5.0302,-5.0302,-5.0302,-5.0302,-5.0302,-5.0302,-5.0302,-5.0302,-5.0363,-5.0429,-5.0429,-5.0466,-5.0383,-5.0046,-4.9375,-4.8468,-4.7156,-4.5668,-4.4177,-4.2757,-4.1931,-4.135,-4.0937,-4.0975,-4.093,-4.0712,-4.0932,-4.1001,-4.0788,-4.1552,-4.2011,-4.2011,-4.2832,-4.3291,-4.3291,-4.3615,-4.3806,-4.3806,-4.3806,-4.3806,-4.3806,-4.3806,-4.3806,-3.9878,-3.99,-3.99,-3.99,-3.99,-3.99,0.0,0.0,-3.99,-3.99,-3.99,-3.99,-3.99,-3.9933,-3.9986,-4.0057,0.0,-4.3933,0.0,0.0,0.0,0.0,0.0,0.0,0.0,0.0,0.0,0.0,0.0,0.0,0.0,-5.5078,-5.5403,-5.5403,-5.5403,-5.5403,-5.5403,-5.5403,-5.5403,-5.5403,-5.5403,-5.5403,-5.5403,-5.5403,-5.5403,-5.5403,0.0,0.0,0.0,-5.5403,-5.5403,-5.5403,-5.5403,-5.4715,-5.3645,-5.3034,-5.2136,-5.1142,-5.0512,-5.0302,-5.0302,-5.0302,-5.0302,-5.0302,-5.0302,-5.0302,-5.0302,-5.0302,-5.0302,-5.0302,-5.0302,-5.0302,-5.0302,-5.0302,-5.0302,-5.0302,-5.0302,-5.0302,-5.0302,-5.0302,-5.0302,-5.0302,-5.0302,-4.992,-4.9273,-4.8337,-4.7117,-4.5764,-4.4228,-4.298,-4.2047,-4.1567,-4.1194,-4.0912,-4.0712,-4.0694,-4.0593,-4.0329,-4.0826,-4.1151,-4.1151,-4.1953,-4.2412,-4.2412,-4.2679,-4.2794,-4.2794,-4.2794,-4.2794,-4.2794,-4.2794,-4.2794,-3.9826,-3.99,-3.99,-3.99,-3.99,-3.99,0.0,0.0,-3.99,-3.99,-3.99,-3.99,-3.99,-3.99,-3.9922,-3.9986,-4.1474,0.0,0.0,0.0,0.0,0.0,0.0,0.0,0.0,0.0,0.0,0.0,0.0,0.0,0.0,-5.5403,-5.5403,-5.5403,-5.5403,-5.5403,-5.5403,-5.5403,-5.5403,-5.5403,-5.5403,-5.5403,-5.5403,-5.5403,-5.5403,0.0,0.0,0.0,0.0,-5.5403,-5.5403,-5.5403,-5.5403,-5.4333,-5.2805,-5.2805,-5.1735,-5.0302,-5.0302,-5.0302,-5.0302,-5.0302,-5.0302,-5.0302,-5.0302,-5.0302,-5.0302,-5.0302,-5.0302,-5.0302,-5.0302,-5.0302,-5.0302,-5.0302,-5.0302,-5.0302,-5.0302,-5.0302,-5.0302,-5.0302,-5.0302,-5.0302,-5.0302,-5.0283,-5.0015,-4.9224,-4.8334,-4.7455,-4.6577,-4.4432,-4.2992,-4.2972,-4.1612,-4.07,-4.0694,-4.0694,-4.0593,-4.0329,-4.0301,-4.0301,-4.0301,-4.1094,-4.1514,-4.1514,-4.2354,-4.2794,-4.2794,-4.2794,-4.2794,-4.2794,-4.2794,-4.2794,-3.9268,-3.9281,-3.9332,-3.9556,-3.9452,-3.9332,-3.9568,0.0,-3.9623,-3.9623,-3.977,-3.99,-3.99,-3.99,-3.9922,-3.9986,-4.1455,0.0,0.0,0.0,0.0,0.0,0.0,0.0,0.0,0.0,0.0,0.0,0.0,0.0,0.0,0.0,-5.5403,-5.5403,-5.5403,-5.5403,-5.5403,-5.5403,-5.5403,-5.5403,-5.5403,-5.5403,-5.5403,-5.5403,0.0,0.0,0.0,0.0,0.0,-5.5403,-5.5403,-5.5345,-5.4734,-5.418,-5.355,-5.2403,-5.1639,-5.1104,-5.0512,-5.0302,-5.0302,-5.0302,-5.0302,-5.0302,-5.0302,-5.0302,-5.0302,-5.0302,-5.0302,-5.0302,-5.0302,-5.0302,-5.0302,-5.0302,-5.0302,-5.0302,-5.0302,-5.0302,-5.0302,-5.0302,-5.0302,-5.0302,-5.0302,-5.0302,-5.0206,-4.9958,-4.9213,-4.8372,-4.7502,-4.6228,-4.5227,-4.4753,-4.3245,-4.1809,-4.0668,-4.0552,-4.0492,-4.0301,-4.0301,-4.0301,-4.0301,-4.053,-4.0692,-4.0692,-4.096,-4.1084,-4.1084,-4.1084,-4.1084,-4.1084,-4.1084,-4.1084,0.0,-3.8994,-3.9049,-3.9255,-3.9163,0.0,0.0,0.0,-3.9313,-3.9313,-3.9544,-3.9747,-3.9747,-3.9826,-3.9911,-3.9954,-4.1464,0.0,0.0,0.0,0.0,0.0,0.0,0.0,0.0,0.0,0.0,0.0,0.0,0.0,0.0,0.0,-5.5403,-5.5403,-5.5403,-5.5403,-5.5403,-5.5403,-5.5403,-5.5403,-5.5403,-5.5403,-5.5403,-5.5403,0.0,0.0,0.0,0.0,0.0,-5.5403,-5.5212,-5.4868,-5.4314,-5.3702,-5.3034,-5.1971,-5.1391,-5.1028,-5.0493,-5.0302,-5.0302,-5.0302,-5.0302,-5.0302,-5.0302,-5.0302,-5.0302,-5.0302,-5.0302,-5.0302,-5.0302,-5.0302,-5.0302,-5.0302,-5.0302,-5.0302,-5.0302,-5.0302,-5.0302,-5.0302,-5.0302,-5.0302,-5.0302,-5.0302,-5.0302,-5.0302,-4.9862,-4.9366,-4.8812,-4.7723,-4.683,-4.6416,-4.4863,-4.3318,-4.1937,-4.1014,-4.0436,-4.032,-4.0301,-4.0301,-4.0301,-4.0301,-4.0301,-4.0301,-4.0301,-4.0301,-4.0301,-4.0301,-4.0301,-4.0301,-4.0301,-4.0301,0.0,-3.8938,-3.8938,-3.8966,-3.8952,-3.8938,-3.8966,0.0,0.0,-3.8966,-3.9229,-3.9458,-3.9458,-3.9682,-3.9878,-3.9878,0.0,0.0,0.0,0.0,0.0,0.0,0.0,0.0,0.0,0.0,0.0,0.0,0.0,0.0,0.0,0.0,-5.5403,-5.5403,-5.5403,-5.5403,-5.5403,-5.5403,-5.5403,-5.5403,-5.5403,-5.5403,-5.5403,-5.5403,0.0,0.0,0.0,0.0,0.0,-5.5307,-5.4791,-5.4008,-5.3932,-5.2977,-5.1589,-5.1544,-5.1009,-5.0302,-5.0302,-5.0302,-5.0302,-5.0302,-5.0302,-5.0302,-5.0302,-5.0302,-5.0302,-5.0302,-5.0302,-5.0302,-5.0302,-5.0302,-5.0302,-5.0302,-5.0302,-5.0302,-5.0302,-5.0302,-5.0302,-5.0302,-5.0302,-5.0302,-5.0302,-5.0302,-5.0302,-5.0302,-5.0302,-5.0302,-5.0302,-4.8945,-4.7979,-4.7979,-4.6481,-4.5144,-4.4331,-4.2063,-4.0581,-4.0396,-4.032,-4.0301,-4.0301,-4.0301,-4.0301,-4.0301,-4.0301,-4.0301,-4.0301,-4.0301,-4.0301,-4.0301,-4.0301,-4.0301,-3.8352,0.0,-3.843,-3.8643,-3.8538,-3.843,0.0,0.0,0.0,0.0,0.0,0.0,0.0,0.0,0.0,0.0,0.0,0.0,0.0,0.0,0.0,0.0,0.0,0.0,0.0,0.0,0.0,0.0,0.0,0.0,0.0,0.0,-5.5403,-5.5403,-5.5403,-5.5403,-5.5403,-5.5403,-5.5403,-5.5403,-5.5403,-5.5403,-5.5403,-5.5403,0.0,0.0,0.0,0.0,-5.4409,-5.4409,-5.3894,-5.3034,-5.2442,-5.1964,-5.1525,-5.0856,-5.0474,-5.0302,-5.0302,-5.0302,-5.0302,-5.0302,-5.0302,-5.0302,-5.0302,-5.0302,-5.0302,-5.0302,-5.0302,-5.0302,-5.0302,-5.0302,-5.0302,-5.0302,-5.0302,-5.0302,-5.0302,-5.0302,-5.0302,-5.0302,-5.0302,-5.0302,-5.0302,-5.0302,-5.0302,-5.0302,-5.0302,-5.0302,-5.0302,-4.9958,-4.971,-4.971,-4.822,-4.712,-4.691,-4.4057,-4.1963,-4.1246,-4.0635,-4.0301,-4.0301,-4.0301,-4.0301,-4.0301,-4.0301,-4.0301,-4.0301,-4.0301,-4.0301,-4.0301,-4.0253,-4.0215,-3.8209,-3.8209,-3.8224,-3.8368,-3.8305,-3.8241,-3.8385,0.0,0.0,0.0,0.0,0.0,0.0,0.0,0.0,0.0,0.0,0.0,0.0,0.0,0.0,0.0,0.0,0.0,0.0,0.0,0.0,0.0,0.0,0.0,0.0,0.0,-5.5002,-5.5403,-5.5403,-5.5403,-5.5403,-5.5403,-5.5403,-5.5403,-5.5403,-5.5403,-5.5403,-5.5403,0.0,0.0,0.0,0.0,-5.3492,-5.3492,-5.3015,-5.2212,-5.1773,-5.1372,-5.0951,-5.0474,-5.0302,-5.0302,-5.0302,-5.0302,-5.0302,-5.0302,-5.0302,-5.0302,-5.0302,-5.0302,-5.0302,-5.0302,-5.0302,-5.0302,-5.0302,-5.0302,-5.0302,-5.0302,-5.0302,-5.0302,-5.0302,-5.0302,-5.0302,-5.0302,-5.0302,-5.0302,-5.0302,-5.0302,-5.0302,-5.0302,-5.0302,-5.0302,-5.0302,-5.0302,-5.0302,-5.0302,-4.95,-4.8812,-4.843,-4.6366,-4.4399,-4.2756,-4.223,-4.1829,-4.1457,-4.1055,-4.0692,-4.0301,-4.0301,-4.0301,-4.0301,-4.0673,-4.0845,-4.0864,-4.1599,-4.1952,-3.8209,-3.8209,-3.8209,-3.8209,-3.8209,-3.8209,-3.8209,0.0,0.0,0.0,0.0,0.0,0.0,0.0,0.0,0.0,0.0,0.0,0.0,0.0,0.0,0.0,0.0,0.0,0.0,0.0,0.0,0.0,0.0,0.0,0.0,0.0,0.0,-5.4982,-5.5002,-5.5002,-5.5002,-5.5269,-5.5326,-5.5212,-5.5212,-5.5135,-5.5002,-5.5002,-5.46,0.0,0.0,0.0,-5.2614,-5.2614,-5.2136,-5.141,-5.141,-5.0951,-5.0302,-5.0302,-5.0302,-5.0302,-5.0302,-5.0302,-5.0302,-5.0302,-5.0302,-5.0302,-5.0302,-5.0302,-5.0302,-5.0302,-5.0302,-5.0302,-5.0302,-5.0302,-5.0302,-5.0302,-5.0302,-5.0302,-5.0302,-5.0302,-5.0302,-5.0302,-5.0302,-5.0302,-5.0302,-5.0302,-5.0302,-5.0302,-5.0302,-5.0302,-5.0302,-5.0302,-5.0302,-5.0302,-5.0302,-5.0015,-4.9328,-4.8621,-4.7196,-4.4913,-4.4407,-4.3902,-4.3214,-4.2469,-4.1762,-4.1094,-4.1065,-4.1065,-4.1065,-4.1743,-4.2068,-4.2106,-4.3529,-4.4187,-3.8209,-3.8209,-3.8209,-3.8209,-3.8209,-3.8209,-3.8209,0.0,0.0,0.0,0.0,0.0,0.0,0.0,0.0,0.0,0.0,0.0,0.0,0.0,0.0,0.0,0.0,0.0,0.0,0.0,0.0,0.0,0.0,0.0,0.0,0.0,0.0,-5.3187,-5.3206,-5.3206,-5.3206,-5.4658,-5.504,-5.4295,-5.4295,-5.3913,-5.3206,-5.3206,-5.3129,0.0,0.0,-5.2537,-5.1792,-5.1792,-5.1276,-5.0512,-5.0512,-5.0417,-5.0302,-5.0302,-5.0302,-5.0302,-5.0302,-5.0302,-5.0302,-5.0302,-5.0302,-5.0302,-5.0302,-5.0302,-5.0302,-5.0302,-5.0302,-5.0302,-5.0302,-5.0302,-5.0302,-5.0302,-5.0302,-5.0302,-5.0302,-5.0302,-5.0302,-5.0302,-5.0302,-5.0302,-5.0302,-5.0302,-5.0302,-5.0302,-5.0302,-5.0302,-5.0302,-5.0302,-5.0302,-5.0302,-5.0302,-5.0245,-5.013,-4.9996,-4.9438,-4.8311,-4.6258,-4.5048,-4.4914,-4.4791,-4.4647,-4.4532,-4.4532,-4.4532,-4.4532,-4.4657,-4.4734,-4.4723,-4.493,-4.5012,-3.8209,-3.8209,-3.8209,-3.8209,-3.8209,-3.8209,-3.8209,0.0,0.0,0.0,0.0,0.0,0.0,0.0,0.0,0.0,0.0,0.0,0.0,0.0,0.0,0.0,0.0,0.0,0.0,0.0,0.0,0.0,0.0,0.0,0.0,0.0,0.0,0.0,-5.2805,-5.2805,-5.2805,-5.3588,-5.3798,-5.3397,-5.3397,-5.3187,-5.2805,-5.2805,-5.2556,-5.2155,0.0,-5.1677,-5.0913,-5.0913,-5.0665,-5.0302,-5.0302,-5.0302,-5.0302,-5.0302,-5.0302,-5.0302,-5.0302,-5.0302,-5.0302,-5.0302,-5.0302,-5.0302,-5.0302,-5.0302,-5.0302,-5.0302,-5.0302,-5.0302,-5.0302,-5.0302,-5.0302,-5.0302,-5.0302,-5.0302,-5.0302,-5.0302,-5.0302,-5.0302,-5.0302,-5.0302,-5.0302,-5.0302,-5.0302,-5.0302,-5.0302,-5.0302,-5.0302,-5.0302,-5.0302,-5.0302,-5.0302,-5.0302,-5.0302,-5.0302,-4.9946,-4.9121,-4.7506,-4.641,-4.5965,-4.5914,-4.5693,-4.5243,-4.5243,-4.5233,-4.52,-4.5652,-4.5881,-4.5856,-4.6801,-4.7251,-3.8263,-3.8209,-3.8209,-3.8209,-3.8209,-3.8209,-3.8209,0.0,0.0,0.0,0.0,0.0,0.0,0.0,0.0,0.0,0.0,0.0,0.0,0.0,0.0,0.0,0.0,0.0,0.0,0.0,0.0,0.0,0.0,0.0,0.0,0.0,0.0,0.0,-5.2212,-5.2212,-5.2212,-5.2212,-5.2327,-5.2518,-5.2518,-5.2403,-5.2212,-5.2212,-5.1888,-5.1314,-5.1314,-5.0932,-5.0302,-5.0302,-5.0302,-5.0302,-5.0302,-5.0302,-5.0302,-5.0302,-5.0302,-5.0302,-5.0302,-5.0302,-5.0302,-5.0302,-5.0302,-5.0302,-5.0302,-5.0302,-5.0302,-5.0302,-5.0302,-5.0302,-5.0302,-5.0302,-5.0302,-5.0302,-5.0302,-5.0302,-5.0302,-5.0302,-5.0302,-5.0302,-5.0302,-5.0302,-5.0302,-5.029,-5.029,-5.0302,-5.029,-5.029,-5.0302,-5.0302,-5.0302,-5.0302,-5.0302,-5.0302,-5.0302,-5.029,-5.0023,-4.9423,-4.8697,-4.8006,-4.7373,-4.7289,-4.6969,-4.6359,-4.6359,-4.6317,-4.6271,-4.6927,-4.7231,-4.721,-4.8603,-4.9267,-3.8408,-3.8209,-3.8209,-3.8209,-3.8209,0.0,-3.8209,-3.8209,0.0,-3.8209,0.0,0.0,0.0,0.0,0.0,0.0,0.0,0.0,0.0,0.0,0.0,0.0,0.0,0.0,0.0,0.0,0.0,0.0,0.0,0.0,0.0,0.0,0.0,0.0,0.0,-5.0474,-5.0474,-5.0474,-5.0894,-5.1697,-5.1697,-5.1257,-5.0474,-5.0474,-5.0455,-5.0397,-5.0397,-5.0359,-5.0302,-5.0302,-5.0302,-5.0302,-5.0302,-5.0302,-5.0302,-5.0302,-5.0302,-5.0302,-5.0302,-5.0302,-5.0302,-5.0302,-5.0302,-5.0302,-5.0302,-5.0302,-5.0302,-5.0302,-5.0302,-5.0302,-5.0302,-5.0302,-5.0302,-5.0302,-5.0302,-5.0302,-5.0302,-5.0302,-5.0302,-5.0302,-5.0302,-5.0302,-5.0302,-5.0255,-5.0243,-5.029,-5.0255,-5.0243,-5.029,-5.0302,-5.0302,-5.0302,-5.0302,-5.0302,-5.0302,-5.0236,-5.0205,-5.0206,-5.009,-4.9973,-4.9854,-4.9841,-4.9803,-4.9746,-4.9746,-4.9746,-4.9733,-4.9803,-4.9841,-4.9829,-4.9955,-5.0012,-3.8426,-3.8209,-3.8209,-3.8209,-3.8209,0.0,0.0,-3.8209,-3.8354,-3.8826,0.0,0.0,0.0,0.0,0.0,0.0,0.0,0.0,0.0,0.0,0.0,0.0,0.0,0.0,0.0,0.0,0.0,0.0,0.0,0.0,0.0,0.0,0.0,0.0,0.0,-5.0267,-5.0302,-5.0302,-5.0474,-5.0799,-5.0799,-5.0627,-5.0302,-5.0302,-5.0302,-5.0302,-5.0267,-5.0267,-5.0302,-5.0267,-5.0267,-5.0302,-5.0302,-5.0302,-5.0302,-5.0302,-5.0302,-5.0302,-5.0302,-5.0302,-5.0302,-5.0302,-5.0302,-5.0302,-5.0302,-5.0302,-5.0302,-5.0302,-5.0278,-5.0255,-5.029,-5.0302,-5.0302,-5.0302,-5.0302,-5.0302,-5.0302,-5.0302,-5.0302,-5.0302,-5.0302,-5.0302,-5.0302,-5.0278,-5.0267,-5.0243,-5.0231,-5.0188,-5.0182,-5.0219,-5.0243,-5.0243,-5.0278,-5.0302,-5.0302,-5.0278,-5.0267,-5.0243,-5.0212,-5.0175,-5.0151,-5.012,-5.0082,-5.0044,-5.0044,-5.0018,-4.9978,-5.0018,-5.0018,-4.9978,-5.0018,-5.0044,-3.848,-3.8209,-3.8209,0.0,0.0,0.0,-3.8209,-3.8408,-3.8807,0.0,0.0,0.0,0.0,0.0,0.0,0.0,0.0,0.0,0.0,0.0,0.0,0.0,0.0,0.0,0.0,0.0,0.0,0.0,0.0,0.0,0.0,0.0,0.0,0.0,0.0,0.0,-5.0243,-5.0243,-5.0243,-5.0243,-5.0243,-5.0267,-5.0302,-5.0302,-5.0302,-5.0302,-5.0243,-5.0231,-5.0267,-5.0207,-5.0219,-5.0267,-5.0267,-5.0267,-5.0278,-5.029,-5.0278,-5.0243,-5.029,-5.029,-5.0278,-5.029,-5.0302,-5.0302,-5.0302,-5.0302,-5.0302,-5.0302,-5.0267,-5.0243,-5.0267,-5.0267,-5.0267,-5.0267,-5.029,-5.0302,-5.0302,-5.0302,-5.0302,-5.0302,-5.0302,-5.0302,-5.0302,-5.029,-5.0255,-5.02,-5.0175,-5.0158,-5.0108,-5.0145,-5.0182,-5.0182,-5.0219,-5.0243,-5.0243,-5.0243,-5.0231,-5.02,-5.02,-5.0175,-5.0126,-5.0076,-5.0044,-4.9978,-4.9978,-4.9952,-4.9912,-4.9952,-4.9933,-4.9912,-4.9952,-4.9978,-3.8627,-3.8209,-3.8209,0.0,0.0,0.0,-3.8209,-3.8843,-3.9623,0.0,0.0,0.0,0.0,0.0,0.0,0.0,0.0,0.0,0.0,0.0,0.0,0.0,0.0,0.0,0.0,0.0,0.0,0.0,0.0,0.0,0.0,0.0,0.0,0.0,0.0,0.0,-5.0095,-5.0095,-5.0095,-5.0095,-5.0095,-5.017,-5.0302,-5.0302,-5.0302,-5.0302,-5.0243,-5.02,-5.0188,-5.0133,-5.0145,-5.02,-5.02,-5.02,-5.02,-5.0278,-5.0219,-5.012,-5.0255,-5.0248,-5.02,-5.0278,-5.0302,-5.0302,-5.0302,-5.0302,-5.0302,-5.0302,-5.0302,-5.029,-5.0231,-5.02,-5.02,-5.02,-5.0255,-5.0302,-5.0302,-5.0302,-5.0302,-5.0302,-5.0302,-5.0302,-5.0302,-5.0236,-5.02,-5.02,-5.0126,-5.0095,-5.0095,-5.0095,-5.0095,-5.0095,-5.0095,-5.0095,-5.0095,-5.0095,-5.0133,-5.0188,-5.02,-5.0139,-5.0018,-5.0005,-4.9978,-4.9893,-4.9893,-4.9912,-4.9912,-4.9912,-4.9912,-4.9912,-4.9912,-4.9912,-3.9315,-3.8644,0.0,0.0,0.0,0.0,0.0,-3.9623,0.0,0.0,0.0,0.0,0.0,0.0,0.0,0.0,0.0,0.0,0.0,0.0,0.0,0.0,0.0,0.0,0.0,0.0,0.0,0.0,0.0,0.0,0.0,0.0,0.0,0.0,0.0,0.0,-5.0095,-5.0095,-5.0095,-5.0095,-5.0095,-5.0145,-5.0243,-5.0243,-5.0243,-5.0231,-5.017,-5.0133,-5.0133,-5.0108,-5.012,-5.0133,-5.0133,-5.0133,-5.0133,-5.0158,-5.0133,-5.0108,-5.0145,-5.0145,-5.0133,-5.0158,-5.0158,-5.0158,-5.0158,-5.0194,-5.0243,-5.0243,-5.0243,-5.0231,-5.0219,-5.017,-5.0133,-5.0133,-5.0145,-5.0158,-5.0158,-5.0158,-5.0182,-5.0231,-5.0243,-5.0236,-5.029,-5.029,-5.0248,-5.02,-5.0175,-5.0139,-5.0108,-5.0057,-5.0057,-5.0095,-5.0095,-5.0095,-5.0095,-5.0095,-5.0108,-5.0133,-5.0133,-5.0133,-5.0139,-5.0139,-5.012,-5.0044,-4.9986,-4.9978,-4.9978,-4.9906,-4.9912,-4.9912,-4.9912,-4.9912,-3.9206,0.0,0.0,0.0,0.0,0.0,0.0,0.0,0.0,0.0,0.0,0.0,0.0,0.0,0.0,0.0,0.0,0.0,0.0,0.0,0.0,0.0,0.0,0.0,0.0,0.0,0.0,0.0,0.0,0.0,0.0,0.0,0.0,0.0,0.0,0.0,-5.0031,-5.0031,-5.0031,-5.0031,-5.0031,-5.0057,-5.0114,-5.0158,-5.017,-5.017,-5.0095,-5.0044,-5.0031,-5.0031,-5.0044,-5.0057,-5.0057,-5.0057,-5.007,-5.0095,-5.007,-5.0031,-5.0082,-5.0082,-5.007,-5.0095,-5.0095,-5.0095,-5.0095,-5.0133,-5.017,-5.017,-5.017,-5.0139,-5.0133,-5.0095,-5.007,-5.0095,-5.0095,-5.0095,-5.0095,-5.0095,-5.012,-5.0158,-5.017,-5.0163,-5.0219,-5.0219,-5.0207,-5.017,-5.017,-5.0145,-5.007,-5.0031,-5.0005,-5.0031,-5.0031,-5.0031,-5.0031,-5.0031,-5.0031,-5.0057,-5.0057,-5.0095,-5.017,-5.0126,-5.0076,-5.0031,-4.9992,-4.9965,-4.9965,-4.9925,-4.9912,-4.9912,-4.9912,-4.9912,-3.8699,0.0,0.0,0.0,0.0,0.0,0.0,0.0,0.0,0.0,0.0,0.0,0.0,0.0,0.0,0.0,0.0,0.0,0.0,0.0,0.0,0.0,0.0,0.0,0.0,0.0,0.0,0.0,0.0,0.0,0.0,0.0,0.0,0.0,0.0,0.0,-4.9912,-4.9912,-4.9912,0.0,-4.9912,-4.992,-5.0005,-5.0057,-5.0095,-5.0095,-5.0031,-4.9965,-4.9912,-4.9912,-4.9939,-4.9992,-4.9992,-4.9992,-5.0005,-5.0057,-4.9986,-4.9925,-5.0044,-5.0031,-4.9965,-5.0031,-5.0044,-5.0044,-5.0044,-5.007,-5.0095,-5.0095,-5.0095,-5.0082,-5.0031,-4.9986,-5.0018,-5.0082,-5.0082,-5.0082,-5.0082,-5.0082,-5.0082,-5.0095,-5.0095,-5.0095,-5.0095,-5.0095,-5.0095,-5.0095,-5.0095,-5.007,-5.0018,-4.9986,-4.9978,-4.9912,-4.9912,-4.9912,-4.9912,-4.9912,-4.9939,-4.9992,-4.9992,-5.0018,-5.0082,-5.0044,-4.9992,-4.9925,-4.9906,-4.9912,-4.9912,-4.9893,-4.9912,-4.9912,-4.9912,-4.9912,0.0,-3.868,0.0,0.0,0.0,0.0,0.0,0.0,0.0,0.0,0.0,0.0,0.0,0.0,0.0,0.0,0.0,0.0,0.0,0.0,0.0,0.0,0.0,0.0,0.0,0.0,0.0,0.0,0.0,0.0,0.0,0.0,0.0,0.0,0.0,-4.9912,-4.9912,-4.9912,-4.9912,0.0,-4.9912,-4.9912,-4.992,-4.9992,-5.0031,-5.0018,-4.9952,-4.9906,-4.9912,-4.9912,-4.9912,-4.9906,-4.9906,-4.9906,-4.9906,-4.9939,-4.992,-4.9893,-4.992,-4.9769,-4.9518,-4.9551,-4.9548,-4.9548,-4.9548,-4.9783,-5.0031,-5.0031,-5.0057,-5.0095,-5.0082,-5.0044,-5.0005,-5.0018,-4.9992,-4.9933,-4.9933,-4.9933,-4.9965,-5.0018,-5.0031,-5.0044,-5.0095,-5.0095,-5.0095,-5.0095,-5.0057,-5.0018,-5.0005,-4.9946,-4.9925,-4.9893,-4.9912,-4.9912,-4.9912,-4.9912,-4.9912,-4.9925,-4.9906,-4.9939,-4.9933,-5.0031,-5.007,-5.0057,-5.0005,-4.9978,-4.9978,-4.9939,-4.9912,-4.9912,-4.9912,-4.9912,0.0,0.0,0.0,0.0,0.0,0.0,0.0,0.0,0.0,0.0,0.0,0.0,0.0,0.0,0.0,0.0,0.0,0.0,0.0,0.0,0.0,0.0,0.0,0.0,0.0,0.0,0.0,0.0,0.0,0.0,0.0,0.0,0.0,0.0,-4.928,-4.9469,-4.9669,-4.9484,-4.9558,-4.9912,-4.9741,-4.9669,-4.9669,-4.9852,-4.9946,-4.9952,-4.9925,-4.9912,-4.9912,-4.9912,-4.9912,-4.9912,-4.9912,-4.9912,-4.9912,-4.9912,-4.9912,-4.9912,-4.9912,-4.9683,-4.9399,-4.9399,-4.927,-4.9155,-4.9334,-4.9551,-4.9707,-4.9707,-4.9852,-4.9978,-4.9811,-4.9852,-4.9946,-4.9946,-4.9939,-4.9912,-4.9912,-4.9912,-4.9912,-4.9952,-4.9946,-4.9965,-5.0005,-5.0031,-5.0057,-5.0057,-5.0057,-5.0044,-4.9986,-4.9978,-4.9939,-4.9893,-4.9912,-4.9912,-4.9912,-4.9912,-4.9912,-4.9912,-4.9912,-4.9912,-4.9912,-4.9978,-4.9986,-4.9986,-4.9978,-4.9946,-4.9946,-4.9925,-4.9912,-4.9912,-4.9912,-4.9912,0.0,0.0,0.0,0.0,0.0,0.0,0.0,0.0,0.0,0.0,0.0,0.0,0.0,0.0,0.0,0.0,0.0,0.0,0.0,0.0,0.0,0.0,0.0,0.0,0.0,0.0,0.0,0.0,0.0,0.0,0.0,0.0,-4.8711,-4.8711,-4.8764,-4.8971,-4.9302,-4.8971,-4.9102,-4.9707,-4.9442,-4.9302,-4.9318,-4.9573,-4.9722,-4.9722,-4.9722,-4.9722,-4.9722,-4.9722,-4.9722,-4.9722,-4.9722,-4.9722,-4.9722,-4.9797,-4.9783,-4.9722,-4.9797,-4.9548,-4.9206,-4.9206,-4.8971,-4.8782,-4.9106,-4.9255,-4.9302,-4.9302,-4.9503,-4.9665,-4.9442,-4.9611,-4.9824,-4.9898,-4.9912,-4.9912,-4.9912,-4.9912,-4.9912,-4.9912,-4.9912,-4.9912,-4.9912,-4.9952,-4.9992,-4.9992,-5.0031,-5.0044,-4.9992,-4.9992,-4.9965,-4.9912,-4.9912,-4.9912,-4.9912,-4.9912,-4.9912,-4.9912,-4.9912,-4.9912,-4.9912,-4.9912,-4.9912,-4.9912,-4.9912,-4.9912,-4.9912,-4.9912,-4.9912,-4.9912,-4.9912,-4.9912,0.0,0.0,0.0,0.0,0.0,0.0,0.0,0.0,0.0,0.0,0.0,0.0,0.0,0.0,0.0,0.0,0.0,0.0,0.0,0.0,0.0,0.0,0.0,0.0,0.0,0.0,0.0,0.0,0.0,0.0,0.0,-4.819,-4.8364,-4.8364,-4.8658,-4.8833,-4.8885,-4.8833,-4.885,-4.8952,-4.8902,-4.8885,-4.8885,-4.8936,-4.8952,-4.8952,-4.8952,-4.8952,-4.8952,-4.8952,-4.8952,-4.8952,-4.8952,-4.8952,-4.8986,-4.9331,-4.9252,-4.9003,-4.9349,-4.9023,-4.8439,-4.8439,-4.8402,-4.8383,-4.842,-4.8659,-4.8885,-4.8885,-4.8919,-4.9019,-4.9318,-4.9427,-4.9551,-4.9824,-4.9912,-4.9912,-4.9912,-4.9912,-4.9912,-4.9912,-4.9912,-4.9912,-4.9912,-4.9912,-4.9906,-4.9906,-4.9925,-4.9906,-4.9906,-4.9906,-4.9912,-4.9912,-4.9912,-4.9912,-4.9912,-4.9912,-4.9912,-4.9912,-4.9912,-4.9912,-4.9912,-4.9912,-4.9912,-4.9912,-4.9912,-4.9912,-4.9912,-4.9912,-4.9912,-4.9912,-4.9912,-4.9912,0.0,0.0,0.0,0.0,0.0,0.0,0.0,0.0,0.0,0.0,0.0,0.0,0.0,0.0,0.0,0.0,0.0,0.0,0.0,0.0,0.0,0.0,0.0,0.0,0.0,0.0,0.0,0.0,0.0,0.0,-4.7717,-4.7886,-4.797,-4.797,-4.8113,-4.8288,-4.8514,-4.8307,-4.8307,-4.8532,-4.8532,-4.8532,-4.8514,-4.8288,-4.8421,-4.8799,-4.8799,-4.8799,-4.8799,-4.8799,-4.8799,-4.8799,-4.8799,-4.8799,-4.8816,-4.9005,-4.8936,-4.8833,-4.9005,-4.873,-4.8306,-4.8306,-4.8151,-4.801,-4.8229,-4.8402,-4.8532,-4.8532,-4.8658,-4.8799,-4.8783,-4.892,-4.9153,-4.9533,-4.9625,-4.9683,-4.9852,-4.9912,-4.9912,-4.9912,-4.9912,-4.9912,-4.9912,-4.9912,-4.9912,-4.9912,-4.9912,-4.9912,-4.9912,-4.9912,-4.9912,-4.9912,-4.9912,-4.9912,-4.9912,-4.9912,-4.9912,-4.9912,-4.9912,-4.9912,-4.9912,-4.9912,-4.9912,-4.9912,-4.9912,-4.9912,-4.9912,-4.9912,-4.9912,-4.9912,-4.9912,-4.9912,0.0,0.0,0.0,0.0,0.0,0.0,0.0,0.0,0.0,0.0,0.0,0.0,0.0,0.0,0.0,0.0,0.0,0.0,0.0,0.0,0.0,0.0,0.0,0.0,0.0,0.0,0.0,0.0,0.0,0.0,-4.7717,-4.7717,-4.7717,-4.7717,-4.7717,-4.7827,-4.8131,-4.7845,-4.7866,-4.8151,-4.8151,-4.8151,-4.8149,-4.7845,-4.7994,-4.8513,-4.8513,-4.8513,-4.8513,-4.8513,-4.8513,-4.8513,-4.8513,-4.8513,-4.8532,-4.8641,-4.8623,-4.855,-4.8641,-4.8439,-4.8151,-4.8151,-4.7949,-4.7762,-4.807,-4.8151,-4.8151,-4.8151,-4.8326,-4.8495,-4.8326,-4.8477,-4.8782,-4.9155,-4.9255,-4.938,-4.9811,-4.9912,-4.9912,-4.9912,-4.9912,-4.9912,-4.9912,-4.9912,-4.9912,-4.9912,-4.9912,-4.9912,-4.9912,-4.9912,-4.9912,-4.9912,-4.9912,-4.9912,-4.9912,-4.9912,-4.9912,-4.9912,-4.9912,-4.9912,-4.9912,-4.9912,-4.9912,-4.9912,-4.9912,-4.9912,-4.9912,-4.9912,-4.9912,-4.9912,-4.9912,-4.9912,0.0,0.0,0.0,0.0,0.0,0.0,0.0,0.0,0.0,0.0,0.0,0.0,0.0,0.0,0.0,0.0,0.0,0.0,0.0,0.0,0.0,0.0,0.0,0.0,0.0,0.0,0.0,0.0,0.0,0.0,-4.7717,-4.7717,-4.7717,-4.7717,-4.7717,-4.7699,-4.772,-4.7699,-4.7699,-4.772,-4.772,-4.772,-4.772,-4.7699,-4.772,-4.7762,-4.7762,-4.7762,-4.7762,-4.7762,-4.7762,-4.7762,-4.7762,-4.7762,-4.7785,-4.819,-4.8072,-4.7824,-4.819,-4.8052,-4.772,-4.772,-4.7717,-4.7699,-4.772,-4.772,-4.772,-4.772,-4.7741,-4.7827,-4.8209,-4.8306,-4.842,-4.8746,-4.8833,-4.9036,-4.975,-4.9912,-4.9912,-4.9912,-4.9912,-4.9912,-4.9912,-4.9912,-4.9912,-4.9912,-4.9912,-4.9912,-4.9912,-4.9912,-4.9912,-4.9912,-4.9912,-4.9912,-4.9912,-4.9912,-4.9912,-4.9912,-4.9912,-4.9912,-4.9912,-4.9912,-4.9912,-4.9912,-4.9912,-4.9912,-4.9912,-4.9912,-4.9912,-4.9912,-4.9912,-4.9912,0.0,0.0,0.0,0.0,0.0,0.0,0.0,0.0,0.0,0.0,0.0,0.0,0.0,0.0,0.0,0.0,0.0,0.0,0.0,0.0,0.0,0.0,0.0,0.0,0.0,0.0,0.0,0.0,0.0,0.0,-4.7717,-4.7717,-4.7717,-4.7717,-4.7717,-4.7717,-4.7717,-4.7717,-4.7717,-4.7717,-4.7717,-4.7717,-4.7717,-4.7717,-4.7717,-4.7717,-4.7717,-4.7717,-4.7717,-4.7717,-4.7717,-4.7717,-4.7717,-4.7717,-4.7717,-4.7847,-4.7824,-4.772,-4.7847,-4.7824,-4.7717,-4.7717,-4.7717,-4.7717,-4.7717,-4.7717,-4.7717,-4.7717,-4.7717,-4.772,-4.7886,-4.7909,-4.7992,-4.8383,-4.8641,-4.8936,-4.9472,-4.9581,-4.9655,-4.9852,-4.9912,-4.9912,-4.9912,-4.9912,-4.9912,-4.9912,-4.9912,-4.9912,-4.9912,-4.9912,-4.9912,-4.9912,-4.9912,-4.9912,-4.9912,-4.9912,-4.9912,-4.9912,-4.9912,-4.9912,-4.9912,-4.9912,-4.9912,-4.9912,-4.9912,-4.9912,-4.9912,-4.9912,-4.9912,-4.9912,-4.9912,-4.9912,0.0,0.0,0.0,0.0,0.0,0.0,0.0,0.0,0.0,0.0,0.0,0.0,0.0,0.0,0.0,0.0,0.0,0.0,0.0,0.0,0.0,0.0,0.0,0.0,0.0,0.0,0.0,0.0,0.0,0.0,-4.7717,-4.7717,-4.7717,-4.7717,-4.7717,-4.7717,-4.7717,-4.7717,-4.7717,-4.7717,-4.7717,-4.7717,-4.7717,-4.7717,-4.7717,-4.7717,-4.7717,-4.7717,-4.7717,-4.7717,-4.7717,-4.7717,-4.7717,-4.7717,-4.7717,-4.7717,-4.7717,-4.7717,-4.7717,-4.7717,-4.7717,-4.7717,-4.7717,-4.7717,-4.7717,-4.7717,-4.7717,-4.7717,-4.7717,-4.7717,-4.7717,-4.7717,-4.7762,-4.805,-4.8269,-4.855,-4.8939,-4.9123,-4.9331,-4.9811,-4.9811,-4.9769,-4.9866,-4.9912,-4.9912,-4.9912,-4.9912,-4.9912,-4.9912,-4.9912,-4.9912,-4.9912,-4.9912,-4.9912,-4.9912,-4.9912,-4.9912,-4.9912,-4.9912,-4.9912,-4.9912,-4.9912,-4.9912,-4.9912,-4.9912,-4.9912,-4.9912,-4.9912,-4.9912,-4.9912,-4.9912,-4.9912,0.0,0.0,0.0,0.0,0.0,0.0,0.0,0.0,0.0,0.0,0.0,0.0,0.0,0.0,0.0,0.0,0.0,0.0,0.0,0.0,0.0,0.0,0.0,0.0,0.0,0.0,0.0,0.0,0.0,-4.7717,-4.7717,-4.7717,-4.7717,-4.7717,-4.7717,-4.7717,-4.7717,-4.7717,-4.7717,-4.7717,-4.7717,-4.7717,-4.7717,-4.7717,-4.7717,-4.7717,-4.7717,-4.7717,-4.7717,-4.7717,-4.7717,-4.7717,-4.7717,-4.7717,-4.7717,-4.7717,-4.7717,-4.7717,-4.7717,-4.7717,-4.7717,-4.7717,-4.7717,-4.7717,-4.7717,-4.7717,-4.7717,-4.7717,-4.7717,-4.7717,-4.7717,-4.7717,-4.7717,-4.7717,-4.7717,-4.7804,-4.8209,-4.855,-4.8986,-4.9736,-4.9625,-4.9506,-4.9838,-4.9912,-4.9912,-4.9912,-4.9912,-4.9912,-4.9912,-4.9912,-4.9912,-4.9912,-4.9912,-4.9912,-4.9912,-4.9912,-4.9912,-4.9912,-4.9912,-4.9912,-4.9912,-4.9912,-4.9912,-4.9912,-4.9912,-4.9912,-4.9912,-4.9912,-4.9912,-4.9912,-4.9912,-4.9912,-3.9825,0.0,0.0,0.0,0.0,0.0,0.0,0.0,0.0,0.0,0.0,0.0,0.0,0.0,0.0,0.0,0.0,0.0,0.0,0.0,0.0,0.0,0.0,0.0,0.0,0.0,0.0,0.0,-4.7717,-4.7717,-4.7717,-4.7717,-4.7717,-4.7717,-4.7717,-4.7717,-4.7717,-4.7717,-4.7717,-4.7717,-4.7717,-4.7717,-4.7717,-4.7717,-4.7717,-4.7717,-4.7717,-4.7717,-4.7717,-4.7717,-4.7717,-4.7717,-4.7717,-4.7717,-4.7717,-4.7717,-4.7717,-4.7717,-4.7717,-4.7717,-4.7717,-4.7717,-4.7717,-4.7717,-4.7717,-4.7717,-4.7717,-4.7717,-4.7717,-4.7717,-4.7717,-4.7717,-4.7717,-4.7717,-4.7717,-4.7804,-4.8209,-4.8132,-4.8307,-4.9331,-4.9457,-4.9506,-4.9838,-4.9912,-4.9912,-4.9912,-4.9912,-4.9912,-4.9912,-4.9912,-4.9912,-4.9912,-4.9912,-4.9912,-4.9912,-4.9912,-4.9912,-4.9912,-4.9912,-4.9912,-4.9912,-4.9912,-4.9912,-4.9912,-4.9912,-4.9912,-4.9912,-4.9912,-4.9912,-4.9912,-4.9912,-4.9912,0.0,0.0,0.0,0.0,0.0,0.0,-4.1547,-4.3026,0.0,0.0,0.0,0.0,0.0,0.0,0.0,0.0,0.0,0.0,0.0,0.0,0.0,0.0,0.0,0.0,0.0,0.0,0.0,0.0,-4.7717,-4.7717,-4.7717,-4.7717,-4.7717,-4.7717,-4.7717,-4.7717,-4.7717,-4.7717,-4.7717,-4.7717,-4.7717,-4.7717,-4.7717,-4.7717,-4.7717,-4.7717,-4.7717,-4.7717,-4.7717,-4.7717,-4.7717,-4.7717,-4.7717,-4.7717,-4.7717,-4.7717,-4.7717,-4.7717,-4.7717,-4.7717,-4.7717,-4.7717,-4.7717,-4.7717,-4.7717,-4.7717,-4.7717,-4.7717,-4.7717,-4.7717,-4.7717,-4.7717,-4.7717,-4.7717,-4.7717,-4.7762,-4.801,-4.7866,-4.7992,-4.8954,-4.9155,-4.9268,-4.9621,-4.9811,-4.9912,-4.9912,-4.9912,-4.9912,-4.9912,-4.9912,-4.9912,-4.9912,-4.9912,-4.9912,-4.9912,-4.9912,-4.9912,-4.9912,-4.9912,-4.9912,-4.9912,-4.9912,-4.9912,-4.9912,-4.9912,-4.9912,-4.9912,-4.9912,-4.9912,-4.9912,-4.9912,-4.9912,0.0,0.0,0.0,0.0,0.0,0.0,-4.1779,-4.247,-4.3468,0.0,0.0,0.0,0.0,0.0,0.0,0.0,0.0,0.0,0.0,0.0,0.0,0.0,0.0,0.0,0.0,0.0,-4.7717,-4.7717,-4.7717,-4.7717,-4.7717,-4.7717,-4.7717,-4.7717,-4.7717,-4.7717,-4.7717,-4.7717,-4.7717,-4.7717,-4.7717,-4.7717,-4.7717,-4.7717,-4.7717,-4.7717,-4.7717,-4.7717,-4.7717,-4.7717,-4.7717,-4.7717,-4.7717,-4.7717,-4.7717,-4.7717,-4.7717,-4.7717,-4.7717,-4.7717,-4.7717,-4.7717,-4.7717,-4.7717,-4.7717,-4.7717,-4.7717,-4.7717,-4.7717,-4.7717,-4.7717,-4.7717,-4.7717,-4.7717,-4.7717,-4.7717,-4.7717,-4.7717,-4.7891,-4.855,-4.8711,-4.8886,-4.927,-4.9607,-4.9838,-4.9838,-4.9885,-4.9912,-4.9912,-4.9912,-4.9912,-4.9912,-4.9912,-4.9912,-4.9912,-4.9912,-4.9912,-4.9912,-4.9912,-4.9912,-4.9912,-4.9912,-4.9912,-4.9912,-4.9912,-4.9912,-4.9912,-4.9912,-4.9912,-4.9912,-4.9912,-4.9912,0.0,0.0,0.0,0.0,0.0,0.0,-4.0186,-4.0957,-4.1839,0.0,0.0,0.0,0.0,0.0,0.0,0.0,0.0,0.0,0.0,0.0,0.0,0.0,0.0,0.0,0.0,0.0,-4.7717,-4.7717,-4.7717,-4.7717,-4.7717,-4.7717,-4.7717,-4.7717,-4.7717,-4.7717,-4.7717,-4.7717,-4.7717,-4.7717,-4.7717,-4.7717,-4.7717,-4.7717,-4.7717,-4.7717,-4.7717,-4.7717,-4.7717,-4.7717,-4.7717,-4.7717,-4.7717,-4.7717,-4.7717,-4.7717,-4.7717,-4.7717,-4.7717,-4.7717,-4.7717,-4.7717,-4.7717,-4.7717,-4.7717,-4.7717,-4.7717,-4.7717,-4.7717,-4.7717,-4.7717,-4.7717,-4.7717,-4.7717,-4.7717,-4.7717,-4.7717,-4.7717,-4.7741,-4.7888,-4.819,-4.8514,-4.8869,-4.9252,-4.9506,-4.9506,-4.9726,-4.9912,-4.9912,-4.9912,-4.9912,-4.9912,-4.9912,-4.9912,-4.9912,-4.9912,-4.9912,-4.9912,-4.9912,-4.9912,-4.9912,-4.9912,-4.9912,-4.9912,-4.9912,-4.9912,-4.9912,-4.9912,-4.9912,-4.9912,-4.9912,-4.9912,0.0,0.0,0.0,-4.1895,0.0,0.0,0.0,-4.1513,0.0,0.0,0.0,0.0,0.0,0.0,0.0,0.0,0.0,0.0,0.0,0.0,0.0,0.0,0.0,0.0,0.0,0.0,-4.7717,-4.7717,-4.7717,-4.7717,-4.7717,-4.7717,-4.7717,-4.7717,-4.7717,-4.7717,-4.7717,-4.7717,-4.7717,-4.7717,-4.7717,-4.7717,-4.7717,-4.7717,-4.7717,-4.7717,-4.7717,-4.7717,-4.7717,-4.7717,-4.7717,-4.7717,-4.7717,-4.7717,-4.7717,-4.7717,-4.7717,-4.7717,-4.7717,-4.7717,-4.7717,-4.7717,-4.7717,-4.7717,-4.7717,-4.7717,-4.7717,-4.7717,-4.7717,-4.7717,-4.7717,-4.7717,-4.7717,-4.7717,-4.7717,-4.7717,-4.7717,-4.7717,-4.7717,-4.7717,-4.7847,-4.8111,-4.8495,-4.8852,-4.9171,-4.9384,-4.9551,-4.9712,-4.9885,-4.9912,-4.9912,-4.9912,-4.9912,-4.9912,-4.9912,-4.9912,-4.9912,-4.9912,-4.9912,-4.9912,-4.9912,-4.9912,-4.9912,-4.9912,-4.9912,-4.9912,-4.9912,-4.9912,-4.9912,-4.9912,-4.9912,-4.9912,0.0,0.0,0.0,0.0,0.0,-4.256,0.0,0.0,0.0,0.0,0.0,0.0,0.0,0.0,0.0,0.0,0.0,0.0,0.0,0.0,0.0,0.0,0.0,0.0,0.0,0.0,-4.7717,-4.7717,-4.7717,-4.7717,-4.7717,-4.7717,-4.7717,-4.7717,-4.7717,-4.7717,-4.7717,-4.7717,-4.7717,-4.7717,-4.7717,-4.7717,-4.7717,-4.7717,-4.7717,-4.7717,-4.7717,-4.7717,-4.7717,-4.7717,-4.7717,-4.7717,-4.7717,-4.7717,-4.7717,-4.7717,-4.7717,-4.7717,-4.7717,-4.7717,-4.7717,-4.7717,-4.7717,-4.7717,-4.7717,-4.7717,-4.7717,-4.7717,-4.7717,-4.7717,-4.7717,-4.7717,-4.7717,-4.7717,-4.7717,-4.7717,-4.7717,-4.7717,-4.7717,-4.7717,-4.7717,-4.7804,-4.813,-4.8477,-4.8817,-4.9139,-4.9302,-4.9506,-4.9769,-4.9852,-4.9912,-4.9912,-4.9838,-4.9824,-4.9879,-4.9838,-4.9824,-4.9912,-4.9912,-4.9912,-4.9912,-4.9912,-4.9912,-4.9912,-4.9912,-4.9912,-4.9912,-4.9912,-4.9912,-4.9912,-4.9912,-4.9912,0.0,0.0,0.0,0.0,-4.3857,0.0,0.0,0.0,0.0,0.0,0.0,0.0,0.0,0.0,0.0,0.0,0.0,0.0,0.0,0.0,0.0,0.0,0.0,0.0,0.0,0.0,0.0,-4.7717,-4.7717,-4.7717,-4.7717,-4.7717,-4.7717,-4.7717,-4.7717,-4.7717,-4.7717,-4.7717,-4.7717,-4.7717,-4.7717,-4.7717,-4.7717,-4.7717,-4.7717,-4.7717,-4.7717,-4.7717,-4.7717,-4.7717,-4.7717,-4.7717,-4.7717,-4.7717,-4.7717,-4.7717,-4.7717,-4.7717,-4.7717,-4.7717,-4.7717,-4.7717,-4.7717,-4.7717,-4.7717,-4.7717,-4.7717,-4.7717,-4.7717,-4.7717,-4.7717,-4.7717,-4.7717,-4.7717,-4.7717,-4.7717,-4.7717,-4.7717,-4.7717,-4.7717,-4.7717,-4.7699,-4.7762,-4.8092,-4.8364,-4.842,-4.8973,-4.9396,-4.9442,-4.9726,-4.9912,-4.9912,-4.964,-4.9581,-4.9866,-4.964,-4.9577,-4.9866,-4.9912,-4.9912,-4.9912,-4.9912,-4.9912,-4.9912,-4.9912,-4.9912,-4.9912,-4.9912,-4.9912,-4.9912,-4.9912,-4.9912,0.0,0.0,0.0,0.0,0.0,0.0,0.0,0.0,-4.395,0.0,0.0,0.0,0.0,0.0,0.0,0.0,0.0,0.0,0.0,0.0,0.0,0.0,0.0,0.0,0.0,0.0,0.0,0.0,0.0,-4.7717,-4.7717,-4.7717,-4.7717,-4.7717,-4.7717,-4.7717,-4.7717,-4.7717,-4.7717,-4.7717,-4.7717,-4.7717,-4.7717,-4.7717,-4.7717,-4.7717,-4.7717,-4.7717,-4.7717,-4.7717,-4.7717,-4.7717,-4.7717,-4.7717,-4.7717,-4.7717,-4.7717,-4.7717,-4.7717,-4.7717,-4.7717,-4.7717,-4.7717,-4.7717,-4.7717,-4.7717,-4.7717,-4.7717,-4.7717,-4.7717,-4.7717,-4.7717,-4.7717,-4.7717,-4.7717,-4.7717,-4.7717,-4.7717,-4.7717,-4.7717,-4.7717,-4.7717,-4.7717,-4.7845,-4.803,-4.8267,-4.8569,-4.8923,-4.9334,-4.9518,-4.9611,-4.9611,-4.9472,-4.9365,-4.9262,-4.9365,-4.9461,-4.9611,-4.9783,-4.9912,-4.9912,-4.9912,-4.9912,-4.9912,-4.9912,-4.9912,-4.9912,-4.9912,-4.9912,-4.9912,-4.9912,-4.9912,-4.6998,0.0,0.0,0.0,0.0,0.0,0.0,0.0,0.0,0.0,0.0,0.0,0.0,0.0,0.0,0.0,0.0,0.0,0.0,0.0,0.0,0.0,0.0,0.0,0.0,0.0,0.0,0.0,0.0,0.0,-4.7717,-4.7717,-4.7717,-4.7717,-4.7717,-4.7717,-4.7717,-4.7717,-4.7717,-4.7717,-4.7717,-4.7717,-4.7717,-4.7717,-4.7717,-4.7717,-4.7717,-4.7717,-4.7717,-4.7717,-4.7717,-4.7717,-4.7717,-4.7717,-4.7717,-4.7717,-4.7717,-4.7717,-4.7717,-4.7717,-4.7717,-4.7717,-4.7717,-4.7717,-4.7717,-4.7717,-4.7717,-4.7717,-4.7717,-4.7717,-4.7717,-4.7717,-4.7717,-4.7717,-4.7717,-4.7717,-4.7717,-4.7717,-4.7717,-4.7717,-4.7717,-4.7717,-4.7717,-4.7717,-4.7804,-4.8072,-4.8229,-4.8495,-4.9023,-4.9171,-4.9286,-4.9399,-4.9222,-4.9057,-4.8971,-4.9057,-4.919,-4.9399,-4.9712,-4.9912,-4.9912,-4.9912,-4.9912,-4.9912,-4.9912,-4.9912,-4.9912,-4.9912,-4.9912,-4.9912,-4.9912,-4.9912,0.0,0.0,0.0,-4.6321,0.0,0.0,0.0,0.0,-4.5053,0.0,0.0,0.0,0.0,0.0,0.0,-4.1593,0.0,0.0,0.0,0.0,0.0,0.0,0.0,0.0,0.0,0.0,0.0,0.0,0.0,0.0,-4.7717,-4.7717,-4.7717,-4.7717,-4.7717,-4.7717,-4.7717,-4.7717,-4.7717,-4.7717,-4.7717,-4.7717,-4.7717,-4.7717,-4.7717,-4.7717,-4.7717,-4.7717,-4.7717,-4.7717,-4.7717,-4.7717,-4.7717,-4.7717,-4.7717,-4.7717,-4.7717,-4.7717,-4.7717,-4.7717,-4.7717,-4.7717,-4.7717,-4.7717,-4.7717,-4.7717,-4.7717,-4.7717,-4.7717,-4.7717,-4.7717,-4.7717,-4.7717,-4.7717,-4.7717,-4.7717,-4.7717,-4.7717,-4.7717,-4.7717,-4.7717,-4.7717,-4.7717,-4.7717,-4.7699,-4.7717,-4.805,-4.8306,-4.8344,-4.8623,-4.8971,-4.9349,-4.8748,-4.8623,-4.9318,-4.873,-4.8641,-4.9349,-4.9712,-4.9912,-4.9912,-4.9912,-4.9912,-4.9912,-4.9912,-4.9912,-4.9912,-4.9912,-4.9912,-4.9912,-4.9912,-4.9912,0.0,0.0,-4.6975,-4.6754,0.0,0.0,0.0,0.0,0.0,0.0,0.0,0.0,0.0,0.0,0.0,-4.2426,0.0,0.0,0.0,0.0,0.0,0.0,0.0,0.0,0.0,0.0,0.0,0.0,0.0,0.0,0.0,-4.7717,-4.7717,-4.7717,-4.7717,-4.7717,-4.7717,-4.7717,-4.7717,-4.7717,-4.7717,-4.7717,-4.7717,-4.7717,-4.7717,-4.7717,-4.7717,-4.7717,-4.7717,-4.7717,-4.7717,-4.7717,-4.7717,-4.7717,-4.7717,-4.7717,-4.7717,-4.7717,-4.7717,-4.7717,-4.7717,-4.7717,-4.7717,-4.7717,-4.7717,-4.7717,-4.7717,-4.7717,-4.7717,-4.7717,-4.7717,-4.7717,-4.7717,-4.7717,-4.7717,-4.7717,-4.7717,-4.7717,-4.7717,-4.7717,-4.7717,-4.7717,-4.7717,-4.7717,-4.7717,-4.7717,-4.7824,-4.801,-4.8267,-4.8402,-4.8605,-4.8971,-4.8782,-4.8641,-4.8659,-4.8439,-4.8605,-4.9349,-4.9249,-4.9389,-4.9879,-5.0208,-5.0495,-5.077,-5.1282,-5.1547,-5.1547,-5.1547,-5.1547,-5.1547,-5.1547,-5.0959,-4.6998,-4.6998,0.0,-4.6754,-4.6471,0.0,-4.5451,0.0,0.0,0.0,0.0,0.0,0.0,0.0,0.0,-4.3262,-4.1869,0.0,0.0,-3.9756,0.0,0.0,0.0,0.0,0.0,0.0,0.0,0.0,0.0,0.0,0.0,0.0,-4.7717,-4.7717,-4.7717,-4.7717,-4.7717,-4.7717,-4.7717,-4.7717,-4.7717,-4.7717,-4.7717,-4.7717,-4.7717,-4.7717,-4.7717,-4.7717,-4.7717,-4.7717,-4.7717,-4.7717,-4.7717,-4.7717,-4.7717,-4.7717,-4.7717,-4.7717,-4.7717,-4.7717,-4.7717,-4.7717,-4.7717,-4.7717,-4.7717,-4.7717,-4.7717,-4.7717,-4.7717,-4.7717,-4.7717,-4.7717,-4.7717,-4.7717,-4.7717,-4.7717,-4.7717,-4.7717,-4.7717,-4.7717,-4.7717,-4.7717,-4.7717,-4.7717,-4.7717,-4.7717,-4.7717,-4.7804,-4.805,-4.809,-4.821,-4.8586,-4.8623,-4.8513,-4.8325,-4.842,-4.8734,-4.9364,-4.9295,-4.9629,-5.0547,-5.0876,-5.1224,-5.1628,-5.2153,-5.2385,-5.2385,-5.2385,-5.2385,-5.2385,-5.2385,-5.1831]},{"header":{"parameterUnit":"m.s-1","parameterCategory":1,"la1":30.6,"la2":29.2853,"lo1":-89.7004,"lo2":-87.6739,"dy":0.0162,"dx":0.0183,"nx":112,"ny":82,"refTime":"2024-04-09T18:00:00:Z","depth":0,"parameterNumber":3,"parameterNumberName":"V-component_of_WINDS"},"data":[0.0,0.0,0.0,0.0,0.0,0.0,0.0,0.0,0.0,0.0,0.0,0.0,0.0,0.0,0.0,0.0,0.0,0.0,0.0,0.0,0.0,0.0,0.0,0.0,0.0,0.0,0.0,0.0,0.0,0.0,0.0,0.0,0.0,0.0,0.0,0.0,0.0,0.0,0.0,0.0,0.0,0.0,0.0,0.0,0.0,0.0,0.0,0.0,0.0,0.0,0.0,0.0,0.0,0.0,0.0,0.0,0.0,0.0,0.0,0.0,0.0,0.0,0.0,0.0,0.0,0.0,0.0,0.0,0.0,0.0,0.0,0.0,0.0,0.0,0.0,0.0,0.0,0.0,0.0,0.0,0.0,0.0,0.0,0.0,0.0,0.0,0.0,0.0,0.0,0.0,0.0,0.3792,0.4061,0.4233,0.43,0.43,0.4367,0.4528,0.0,0.0,0.0,0.0,0.0,0.0,0.0,0.0,0.0,0.0,0.0,0.0,0.0,0.0,0.0,0.0,0.0,0.0,0.0,0.0,0.0,0.0,0.0,0.0,0.0,0.0,0.0,0.0,0.0,0.0,0.0,0.0,0.0,0.0,0.0,0.0,0.0,0.0,0.0,0.0,0.0,0.0,0.0,0.0,0.0,0.0,0.0,0.0,0.0,0.0,0.0,0.0,0.0,0.0,0.0,0.0,0.0,0.0,0.0,0.0,0.0,0.0,0.0,0.0,0.0,0.0,0.0,0.0,0.0,0.0,0.0,0.0,0.0,0.0,0.0,0.0,0.0,0.0,0.0,0.0,0.0,0.0,0.0,0.0,0.0,0.0,0.0,0.0,0.0,0.0,0.0,0.0,0.0,0.0,0.0,0.0,0.0,0.0,0.0,0.0,0.0,0.0,0.0,0.0,0.3426,0.3758,0.3859,0.3995,0.4267,0.43,0.43,0.4334,0.0,0.0,0.0,0.0,0.0,0.0,0.0,0.0,0.0,0.0,0.0,0.0,0.0,0.0,0.0,0.0,0.0,0.0,0.0,0.0,0.0,0.0,0.0,0.0,0.0,0.0,0.0,0.0,0.0,0.0,0.0,0.0,0.0,0.0,0.0,0.0,0.0,0.0,0.0,0.0,0.0,0.0,0.0,0.0,0.0,0.0,0.0,0.0,0.0,0.0,0.0,0.0,0.0,0.0,0.0,0.0,0.0,0.0,0.0,0.0,0.0,0.0,0.0,0.0,0.0,0.0,0.0,0.0,0.0,0.0,0.0,0.0,0.0,0.0,0.0,0.0,0.0,0.0,0.0,0.0,0.0,0.0,0.0,0.0,0.0,0.0,0.0,0.0,0.0,0.0,0.0,0.0,0.0,0.0,0.0,0.0,0.0,0.0,0.0,0.0,0.0,0.0,0.0,0.2922,0.3056,0.3426,0.3458,0.3627,0.3995,0.4028,0.4097,0.43,0.4597,0.0,0.0,0.0,0.0,0.0,0.0,0.0,0.0,0.0,0.0,0.0,0.0,0.0,0.0,0.0,0.0,0.0,0.0,0.0,0.0,0.0,0.0,0.0,0.0,0.0,0.0,0.0,0.0,0.0,0.0,0.0,0.0,0.0,0.0,0.0,0.0,0.0,0.0,0.0,0.0,0.0,0.0,0.0,0.0,0.0,0.0,0.0,0.0,0.0,0.0,0.0,0.0,0.0,0.0,0.0,0.0,0.0,0.0,0.0,0.0,0.0,0.0,0.0,0.0,0.0,0.0,0.0,0.0,0.0,0.0,0.0,0.0,0.0,0.0,0.0,0.0,0.0,0.0,0.0,0.0,0.0,0.0,0.0,0.0,0.0,0.0,0.0,0.0,0.0,0.0,0.0,0.0,0.0,0.0,0.0,0.0,0.0,0.0,0.0,0.0,0.0,0.0,0.2638,0.2773,0.3107,0.3161,0.3354,0.3836,0.3846,0.4005,0.4384,0.4753,0.0,0.0,0.0,0.0,0.0,0.0,0.0,0.0,0.0,0.0,0.0,0.0,0.0,0.0,0.0,0.0,0.0,0.0,0.0,0.0,0.0,0.0,0.0,0.0,0.0,0.0,0.0,0.0,0.0,0.0,0.0,0.0,0.0,0.0,0.0,0.0,0.0,0.0,0.0,0.0,0.0,0.0,0.0,0.0,0.0,0.0,0.0,0.0,0.0,0.0,0.0,0.0,0.0,0.0,0.0,0.0,0.0,0.0,0.0,0.0,0.0,0.0,0.0,0.0,0.0,0.0,0.0,0.0,0.0,0.0,0.0,0.0,0.0,0.0,0.0,0.0,0.0,0.0,0.0,0.0,0.0,0.0,0.0,0.0,0.0,0.0,0.0,0.0,0.0,0.0,0.0,0.0,0.0,0.0,0.0,0.0,0.0,0.0,0.0,0.0,0.0,0.0,0.2474,0.2574,0.2984,0.3007,0.3302,0.4014,0.4038,0.4198,0.4629,0.523,0.0,0.0,0.0,0.0,0.0,0.0,0.0,0.0,0.0,0.0,0.0,0.0,0.0,0.0,0.0,0.0,0.0,0.0,0.0,0.0,0.0,0.0,0.0,0.0,0.0,0.0,0.0,0.0,0.0,0.0,0.0,0.0,0.0,0.0,0.0,0.0,0.0,0.0,0.0,0.0,0.0,0.0,0.0,0.0,0.0,0.0,0.0,0.0,0.0,0.0,0.0,0.0,0.0,0.0,0.0,0.0,0.0,0.0,0.0,0.0,0.0,0.0,0.0,0.0,0.0,0.0,0.0,0.0,0.0,0.0,0.0,0.0,0.0,0.0,0.0,0.0,0.0,0.0,0.0,0.0,0.0,0.0,0.0,0.0,0.0,0.0,0.0,0.0,0.0,0.0,0.0,0.0,0.0,0.0,0.0,0.0,0.0,0.0,0.0,0.0,0.0,0.0,0.2491,0.2524,0.0,0.2685,0.2902,0.3368,0.363,0.3935,0.4412,0.0,0.0,0.0,0.0,0.0,0.0,0.0,0.0,0.0,0.0,0.0,0.0,0.0,0.0,0.0,0.0,0.0,0.0,0.0,0.0,0.0,0.0,0.0,0.0,0.0,0.0,0.0,0.0,0.0,0.0,0.0,0.0,0.0,0.0,0.0,0.0,0.0,0.0,0.0,0.0,0.0,0.0,0.0,0.0,0.0,0.0,0.0,0.0,0.0,0.0,0.0,0.0,0.0,0.0,0.0,0.0,0.0,0.0,0.0,0.0,0.0,0.0,0.0,0.0,0.0,0.0,0.0,0.0,0.0,0.0,0.0,0.0,0.0,0.0,0.0,0.0,0.0,0.0,0.0,0.0,0.0,0.0,0.0,0.0,0.0,0.0,0.0,0.0,0.0,0.0,0.0,0.0,0.0,0.0,0.0,0.0,0.0,0.0,0.0,0.0,0.0,0.0,0.2619,0.2609,0.2604,0.0,0.2608,0.2799,0.3325,0.3568,0.3975,0.4599,0.0,0.0,0.0,0.0,0.0,0.0,0.0,0.0,0.0,0.0,0.0,0.0,0.0,0.0,0.0,0.0,0.0,0.0,0.0,0.0,0.0,0.0,0.0,0.0,0.0,0.0,0.0,0.0,0.0,0.0,0.0,0.0,0.0,0.0,0.0,0.0,0.0,0.0,0.0,0.0,0.0,0.0,0.0,0.0,0.0,0.0,0.0,0.0,0.0,0.0,0.0,0.0,0.0,0.0,0.0,0.0,0.0,0.0,0.0,0.0,0.0,0.0,0.0,0.0,0.0,0.0,0.0,0.0,0.0,0.0,0.0,0.0,0.0,0.0,0.0,0.0,0.0,0.0,0.0,0.0,0.0,0.0,0.0,0.0,0.0,0.0,0.0,0.0,0.0,0.0,0.0,0.0,0.0,0.0,0.0,0.0,0.0,0.0,0.0,0.0,0.0,0.0,0.2896,0.2822,0.2807,0.2913,0.282,0.3129,0.4033,0.4037,0.4404,0.0,0.0,0.0,0.0,0.0,0.0,0.0,0.0,0.0,0.0,0.0,0.0,0.0,0.0,0.0,0.0,0.0,0.0,0.0,0.0,0.0,0.0,0.0,0.0,0.0,0.0,0.0,0.0,0.0,0.0,0.0,0.0,0.0,0.0,0.0,0.0,0.0,0.0,0.0,0.0,0.0,0.0,0.0,0.0,0.0,0.0,0.0,0.0,0.0,0.0,0.0,0.0,0.0,0.0,0.0,0.0,0.0,0.0,0.0,0.0,0.0,0.0,0.0,0.0,0.0,0.0,0.0,0.0,0.0,0.0,0.0,0.0,0.0,0.0,0.0,0.0,0.0,0.0,0.0,0.0,0.0,0.0,0.0,0.0,0.0,0.0,0.0,0.0,0.0,0.0,0.0,0.0,0.0,0.0,0.0,0.0,0.0,0.0,0.0,0.0,0.0,0.0,0.0,0.2911,0.2903,0.2899,0.2917,0.2903,0.2979,0.3244,0.3439,0.3892,0.4566,0.0,0.0,0.0,0.0,0.0,0.0,0.0,0.0,0.0,0.0,0.0,0.0,0.0,0.0,0.0,0.0,0.0,0.0,0.0,0.0,0.0,0.0,0.0,0.0,0.0,0.0,0.0,0.0,0.0,0.0,0.0,0.0,0.0,0.0,0.0,0.0,0.0,0.0,0.0,0.0,0.0,0.0,0.0,0.0,0.0,0.0,0.0,0.0,0.0,0.0,0.0,0.0,0.0,0.0,0.0,0.0,0.0,0.0,0.0,0.0,0.0,0.0,0.0,0.0,0.0,0.0,0.0,0.0,0.0,0.0,0.0,0.0,0.0,0.0,0.0,0.0,0.0,0.0,0.0,0.0,0.0,0.0,0.0,0.0,0.0,0.0,0.0,0.0,0.0,0.0,0.0,0.0,0.0,0.0,0.0,0.0,0.0,0.0,0.0,0.0,0.0,0.0,0.292,0.292,0.292,0.292,0.292,0.2963,0.3142,0.3369,0.3714,0.4251,0.0,0.0,0.0,0.0,0.0,0.0,0.0,0.0,0.0,0.0,0.0,0.0,0.0,0.0,0.0,0.0,0.0,0.0,0.0,0.0,0.0,0.0,0.0,0.0,0.0,0.0,0.0,0.0,0.0,0.0,0.0,0.0,0.0,0.0,0.0,0.0,0.0,0.0,0.0,0.0,0.0,0.0,0.0,0.0,0.0,0.0,0.0,0.0,0.0,0.0,0.0,0.0,0.0,0.0,0.0,0.0,0.0,0.0,0.0,0.0,0.0,0.0,0.0,0.0,0.0,0.0,0.0,0.0,0.0,0.0,0.0,0.0,0.0,0.0,0.0,0.0,0.0,0.0,0.0,0.0,0.0,0.0,0.0,0.0,0.0,0.0,0.0,0.0,0.0,0.0,0.0,0.0,0.0,0.0,0.0,0.0,0.0,0.0,0.0,0.0,0.0,0.0,0.292,0.292,0.292,0.292,0.292,0.3053,0.3497,0.3542,0.3721,0.421,0.0,0.0,0.0,0.0,0.0,0.0,0.0,0.0,0.0,0.0,0.0,0.0,0.0,0.0,0.0,0.0,0.0,0.0,0.0,0.0,0.0,0.0,0.0,0.0,0.0,0.0,0.0,0.0,0.0,0.0,0.0,0.0,0.0,0.0,0.0,0.0,0.0,0.0,0.0,0.0,0.0,0.0,0.0,0.0,0.0,0.0,0.0,0.0,0.0,0.0,0.0,0.0,0.0,0.0,0.0,0.0,0.0,0.0,0.0,0.0,0.2527,0.0,0.0,0.0,0.0,0.0,0.0,0.0,0.0,0.0,0.0,0.0,0.0,0.0,0.0,0.0,0.0,0.0,0.0,0.0,0.0,0.0,0.0,0.0,0.0,0.0,0.0,0.0,0.0,0.0,0.0,0.0,0.0,0.0,0.0,0.0,0.0,0.0,0.0,0.0,0.0,0.0,0.292,0.292,0.292,0.292,0.292,0.2963,0.3053,0.3053,0.323,0.3721,0.0,0.0,0.0,0.0,0.0,0.0,0.0,0.0,0.0,0.0,0.0,0.0,0.0,0.0,0.0,0.0,0.0,0.0,0.0,0.0,0.0,0.0,0.0,0.0,0.0,0.0,0.0,0.0,0.0,0.0,0.0,0.0,0.0,0.0,0.0,0.0,0.0,0.0,0.0,0.0,0.0,0.0,0.0,0.0,0.0,0.0,0.0,0.0,0.0,0.0,0.0,0.0,0.0,0.0,0.0,0.0,0.0,0.0,0.0,0.0,0.0,0.2747,0.0,0.0,0.0,0.0,0.0,0.0,0.0,0.0,0.0,0.0,0.0,0.0,0.0,0.0,0.0,0.0,0.0,0.0,0.0,0.0,0.0,0.0,0.0,0.0,0.0,0.0,0.0,0.0,0.0,0.0,0.0,0.0,0.0,0.0,0.0,0.0,0.0,0.0,0.0,0.0,0.2739,0.2829,0.292,0.292,0.292,0.292,0.292,0.292,0.3008,0.323,0.3454,0.0,0.0,0.0,0.0,0.0,0.0,0.0,0.0,0.0,0.0,0.0,0.0,0.0,0.0,0.0,0.0,0.0,0.0,0.0,0.0,0.0,0.0,0.0,0.0,0.0,0.0,0.0,0.0,0.0,0.0,0.0,0.0,0.0,0.0,0.0,0.0,0.0,0.0,0.0,0.0,0.0,0.0,0.0,0.0,0.0,0.0,0.0,0.0,0.0,0.0,0.0,0.0,0.0,0.0,0.2353,0.253,0.253,0.2535,0.2543,0.2716,0.2976,0.323,0.0,0.0,0.0,0.0,0.0,0.0,0.0,0.0,0.0,0.0,0.0,0.0,0.0,0.0,0.0,0.0,0.0,0.0,0.0,0.0,0.0,0.0,0.0,0.0,0.0,0.2882,0.2904,0.0,0.0,0.0,0.0,0.0,0.0,0.0,0.0,0.0,0.0,0.0,0.0,0.2604,0.2739,0.2829,0.2875,0.292,0.292,0.292,0.292,0.292,0.292,0.3275,0.3499,0.0,0.0,0.0,0.0,0.0,0.0,0.0,0.0,0.0,0.0,0.0,0.0,0.0,0.0,0.0,0.0,0.0,0.0,0.0,0.0,0.0,0.0,0.0,0.0,0.0,0.0,0.0,0.0,0.0,0.0,0.0,0.0,0.5607,0.5482,0.0,0.0,0.0,0.0,0.0,0.0,0.0,0.0,0.0,0.0,0.0,0.0,0.0,0.0,0.2608,0.2657,0.2662,0.2662,0.2628,0.2631,0.2673,0.2673,0.2702,0.2751,0.2786,0.0,0.2938,0.2938,0.0,0.0,0.0,0.0,0.0,0.0,0.0,0.0,0.0,0.0,0.0,0.0,0.0,0.0,0.0,0.0,0.0,0.0,0.0,0.0,0.0,0.0,0.2907,0.2907,0.2913,0.2917,0.0,0.2913,0.292,0.292,0.0,0.0,0.0,0.0,0.0,0.0,0.0,0.0,0.2829,0.2694,0.2649,0.2873,0.292,0.292,0.292,0.292,0.292,0.292,0.2963,0.3008,0.3008,0.3008,0.0,0.0,0.0,0.0,0.0,0.0,0.0,0.0,0.0,0.0,0.0,0.0,0.0,0.0,0.0,0.0,0.0,0.0,0.0,0.0,0.0,0.0,0.0,0.0,0.0,0.0,0.0,0.0,0.0,0.4856,0.3924,0.3874,0.3501,0.3239,0.0,0.0,0.0,0.0,0.0,0.0,0.0,0.0,0.0,0.2185,0.2393,0.2449,0.2355,0.247,0.2571,0.2571,0.2473,0.2488,0.2575,0.2575,0.2589,0.2657,0.279,0.2895,0.292,0.292,0.292,0.292,0.0,0.0,0.0,0.0,0.0,0.323,0.3454,0.0,0.0,0.0,0.0,0.0,0.0,0.0,0.0,0.0,0.0,0.0,0.0,0.0,0.0,0.292,0.292,0.292,0.292,0.292,0.292,0.0,0.292,0.292,0.292,0.0,0.0,0.0,0.0,0.0,0.2694,0.2694,0.2784,0.2875,0.292,0.292,0.292,0.292,0.292,0.292,0.292,0.292,0.292,0.292,0.3452,0.0,0.0,0.0,0.0,0.0,0.0,0.0,0.0,0.0,0.0,0.0,0.0,0.0,0.0,0.0,0.0,0.0,0.0,0.0,0.0,0.0,0.0,0.0,0.0,0.0,0.0,0.0,0.0,0.363,0.2628,0.2583,0.2578,0.2567,0.0,0.0,0.0,0.0,0.0,0.0,0.2237,0.2237,0.222,0.2148,0.2399,0.2467,0.2309,0.2435,0.2543,0.2586,0.2436,0.2456,0.2603,0.259,0.2597,0.2623,0.285,0.295,0.2962,0.2932,0.291,0.2897,0.2913,0.2908,0.2897,0.2913,0.292,0.292,0.292,0.292,0.292,0.292,0.0,0.292,0.292,0.0,0.0,0.0,0.0,0.292,0.292,0.0,0.2873,0.2829,0.2784,0.2784,0.2784,0.2784,0.2829,0.0,0.292,0.292,0.292,0.0,0.0,0.0,0.0,0.2739,0.2604,0.2739,0.2829,0.2875,0.292,0.292,0.292,0.292,0.292,0.292,0.292,0.292,0.292,0.292,0.332,0.4162,0.0,0.0,0.0,0.0,0.0,0.0,0.0,0.0,0.0,0.0,0.0,0.0,0.0,0.0,0.0,0.0,0.0,0.0,0.0,0.0,0.0,0.0,0.0,0.0,0.0,0.0,0.0,0.0,0.0,0.2515,0.2515,0.0,0.0,0.0,0.0,0.2679,0.2683,0.2599,0.2388,0.2388,0.2414,0.2468,0.2513,0.2628,0.2864,0.2868,0.2869,0.2869,0.2813,0.2818,0.2872,0.2813,0.2847,0.2954,0.3,0.3033,0.3079,0.2965,0.2884,0.2793,0.2896,0.2882,0.2796,0.2897,0.292,0.292,0.292,0.292,0.292,0.292,0.292,0.292,0.292,0.292,0.0,0.0,0.292,0.292,0.292,0.292,0.2829,0.2558,0.2513,0.2513,0.2513,0.2513,0.2604,0.0,0.292,0.292,0.292,0.0,0.2875,0.2873,0.2694,0.2604,0.2829,0.2649,0.2604,0.2873,0.292,0.292,0.292,0.292,0.292,0.292,0.292,0.292,0.292,0.292,0.292,0.2963,0.3454,0.0,0.0,0.0,0.0,0.0,0.0,0.0,0.0,0.0,0.0,0.0,0.0,0.0,0.0,0.0,0.0,0.0,0.0,0.0,0.0,0.0,0.0,0.0,0.0,0.0,0.0,0.0,0.0,0.257,0.2604,0.0,0.0,0.2315,0.2257,0.2232,0.2001,0.1875,0.1934,0.1933,0.1983,0.2042,0.2173,0.2328,0.2469,0.2457,0.2428,0.2428,0.2442,0.2412,0.2428,0.2411,0.2422,0.2499,0.2466,0.2509,0.252,0.2453,0.2678,0.3003,0.3025,0.2996,0.2944,0.2965,0.295,0.292,0.292,0.292,0.292,0.292,0.292,0.292,0.292,0.292,0.292,0.292,0.292,0.292,0.292,0.292,0.2873,0.2784,0.2739,0.2739,0.2739,0.2604,0.2513,0.2604,0.2784,0.292,0.292,0.292,0.292,0.292,0.2829,0.2797,0.2969,0.2882,0.2897,0.3029,0.3033,0.3033,0.3033,0.2997,0.2974,0.2974,0.2939,0.292,0.292,0.292,0.292,0.292,0.3365,0.3721,0.0,0.0,0.0,0.0,0.0,0.0,0.0,0.0,0.0,0.0,0.0,0.0,0.0,0.0,0.0,0.0,0.0,0.0,0.0,0.0,0.0,0.0,0.0,0.0,0.0,0.0,0.264,0.2659,0.2699,0.2653,0.2431,0.2319,0.2203,0.2087,0.1832,0.1739,0.1846,0.1858,0.1916,0.1974,0.2138,0.2221,0.2314,0.2312,0.2287,0.2287,0.2301,0.2267,0.2281,0.2266,0.2267,0.228,0.2299,0.2384,0.2478,0.2447,0.275,0.3132,0.3004,0.2948,0.3007,0.3027,0.3011,0.2979,0.2979,0.2965,0.2947,0.2947,0.2935,0.292,0.292,0.292,0.292,0.292,0.292,0.292,0.292,0.292,0.2873,0.2784,0.2784,0.2784,0.2784,0.2663,0.254,0.263,0.2661,0.2649,0.2649,0.2664,0.2677,0.2769,0.2739,0.2717,0.2844,0.2803,0.2724,0.2807,0.2859,0.2953,0.2953,0.3012,0.3036,0.3036,0.298,0.2947,0.2947,0.2929,0.2928,0.2947,0.3217,0.3387,0.3365,0.0,0.0,0.0,0.0,0.0,0.0,0.0,0.0,0.0,0.0,0.0,0.0,0.0,0.0,0.0,0.0,0.0,0.0,0.0,0.0,0.0,0.0,0.0,0.4002,0.3201,0.2722,0.2782,0.2789,0.2745,0.263,0.2547,0.2402,0.2221,0.2186,0.2207,0.2162,0.2206,0.2203,0.2294,0.2328,0.2392,0.2487,0.248,0.2449,0.2448,0.2407,0.241,0.2449,0.2407,0.2411,0.2504,0.2502,0.2662,0.2982,0.2981,0.3109,0.3247,0.2778,0.2783,0.3014,0.3075,0.3095,0.3094,0.3095,0.3058,0.3007,0.3007,0.2969,0.2925,0.2925,0.2925,0.2925,0.2925,0.2925,0.2925,0.2925,0.2925,0.2834,0.2564,0.2518,0.2518,0.2518,0.2559,0.2687,0.2962,0.2552,0.2203,0.2203,0.2195,0.2317,0.2549,0.2356,0.0,0.2574,0.2386,0.2197,0.2246,0.2435,0.2623,0.2623,0.2909,0.3099,0.3099,0.3041,0.3007,0.3007,0.2953,0.2947,0.3001,0.3001,0.2975,0.292,0.0,0.0,0.0,0.0,0.0,0.0,0.0,0.0,0.0,0.0,0.0,0.0,0.0,0.0,0.0,0.0,0.0,0.0,0.0,0.0,0.0,0.0,0.5044,0.3395,0.3037,0.2936,0.2953,0.2956,0.2833,0.2636,0.258,0.2407,0.2031,0.2031,0.1959,0.1763,0.1796,0.1807,0.1792,0.1809,0.1823,0.1832,0.1917,0.1936,0.1936,0.1897,0.1909,0.1917,0.1908,0.2015,0.2289,0.2207,0.2404,0.2715,0.2679,0.2832,0.3108,0.3096,0.3093,0.3073,0.309,0.3068,0.3036,0.3081,0.3086,0.307,0.307,0.3061,0.3048,0.3048,0.3048,0.3048,0.3048,0.3048,0.3048,0.3048,0.3048,0.3047,0.2953,0.2953,0.2953,0.2953,0.2777,0.2693,0.2787,0.2494,0.2299,0.2484,0.2495,0.2458,0.2319,0.2235,0.0,0.2623,0.2433,0.2447,0.288,0.2833,0.2833,0.3031,0.3091,0.3115,0.0,0.3105,0.307,0.307,0.3012,0.2969,0.2943,0.2943,0.3069,0.0,0.0,0.0,0.0,0.0,0.0,0.0,0.0,0.0,0.0,0.0,0.0,0.0,0.0,0.0,0.0,0.0,0.0,0.0,0.0,0.0,0.0,0.6409,0.5222,0.3765,0.3206,0.2978,0.3001,0.3027,0.296,0.2655,0.2678,0.2558,0.2197,0.2095,0.1969,0.1817,0.1748,0.1706,0.1637,0.1763,0.1829,0.1829,0.1915,0.1932,0.1933,0.1789,0.1742,0.1742,0.1742,0.1851,0.0,0.1993,0.2145,0.2466,0.2546,0.2752,0.0,0.0,0.0,0.0,0.0,0.3124,0.3074,0.3083,0.3101,0.3058,0.3058,0.3058,0.3058,0.2918,0.2887,0.2905,0.2905,0.2905,0.2905,0.3049,0.3097,0.3097,0.3097,0.3097,0.3097,0.3097,0.2972,0.2845,0.2845,0.0,0.0,0.2685,0.257,0.2508,0.2462,0.2333,0.2403,0.2726,0.253,0.2491,0.2822,0.2826,0.2876,0.3027,0.3098,0.0,0.0,0.0,0.3123,0.3098,0.3062,0.0,0.0,0.0,0.3077,0.332,0.0,0.0,0.0,0.5317,0.598,0.0,0.0,0.0,0.0,0.0,0.0,0.0,0.0,0.0,0.0,0.0,0.0,0.0,0.0,0.0,0.0,0.6679,0.5634,0.4767,0.3735,0.3051,0.3018,0.3073,0.2987,0.2799,0.2848,0.2828,0.258,0.2332,0.2184,0.2138,0.0,0.0,0.0,0.0,0.2194,0.2139,0.2171,0.2132,0.2132,0.1908,0.1795,0.1795,0.1795,0.1795,0.1851,0.1851,0.202,0.23,0.2581,0.2837,0.3062,0.3055,0.3196,0.3395,0.3342,0.3288,0.0,0.0,0.0,0.0,0.3045,0.3036,0.2978,0.275,0.2636,0.2666,0.2666,0.2666,0.2715,0.3002,0.3097,0.3097,0.3097,0.3097,0.3098,0.3106,0.3101,0.3093,0.3099,0.3144,0.313,0.2876,0.2637,0.2509,0.2706,0.2545,0.2472,0.2775,0.2573,0.2422,0.2472,0.0,0.0,0.2826,0.3079,0.318,0.318,0.313,0.3123,0.3109,0.3108,0.3079,0.3015,0.3008,0.2979,0.2929,0.2922,0.3097,0.3544,0.4431,0.4877,0.0,0.0,0.0,0.0,0.0,0.0,0.0,0.0,0.0,0.0,0.0,0.0,0.0,0.0,0.0,0.8387,0.7515,0.6556,0.5677,0.4762,0.3933,0.3145,0.3115,0.3097,0.3106,0.3123,0.3047,0.2835,0.2825,0.2706,0.253,0.252,0.0,0.2102,0.217,0.2121,0.1898,0.1904,0.1851,0.1851,0.0,0.0,0.1795,0.1795,0.1908,0.2132,0.2132,0.23,0.2581,0.2693,0.2744,0.2836,0.3123,0.3276,0.3338,0.3326,0.3313,0.3309,0.3346,0.3312,0.3251,0.3251,0.3184,0.3057,0.3008,0.2983,0.0,0.3002,0.3002,0.3002,0.3097,0.3097,0.3097,0.3097,0.3097,0.3111,0.3112,0.3082,0.3105,0.3153,0.3172,0.318,0.313,0.2918,0.266,0.2509,0.2415,0.2472,0.2775,0.2573,0.2573,0.2977,0.2876,0.2876,0.3079,0.318,0.318,0.318,0.3169,0.3136,0.3124,0.3123,0.3094,0.308,0.303,0.2998,0.2987,0.2942,0.2963,0.3053,0.3631,0.4076,0.0,0.0,0.0,0.0,0.0,0.0,0.0,0.0,0.0,0.0,0.0,0.874,0.0,0.0,0.8612,0.8612,0.783,0.7118,0.6799,0.5516,0.4212,0.3233,0.3144,0.3192,0.3221,0.3175,0.3115,0.2983,0.2763,0.2525,0.2381,0.229,0.2188,0.202,0.2132,0.2132,0.202,0.202,0.202,0.202,0.1851,0.1795,0.1795,0.1795,0.1851,0.202,0.202,0.2076,0.2244,0.2413,0.2525,0.2743,0.2946,0.3078,0.3181,0.3209,0.3287,0.3367,0.3367,0.3327,0.3224,0.3224,0.3205,0.3175,0.2994,0.2985,0.2974,0.2916,0.29,0.2941,0.3056,0.3097,0.3049,0.2953,0.3002,0.3057,0.2943,0.2998,0.3104,0.3134,0.314,0.315,0.313,0.3035,0.2896,0.2821,0.2775,0.2826,0.2977,0.2876,0.2927,0.318,0.3079,0.3079,0.318,0.318,0.318,0.318,0.318,0.3167,0.3137,0.3106,0.3077,0.3095,0.3081,0.3051,0.3051,0.299,0.2961,0.2961,0.3156,0.3497,0.0,0.0,0.0,0.0,0.0,0.0,0.0,0.0,0.8823,0.8656,0.8612,0.8612,0.8612,0.8612,0.862,0.8657,0.8125,0.7649,0.7455,0.6071,0.4583,0.3307,0.3286,0.3343,0.3354,0.3238,0.3188,0.3188,0.2672,0.2412,0.2468,0.2131,0.1964,0.1964,0.2132,0.2188,0.2132,0.2132,0.2132,0.2132,0.1907,0.1795,0.1795,0.1795,0.1851,0.1907,0.1964,0.1964,0.1907,0.2132,0.2413,0.2693,0.2637,0.2748,0.3022,0.3093,0.3216,0.3331,0.3337,0.3334,0.3282,0.3282,0.33,0.326,0.2956,0.2915,0.2924,0.2836,0.2803,0.2832,0.3065,0.3087,0.3029,0.2781,0.292,0.3018,0.2791,0.2937,0.3083,0.3094,0.3097,0.3112,0.3113,0.3123,0.3147,0.3169,0.318,0.318,0.318,0.318,0.318,0.318,0.318,0.318,0.318,0.318,0.318,0.318,0.318,0.318,0.318,0.3134,0.3108,0.3108,0.3098,0.3115,0.3115,0.3052,0.3022,0.3021,0.2962,0.3108,1.0056,0.9994,0.9951,0.9689,0.9602,0.9471,0.0,0.0,0.8823,0.8656,0.8612,0.8612,0.8612,0.8612,0.8661,0.8767,0.8854,0.8324,0.6706,0.6433,0.5661,0.3665,0.3424,0.3422,0.3471,0.3538,0.3522,0.3522,0.3192,0.3138,0.3419,0.2917,0.2581,0.2581,0.2356,0.2076,0.1851,0.1851,0.1851,0.1851,0.1795,0.1795,0.1795,0.1795,0.1908,0.2188,0.2469,0.2413,0.2132,0.2188,0.2413,0.2693,0.2356,0.2469,0.2748,0.3021,0.3125,0.3176,0.3449,0.3518,0.3466,0.3466,0.3401,0.3268,0.3262,0.3227,0.3187,0.3123,0.3082,0.3077,0.3113,0.3057,0.3003,0.2906,0.2894,0.2907,0.2958,0.2969,0.303,0.3086,0.3097,0.3098,0.3106,0.3108,0.3146,0.3213,0.318,0.318,0.318,0.318,0.318,0.318,0.318,0.318,0.318,0.318,0.318,0.318,0.318,0.318,0.318,0.3173,0.3169,0.3169,0.3112,0.3081,0.3081,0.3068,0.3086,0.3084,0.3023,0.2968,1.0018,0.9994,0.0,0.0,0.9602,0.9476,0.8999,0.8911,0.8823,0.8656,0.8612,0.8612,0.8612,0.8649,0.8771,0.0,0.8642,0.814,0.7584,0.6469,0.5426,0.4698,0.3967,0.3523,0.3546,0.3405,0.3306,0.3306,0.3027,0.2917,0.3085,0.2862,0.2693,0.2693,0.2581,0.2413,0.23,0.23,0.23,0.23,0.23,0.23,0.23,0.23,0.2413,0.2525,0.2637,0.2637,0.2469,0.2469,0.2581,0.2693,0.2525,0.2581,0.275,0.3026,0.3081,0.3138,0.3475,0.3571,0.3549,0.3549,0.3516,0.347,0.3435,0.3405,0.3371,0.3303,0.3213,0.3232,0.317,0.3109,0.3002,0.2849,0.2856,0.292,0.2729,0.2818,0.2962,0.2987,0.2993,0.3004,0.3037,0.3043,0.3072,0.3112,0.3155,0.3141,0.3176,0.318,0.318,0.318,0.318,0.318,0.318,0.318,0.318,0.318,0.318,0.318,0.318,0.318,0.318,0.318,0.3156,0.3142,0.3142,0.3131,0.3102,0.3101,0.3087,0.3045,0.9994,0.0,0.0,0.9646,0.9602,0.9515,0.9087,0.8955,0.8867,0.8696,0.8656,0.8624,0.8629,0.8779,0.0,0.9206,0.8796,0.8337,0.8026,0.6616,0.5459,0.4973,0.4145,0.3587,0.3587,0.3362,0.325,0.325,0.2971,0.2861,0.2917,0.2806,0.275,0.2805,0.275,0.2693,0.2693,0.2581,0.2581,0.2581,0.2581,0.2581,0.2581,0.2748,0.2748,0.2693,0.2862,0.2917,0.2805,0.2805,0.2861,0.2917,0.2861,0.2805,0.2861,0.3138,0.3194,0.3138,0.3475,0.3587,0.3587,0.3587,0.3587,0.3579,0.3536,0.3522,0.3504,0.3418,0.3383,0.3356,0.3296,0.3185,0.3121,0.285,0.2945,0.2941,0.2684,0.2806,0.2938,0.2922,0.292,0.2932,0.2974,0.298,0.3001,0.3062,0.3061,0.3117,0.3145,0.3169,0.318,0.318,0.318,0.318,0.318,0.318,0.318,0.318,0.318,0.318,0.318,0.318,0.318,0.318,0.318,0.318,0.318,0.3137,0.3116,0.3114,0.3102,0.3122,0.0,0.0,0.9951,0.9646,0.9602,0.9559,0.9349,0.9087,0.8911,0.8911,0.874,0.8617,0.8783,0.8962,0.9202,0.9555,0.9912,0.9362,0.7268,0.7007,0.6193,0.3921,0.3643,0.3587,0.0,0.3587,0.3587,0.3587,0.325,0.325,0.3531,0.3029,0.2805,0.3082,0.2861,0.2693,0.2693,0.2356,0.2188,0.2188,0.2188,0.2188,0.2244,0.2802,0.2971,0.275,0.3309,0.3362,0.3081,0.3081,0.3306,0.3531,0.3194,0.3081,0.3137,0.3475,0.3362,0.3138,0.3475,0.3587,0.3587,0.3587,0.3587,0.3587,0.3585,0.3585,0.3583,0.358,0.3537,0.3478,0.3421,0.3361,0.3235,0.3116,0.3086,0.3053,0.2981,0.3001,0.2985,0.2929,0.292,0.292,0.2921,0.2922,0.294,0.2998,0.3008,0.3007,0.3078,0.3144,0.318,0.318,0.318,0.318,0.318,0.318,0.318,0.318,0.318,0.318,0.318,0.318,0.318,0.318,0.318,0.318,0.318,0.3179,0.3177,0.3176,0.3116,0.3087,0.0,0.0,0.9951,0.9646,0.9515,0.9345,0.9087,0.8872,0.8696,0.8696,0.8845,0.8938,0.8995,0.9344,0.9701,0.9941,0.9545,0.8997,0.8333,0.7558,0.6531,0.4981,0.4814,0.0,0.0,0.0,0.0,0.3587,0.3475,0.3475,0.3587,0.3419,0.3363,0.3418,0.3138,0.3083,0.3309,0.297,0.2802,0.2802,0.2636,0.2525,0.2525,0.2748,0.2806,0.2693,0.2918,0.3027,0.3081,0.3081,0.3306,0.3587,0.3475,0.3418,0.3418,0.3531,0.3531,0.3474,0.3587,0.3587,0.3587,0.3587,0.3587,0.3587,0.3587,0.3587,0.3587,0.3587,0.3572,0.3552,0.3533,0.3482,0.3418,0.3339,0.329,0.3228,0.3105,0.3046,0.3048,0.2987,0.2946,0.292,0.292,0.292,0.2938,0.2996,0.3039,0.3095,0.3081,0.3109,0.3136,0.3176,0.318,0.318,0.318,0.318,0.318,0.318,0.318,0.318,0.318,0.318,0.318,0.318,0.318,0.318,0.318,0.318,0.318,0.318,0.316,0.315,0.9994,0.9994,0.9951,0.9777,0.9559,0.9345,0.917,0.8911,0.8696,0.8696,0.8841,0.9039,0.9165,0.9571,0.9969,1.0217,0.9812,0.9301,0.8961,0.8251,0.7307,0.6146,0.5648,0.0,0.0,0.0,0.0,0.3587,0.3587,0.3587,0.3587,0.3587,0.3587,0.3587,0.3418,0.3362,0.3587,0.327,0.3175,0.3194,0.2853,0.2855,0.3083,0.2951,0.2943,0.3055,0.3037,0.3139,0.325,0.3138,0.3306,0.3587,0.3475,0.3475,0.3587,0.3587,0.3587,0.3587,0.3587,0.3587,0.3587,0.3587,0.3587,0.3587,0.3587,0.3587,0.3587,0.3587,0.3587,0.3587,0.3587,0.3557,0.3515,0.3456,0.3413,0.335,0.318,0.3157,0.3095,0.3035,0.3005,0.295,0.295,0.2932,0.2932,0.2968,0.3008,0.3063,0.3097,0.3078,0.3105,0.3144,0.3167,0.318,0.318,0.318,0.318,0.318,0.318,0.318,0.318,0.318,0.318,0.318,0.318,0.318,0.318,0.318,0.318,0.318,0.318,0.318,0.9994,0.9994,0.9994,0.9994,0.9777,0.9602,0.9602,0.9257,0.8911,0.8911,0.884,0.8942,0.0,0.0,1.0006,1.0375,1.057,1.0296,0.914,0.8975,0.853,0.0,0.0,0.0,0.0,0.0,0.0,0.3754,0.0,0.3587,0.3587,0.3587,0.3587,0.3587,0.359,0.3593,0.3593,0.3366,0.3247,0.3297,0.2943,0.3178,0.3826,0.3476,0.3509,0.3851,0.3791,0.3764,0.3764,0.3367,0.3422,0.3759,0.3362,0.3473,0.3754,0.3754,0.3754,0.3754,0.3754,0.3699,0.3587,0.3587,0.3587,0.3587,0.3587,0.3587,0.3587,0.3587,0.3587,0.3587,0.3587,0.3587,0.3572,0.3515,0.3501,0.347,0.3356,0.3283,0.3171,0.3108,0.3044,0.3004,0.3004,0.2957,0.292,0.292,0.292,0.2961,0.3077,0.3095,0.3083,0.309,0.3141,0.3177,0.318,0.318,0.318,0.318,0.318,0.318,0.318,0.318,0.318,0.318,0.318,0.318,0.318,0.318,0.318,0.318,0.318,0.318,0.9994,0.9994,0.9994,0.9994,0.9777,0.9602,0.9602,0.9388,0.913,0.8955,0.9079,0.9274,0.0,0.0,0.0,1.0375,1.0419,0.0,1.0284,1.0249,0.0,0.0,0.0,0.7645,0.6753,0.6364,0.0,0.0,0.4589,0.3587,0.3587,0.3587,0.3587,0.3587,0.3404,0.3426,0.3655,0.3424,0.3284,0.3297,0.3002,0.3471,0.4524,0.4448,0.496,0.6,0.5976,0.608,0.6193,0.5096,0.5354,0.6308,0.5228,0.5367,0.6197,0.6197,0.6197,0.6197,0.6197,0.5089,0.3587,0.3587,0.3587,0.3587,0.3587,0.3587,0.3587,0.3587,0.3587,0.3587,0.3587,0.3587,0.3583,0.3568,0.3564,0.3544,0.3469,0.3407,0.3335,0.3177,0.3072,0.3004,0.3004,0.2957,0.292,0.292,0.292,0.2946,0.3018,0.3041,0.304,0.3081,0.3105,0.3132,0.3176,0.318,0.318,0.318,0.318,0.318,0.318,0.318,0.318,0.318,0.318,0.318,0.318,0.318,0.318,0.318,0.318,0.318,0.9994,0.9994,0.9994,0.9994,0.9777,0.9602,0.9602,0.9432,0.9262,0.9087,0.9279,0.0,0.0,0.0,0.0,0.0,0.0,0.0,1.0668,1.0692,1.0468,0.0,0.9199,0.0,0.7974,0.7418,0.7083,0.0,0.5864,0.4921,0.4424,0.4369,0.4159,0.3683,0.3488,0.3817,0.463,0.4495,0.4707,0.5335,0.5033,0.5331,0.6167,0.6002,0.6396,0.7218,0.0,0.7261,0.7375,0.6447,0.6627,0.7317,0.6461,0.6519,0.7083,0.7083,0.7083,0.7083,0.7083,0.6253,0.5033,0.4534,0.4369,0.4313,0.3755,0.3587,0.3587,0.3587,0.3587,0.3699,0.4257,0.4369,0.4369,0.4369,0.4756,0.4964,0.4424,0.4305,0.4042,0.331,0.3149,0.3052,0.3018,0.2978,0.2949,0.2922,0.292,0.2931,0.2962,0.2989,0.317,0.362,0.3705,0.3948,0.447,0.4081,0.4045,0.4578,0.3731,0.363,0.458,0.4131,0.3882,0.3882,0.4381,0.4381,0.3882,0.4381,0.458,0.458,0.458,0.4331,0.9994,0.9994,0.9994,0.9994,0.982,0.9646,0.9646,0.9519,0.9393,0.9345,0.0,0.9483,0.9393,0.0,0.9941,1.0082,0.0,1.0432,1.0631,1.0676,1.0692,1.0692,0.975,0.9144,0.9144,0.8195,0.7581,0.7581,0.7581,0.703,0.5704,0.5661,0.5209,0.4274,0.422,0.4862,0.6086,0.6088,0.667,0.7917,0.7606,0.7731,0.8158,0.7802,0.7874,0.8352,0.0,0.0,0.8187,0.7705,0.7693,0.7883,0.7445,0.7424,0.7607,0.759,0.7581,0.7581,0.7581,0.7581,0.7362,0.6035,0.5648,0.5425,0.4367,0.4088,0.4088,0.4088,0.4088,0.4311,0.5369,0.5648,0.5648,0.5648,0.6366,0.6808,0.5813,0.5465,0.4953,0.3705,0.3354,0.3189,0.307,0.3027,0.2997,0.2939,0.2924,0.292,0.292,0.2962,0.3316,0.4103,0.4356,0.4912,0.5881,0.5273,0.5268,0.6294,0.4624,0.4479,0.6323,0.5529,0.5033,0.5033,0.5927,0.5927,0.5033,0.5927,0.6423,0.6423,0.6423,0.5927,0.9994,0.9994,0.9994,0.9994,0.9951,0.9951,0.9951,0.9907,0.0,0.0,0.0,0.95,0.9285,0.9279,0.0,0.9686,0.0,0.0,0.0,0.0,1.0692,0.0,0.0,0.0,0.0,0.0,0.0,0.0,0.0,0.0,0.6919,0.6958,0.7046,0.7076,0.7082,0.7207,0.7522,0.7522,0.7654,0.7919,0.7856,0.8404,0.9438,0.9411,1.0013,1.1113,0.0,0.0,1.0999,0.9773,0.9884,1.0669,0.9349,0.9462,1.0275,1.0134,1.008,1.008,1.008,1.008,0.9691,0.7529,0.6808,0.6753,0.6531,0.6475,0.6475,0.6475,0.6475,0.6528,0.6753,0.6808,0.6808,0.6808,0.6974,0.7027,0.6864,0.601,0.5222,0.496,0.4054,0.3279,0.3198,0.31,0.3059,0.2998,0.295,0.292,0.292,0.2928,0.2997,0.3229,0.3933,0.4532,0.4767,0.5473,0.6017,0.6233,0.5976,0.6024,0.6373,0.6224,0.6124,0.6124,0.6323,0.6323,0.6124,0.6323,0.6423,0.6423,0.6423,0.6323,0.9994,0.9994,0.9994,0.9994,0.9994,0.9994,0.9994,0.0,0.0,0.0,0.0,0.9722,0.946,0.0,0.0,0.0,0.0,0.0,0.0,0.0,0.0,0.0,0.0,0.0,0.0,0.0,0.0,0.0,0.0,0.0,0.8295,0.7809,0.7677,0.779,0.7856,0.8162,0.8891,0.8891,0.9259,0.9937,0.9937,1.024,1.0849,1.0849,1.122,1.1776,1.1776,0.0,1.1768,1.1067,1.1042,1.1425,1.0662,1.0665,1.1016,1.0871,1.0773,1.0692,1.0692,1.0692,1.0523,0.9357,0.8527,0.7919,0.7307,0.7083,0.7083,0.7083,0.7083,0.7249,0.7861,0.8029,0.8029,0.8029,0.8029,0.8029,0.8029,0.7596,0.6986,0.6379,0.5696,0.5271,0.5131,0.4541,0.422,0.4612,0.3689,0.3133,0.3592,0.3187,0.3108,0.3634,0.4089,0.4804,0.592,0.5982,0.647,0.7638,0.6806,0.6776,0.7902,0.7483,0.7223,0.7223,0.7773,0.7773,0.7223,0.7773,0.8071,0.8071,0.8071,0.7773,0.9994,0.9994,0.9994,0.9994,0.9994,0.9994,0.9994,0.9994,0.0,0.0,0.9994,0.9907,0.9646,0.0,0.0,0.0,0.0,0.0,0.0,0.0,0.0,0.0,0.0,0.0,0.0,0.0,0.0,0.0,0.0,0.0,0.9692,0.8968,0.8584,0.8674,0.8718,0.9201,1.0233,1.0233,1.0789,1.1776,1.1776,1.1776,1.1776,1.1776,1.1776,1.1776,1.1776,0.0,0.0,1.1776,1.1691,1.1553,1.1516,1.1305,1.1021,1.098,1.085,1.0692,1.0692,1.0692,1.0692,1.0692,1.0084,0.9085,0.8137,0.7858,0.7858,0.7858,0.7858,0.8082,0.903,0.9309,0.9309,0.9309,0.9309,0.9309,0.9309,0.9089,0.8608,0.7672,0.7271,0.7093,0.6983,0.6123,0.5625,0.6187,0.4808,0.3921,0.4561,0.3819,0.3499,0.421,0.43,0.5041,0.6889,0.6466,0.6988,0.8934,0.7628,0.7564,0.9251,0.8683,0.8322,0.8322,0.9156,0.9175,0.8322,0.9175,0.9579,0.9579,0.9579,0.9126,0.9994,0.9994,0.9994,0.9994,0.9994,0.9994,0.9994,0.0,0.0,0.9994,0.9994,0.9907,0.9646,0.9577,0.0,0.0,0.0,0.0,0.0,0.0,0.0,0.0,0.0,0.0,0.0,0.0,0.0,0.0,0.0,0.0,0.0,1.1094,1.1217,1.1438,1.1458,1.147,1.1591,1.1591,1.1651,1.1776,1.1776,1.1776,1.1776,1.1776,1.1776,1.1776,0.0,0.0,0.0,1.1776,1.1764,1.1736,1.1565,1.1374,1.1179,1.1025,1.085,1.0692,1.0692,1.0692,1.0692,1.0692,1.0637,1.0523,1.0414,1.0359,1.0359,1.0359,1.0359,1.0414,1.0523,1.0527,1.0527,1.0527,1.0527,1.0527,1.0527,0.9695,0.8861,0.8738,0.7846,0.7081,0.7058,0.694,0.678,0.6581,0.6203,0.5873,0.5845,0.4887,0.421,0.43,0.43,0.4701,0.578,0.6734,0.7682,0.8754,0.883,0.8929,0.912,0.9239,0.928,0.928,0.9494,0.9529,0.9476,0.9529,0.9579,0.9579,0.9579,0.9529,0.9994,0.9994,0.9994,0.9994,0.9994,0.9994,0.9994,0.0,0.9994,0.9994,0.9994,0.9951,0.9864,0.9689,0.9542,0.0,0.0,0.0,0.0,0.0,0.0,0.0,0.0,0.0,0.0,0.0,0.0,0.0,0.0,0.0,0.0,1.1565,1.1699,1.1776,1.1776,1.1776,1.1776,1.1776,1.1776,1.1776,1.1776,1.1776,1.1776,1.1776,1.1776,1.1776,0.0,0.0,0.0,1.1776,1.1776,1.1768,1.1695,1.1553,1.1366,1.1187,1.1013,1.0842,1.0729,1.0692,1.0692,1.0692,1.0692,1.0692,1.0692,1.0692,1.0692,1.0692,1.0692,1.0692,1.0692,1.0692,1.0692,1.0692,1.0692,1.0692,1.0692,1.0304,0.9974,0.9974,0.9581,0.9281,0.9275,0.8595,0.822,0.8687,0.7437,0.6602,0.6963,0.6033,0.5077,0.4393,0.381,0.4076,0.5586,0.6117,0.7045,0.8577,0.8832,0.893,0.893,0.9104,0.9202,0.9202,0.9271,0.9311,0.9311,0.9311,0.9311,0.9311,0.9311,0.9311,1.0081,0.9994,0.9994,0.9994,0.9994,0.9994,0.0,0.0,0.9994,0.9994,0.9994,0.9994,0.9994,0.9864,0.9646,0.9432,0.0,0.974,0.0,0.0,0.0,0.0,0.0,0.0,0.0,0.0,0.0,0.0,0.0,0.0,0.0,1.1707,1.1776,1.1776,1.1776,1.1776,1.1776,1.1776,1.1776,1.1776,1.1776,1.1776,1.1776,1.1776,1.1776,1.1776,0.0,0.0,0.0,1.1776,1.1776,1.1776,1.1776,1.163,1.1403,1.1273,1.1082,1.0871,1.0737,1.0692,1.0692,1.0692,1.0692,1.0692,1.0692,1.0692,1.0692,1.0692,1.0692,1.0692,1.0692,1.0692,1.0692,1.0692,1.0692,1.0692,1.0692,1.0692,1.0692,1.0692,1.0692,1.0692,1.0692,0.993,0.9578,1.0164,0.8786,0.7812,0.8297,0.7289,0.619,0.538,0.4375,0.4255,0.5586,0.5719,0.652,0.848,0.8678,0.8747,0.8747,0.8917,0.9015,0.9015,0.9072,0.9096,0.9096,0.9096,0.9096,0.9096,0.9096,0.9096,1.0207,0.9994,0.9994,0.9994,0.9994,0.9994,0.0,0.0,0.9994,0.9994,0.9994,0.9994,0.9994,0.9994,0.9907,0.9646,0.9718,0.0,0.0,0.0,0.0,0.0,0.0,0.0,0.0,0.0,0.0,0.0,0.0,0.0,0.0,1.1776,1.1776,1.1776,1.1776,1.1776,1.1776,1.1776,1.1776,1.1776,1.1776,1.1776,1.1776,1.1776,1.1776,0.0,0.0,0.0,0.0,1.1776,1.1776,1.1776,1.1776,1.1549,1.1224,1.1224,1.0997,1.0692,1.0692,1.0692,1.0692,1.0692,1.0692,1.0692,1.0692,1.0692,1.0692,1.0692,1.0692,1.0692,1.0692,1.0692,1.0692,1.0692,1.0692,1.0692,1.0692,1.0692,1.0692,1.0692,1.0692,1.0692,1.0692,1.0688,1.0631,1.0407,1.0274,1.0087,0.99,0.8586,0.7677,0.7674,0.6451,0.5675,0.5719,0.5719,0.652,0.848,0.8612,0.8612,0.8612,0.8735,0.8824,0.8824,0.9003,0.9096,0.9096,0.9096,0.9096,0.9096,0.9096,0.9096,1.1912,1.1869,1.1697,1.1063,1.1359,1.1697,1.102,0.0,1.0895,1.0895,1.0424,0.9994,0.9994,0.9994,0.9907,0.9646,0.9714,0.0,0.0,0.0,0.0,0.0,0.0,0.0,0.0,0.0,0.0,0.0,0.0,0.0,0.0,0.0,1.1776,1.1776,1.1776,1.1776,1.1776,1.1776,1.1776,1.1776,1.1776,1.1776,1.1776,1.1776,0.0,0.0,0.0,0.0,0.0,1.1776,1.1776,1.1764,1.1634,1.1516,1.1382,1.1139,1.0976,1.0863,1.0737,1.0692,1.0692,1.0692,1.0692,1.0692,1.0692,1.0692,1.0692,1.0692,1.0692,1.0692,1.0692,1.0692,1.0692,1.0692,1.0692,1.0692,1.0692,1.0692,1.0692,1.0692,1.0692,1.0692,1.0692,1.0692,1.0672,1.0619,1.0461,1.0282,1.0151,0.9563,0.8894,0.8143,0.7479,0.695,0.6669,0.665,0.7231,0.852,0.8612,0.8612,0.8612,0.8661,0.8649,0.8649,0.8706,0.878,0.878,0.878,0.878,0.878,0.878,0.878,0.0,1.2717,1.2547,1.1955,1.2254,0.0,0.0,0.0,1.1832,1.1832,1.1106,1.0511,1.0511,1.0207,0.9951,0.9777,0.9763,0.0,0.0,0.0,0.0,0.0,0.0,0.0,0.0,0.0,0.0,0.0,0.0,0.0,0.0,0.0,1.1776,1.1776,1.1776,1.1776,1.1776,1.1776,1.1776,1.1776,1.1776,1.1776,1.1776,1.1776,0.0,0.0,0.0,0.0,0.0,1.1776,1.1736,1.1663,1.1545,1.1415,1.1273,1.1106,1.0923,1.0846,1.0733,1.0692,1.0692,1.0692,1.0692,1.0692,1.0692,1.0692,1.0692,1.0692,1.0692,1.0692,1.0692,1.0692,1.0692,1.0692,1.0692,1.0692,1.0692,1.0692,1.0692,1.0692,1.0692,1.0692,1.0692,1.0692,1.0692,1.0692,1.0599,1.0493,1.0375,1.0144,0.9741,0.9022,0.8619,0.8273,0.8009,0.7417,0.754,0.8524,0.8612,0.8612,0.8612,0.8612,0.8612,0.8612,0.8612,0.8612,0.8612,0.8612,0.8612,0.8612,0.8612,0.8612,0.0,1.2887,1.2887,1.2802,1.2845,1.2887,1.2802,0.0,0.0,1.2802,1.204,1.1408,1.1408,1.0679,1.0081,1.0081,0.0,0.0,0.0,0.0,0.0,0.0,0.0,0.0,0.0,0.0,0.0,0.0,0.0,0.0,0.0,0.0,1.1776,1.1776,1.1776,1.1776,1.1776,1.1776,1.1776,1.1776,1.1776,1.1776,1.1776,1.1776,0.0,0.0,0.0,0.0,0.0,1.1756,1.1646,1.148,1.1464,1.1261,1.1024,1.0956,1.0842,1.0692,1.0692,1.0692,1.0692,1.0692,1.0692,1.0692,1.0692,1.0692,1.0692,1.0692,1.0692,1.0692,1.0692,1.0692,1.0692,1.0692,1.0692,1.0692,1.0692,1.0692,1.0692,1.0692,1.0692,1.0692,1.0692,1.0692,1.0692,1.0692,1.0692,1.0692,1.0692,1.0404,1.0253,1.0253,0.988,0.9596,0.9473,0.8081,0.7613,0.854,0.8616,0.8612,0.8612,0.8612,0.8612,0.8612,0.8612,0.8612,0.8612,0.8612,0.8612,0.8612,0.8612,0.8612,1.4866,0.0,1.4608,1.3922,1.4265,1.4608,0.0,0.0,0.0,0.0,0.0,0.0,0.0,0.0,0.0,0.0,0.0,0.0,0.0,0.0,0.0,0.0,0.0,0.0,0.0,0.0,0.0,0.0,0.0,0.0,0.0,0.0,1.1776,1.1776,1.1776,1.1776,1.1776,1.1776,1.1776,1.1776,1.1776,1.1776,1.1776,1.1776,0.0,0.0,0.0,0.0,1.1565,1.1565,1.1455,1.1273,1.1147,1.1045,1.0952,1.081,1.0729,1.0692,1.0692,1.0692,1.0692,1.0692,1.0692,1.0692,1.0692,1.0692,1.0692,1.0692,1.0692,1.0692,1.0692,1.0692,1.0692,1.0692,1.0692,1.0692,1.0692,1.0692,1.0692,1.0692,1.0692,1.0692,1.0692,1.0692,1.0692,1.0692,1.0692,1.0692,1.0692,1.0619,1.0566,1.0566,1.0249,1.0069,1.0024,0.9164,0.8681,0.8767,0.8637,0.8612,0.8612,0.8612,0.8612,0.8612,0.8612,0.8612,0.8612,0.8612,0.8612,0.8612,0.874,0.8823,1.5389,1.5389,1.5298,1.4824,1.5041,1.5257,1.4783,0.0,0.0,0.0,0.0,0.0,0.0,0.0,0.0,0.0,0.0,0.0,0.0,0.0,0.0,0.0,0.0,0.0,0.0,0.0,0.0,0.0,0.0,0.0,0.0,0.0,1.1691,1.1776,1.1776,1.1776,1.1776,1.1776,1.1776,1.1776,1.1776,1.1776,1.1776,1.1776,0.0,0.0,0.0,0.0,1.137,1.137,1.1269,1.1098,1.1005,1.0919,1.083,1.0729,1.0692,1.0692,1.0692,1.0692,1.0692,1.0692,1.0692,1.0692,1.0692,1.0692,1.0692,1.0692,1.0692,1.0692,1.0692,1.0692,1.0692,1.0692,1.0692,1.0692,1.0692,1.0692,1.0692,1.0692,1.0692,1.0692,1.0692,1.0692,1.0692,1.0692,1.0692,1.0692,1.0692,1.0692,1.0692,1.0692,1.0521,1.0375,1.0294,0.9855,0.9437,0.9088,0.9024,0.8939,0.8812,0.8727,0.8649,0.8612,0.8612,0.8612,0.8612,0.8645,0.8682,0.8686,0.8985,0.9109,1.5389,1.5389,1.5389,1.5389,1.5389,1.5389,1.5389,0.0,0.0,0.0,0.0,0.0,0.0,0.0,0.0,0.0,0.0,0.0,0.0,0.0,0.0,0.0,0.0,0.0,0.0,0.0,0.0,0.0,0.0,0.0,0.0,0.0,0.0,1.1687,1.1691,1.1691,1.1691,1.1748,1.176,1.1736,1.1736,1.1719,1.1691,1.1691,1.1606,0.0,0.0,0.0,1.1183,1.1183,1.1082,1.0928,1.0928,1.083,1.0692,1.0692,1.0692,1.0692,1.0692,1.0692,1.0692,1.0692,1.0692,1.0692,1.0692,1.0692,1.0692,1.0692,1.0692,1.0692,1.0692,1.0692,1.0692,1.0692,1.0692,1.0692,1.0692,1.0692,1.0692,1.0692,1.0692,1.0692,1.0692,1.0692,1.0692,1.0692,1.0692,1.0692,1.0692,1.0692,1.0692,1.0692,1.0692,1.0631,1.0485,1.0335,1.0086,0.9649,0.949,0.9332,0.9185,0.9027,0.8877,0.8735,0.8775,0.8775,0.8775,0.8873,0.8942,0.895,0.9302,0.9493,1.5389,1.5389,1.5389,1.5389,1.5389,1.5389,1.5389,0.0,0.0,0.0,0.0,0.0,0.0,0.0,0.0,0.0,0.0,0.0,0.0,0.0,0.0,0.0,0.0,0.0,0.0,0.0,0.0,0.0,0.0,0.0,0.0,0.0,0.0,1.1305,1.1309,1.1309,1.1309,1.1618,1.1699,1.1541,1.1541,1.1459,1.1309,1.1309,1.1293,0.0,0.0,1.1167,1.1009,1.1009,1.0899,1.0737,1.0737,1.0716,1.0692,1.0692,1.0692,1.0692,1.0692,1.0692,1.0692,1.0692,1.0692,1.0692,1.0692,1.0692,1.0692,1.0692,1.0692,1.0692,1.0692,1.0692,1.0692,1.0692,1.0692,1.0692,1.0692,1.0692,1.0692,1.0692,1.0692,1.0692,1.0692,1.0692,1.0692,1.0692,1.0692,1.0692,1.0692,1.0692,1.0692,1.0692,1.0692,1.068,1.0655,1.0627,1.0621,1.0655,0.9991,0.9575,0.9547,0.947,0.949,0.9466,0.9466,0.9466,0.9466,0.9441,0.9457,0.9506,0.9755,0.9927,1.5389,1.5389,1.5389,1.5389,1.5389,1.5389,1.5389,0.0,0.0,0.0,0.0,0.0,0.0,0.0,0.0,0.0,0.0,0.0,0.0,0.0,0.0,0.0,0.0,0.0,0.0,0.0,0.0,0.0,0.0,0.0,0.0,0.0,0.0,0.0,1.1224,1.1224,1.1224,1.139,1.1435,1.135,1.135,1.1305,1.1224,1.1224,1.1171,1.1086,0.0,1.0984,1.0822,1.0822,1.0769,1.0692,1.0692,1.0692,1.0692,1.0692,1.0692,1.0692,1.0692,1.0692,1.0692,1.0692,1.0692,1.0692,1.0692,1.0692,1.0692,1.0692,1.0692,1.0692,1.0692,1.0692,1.0692,1.0692,1.0692,1.0692,1.0692,1.0692,1.0692,1.0692,1.0692,1.0692,1.0692,1.0692,1.0692,1.0692,1.0692,1.0692,1.0692,1.0692,1.0692,1.0692,1.0692,1.0692,1.0692,1.0692,1.0673,1.0609,1.0315,1.0024,0.977,0.9916,0.9921,0.9875,0.9875,0.9924,1.0072,1.0016,1.0067,1.0271,1.0429,1.0475,1.5411,1.5389,1.5389,1.5389,1.5389,1.5389,1.5389,0.0,0.0,0.0,0.0,0.0,0.0,0.0,0.0,0.0,0.0,0.0,0.0,0.0,0.0,0.0,0.0,0.0,0.0,0.0,0.0,0.0,0.0,0.0,0.0,0.0,0.0,0.0,1.1098,1.1098,1.1098,1.1098,1.1122,1.1163,1.1163,1.1139,1.1098,1.1098,1.1029,1.0907,1.0907,1.0826,1.0692,1.0692,1.0692,1.0692,1.0692,1.0692,1.0692,1.0692,1.0692,1.0692,1.0692,1.0692,1.0692,1.0692,1.0692,1.0692,1.0692,1.0692,1.0692,1.0692,1.0692,1.0692,1.0692,1.0692,1.0692,1.0692,1.0692,1.0692,1.0692,1.0692,1.0692,1.0692,1.0692,1.0692,1.0692,1.0747,1.0747,1.0692,1.0747,1.0747,1.0692,1.0692,1.0692,1.0692,1.0692,1.0692,1.0692,1.0747,1.069,1.0505,1.0629,1.0588,1.0286,1.0484,1.0574,1.0437,1.0437,1.0534,1.0736,1.0672,1.0742,1.1008,1.1053,1.1035,1.5469,1.5389,1.5389,1.5389,1.5389,0.0,1.5389,1.5389,0.0,1.5389,0.0,0.0,0.0,0.0,0.0,0.0,0.0,0.0,0.0,0.0,0.0,0.0,0.0,0.0,0.0,0.0,0.0,0.0,0.0,0.0,0.0,0.0,0.0,0.0,0.0,1.0729,1.0729,1.0729,1.0818,1.0988,1.0988,1.0895,1.0729,1.0729,1.0724,1.0712,1.0712,1.0704,1.0692,1.0692,1.0692,1.0692,1.0692,1.0692,1.0692,1.0692,1.0692,1.0692,1.0692,1.0692,1.0692,1.0692,1.0692,1.0692,1.0692,1.0692,1.0692,1.0692,1.0692,1.0692,1.0692,1.0692,1.0692,1.0692,1.0692,1.0692,1.0692,1.0692,1.0692,1.0692,1.0692,1.0692,1.0692,1.0911,1.0966,1.0747,1.0911,1.0966,1.0747,1.0692,1.0692,1.0692,1.0692,1.0692,1.0692,1.0907,1.0958,1.0672,1.0933,1.1193,1.1452,1.1507,1.1498,1.1485,1.1485,1.1485,1.1539,1.1498,1.1507,1.1561,1.1533,1.1546,1.5476,1.5389,1.5389,1.5389,1.5389,0.0,0.0,1.5389,1.5447,1.5687,0.0,0.0,0.0,0.0,0.0,0.0,0.0,0.0,0.0,0.0,0.0,0.0,0.0,0.0,0.0,0.0,0.0,0.0,0.0,0.0,0.0,0.0,0.0,0.0,0.0,1.0857,1.0692,1.0692,1.0729,1.0798,1.0798,1.0761,1.0692,1.0692,1.0692,1.0692,1.0857,1.0857,1.0692,1.0857,1.0857,1.0692,1.0692,1.0692,1.0692,1.0692,1.0692,1.0692,1.0692,1.0692,1.0692,1.0692,1.0692,1.0692,1.0692,1.0692,1.0692,1.0692,1.0802,1.0911,1.0747,1.0692,1.0692,1.0692,1.0692,1.0692,1.0692,1.0692,1.0692,1.0692,1.0692,1.0692,1.0692,1.0802,1.0857,1.0966,1.1021,1.1126,1.124,1.1076,1.0966,1.0966,1.0802,1.0692,1.0692,1.0802,1.0857,1.0966,1.1017,1.1181,1.1291,1.1514,1.1678,1.1841,1.1841,1.1951,1.2114,1.1951,1.1951,1.2114,1.1951,1.1841,1.5498,1.5389,1.5389,0.0,0.0,0.0,1.5389,1.5469,1.563,0.0,0.0,0.0,0.0,0.0,0.0,0.0,0.0,0.0,0.0,0.0,0.0,0.0,0.0,0.0,0.0,0.0,0.0,0.0,0.0,0.0,0.0,0.0,0.0,0.0,0.0,0.0,1.0966,1.0966,1.0966,1.0966,1.0966,1.0857,1.0692,1.0692,1.0692,1.0692,1.0966,1.1021,1.0857,1.1131,1.1076,1.0857,1.0857,1.0857,1.0802,1.0747,1.0802,1.0966,1.0747,1.0747,1.0802,1.0747,1.0692,1.0692,1.0692,1.0692,1.0692,1.0692,1.0857,1.0966,1.0857,1.0857,1.0857,1.0857,1.0747,1.0692,1.0692,1.0692,1.0692,1.0692,1.0692,1.0692,1.0692,1.0747,1.0911,1.1072,1.1181,1.135,1.1568,1.1404,1.124,1.124,1.1076,1.0966,1.0966,1.0966,1.1021,1.1072,1.1072,1.1181,1.14,1.1618,1.1841,1.2114,1.2114,1.2223,1.2387,1.2223,1.2219,1.2387,1.2223,1.2114,1.5606,1.5389,1.5389,0.0,0.0,0.0,1.5389,1.5644,1.6009,0.0,0.0,0.0,0.0,0.0,0.0,0.0,0.0,0.0,0.0,0.0,0.0,0.0,0.0,0.0,0.0,0.0,0.0,0.0,0.0,0.0,0.0,0.0,0.0,0.0,0.0,0.0,1.1623,1.1623,1.1623,1.1623,1.1623,1.1295,1.0692,1.0692,1.0692,1.0692,1.0966,1.1072,1.1126,1.1459,1.1404,1.1072,1.1072,1.1072,1.1072,1.0802,1.1076,1.1514,1.0911,1.0852,1.1072,1.0802,1.0692,1.0692,1.0692,1.0692,1.0692,1.0692,1.0692,1.0747,1.1021,1.1072,1.1072,1.1072,1.0911,1.0692,1.0692,1.0692,1.0692,1.0692,1.0692,1.0692,1.0692,1.0907,1.1072,1.1072,1.14,1.1623,1.1623,1.1623,1.1623,1.1623,1.1623,1.1623,1.1623,1.1623,1.1459,1.1126,1.1072,1.1345,1.1951,1.2005,1.2114,1.2382,1.2382,1.2387,1.2387,1.2387,1.2387,1.2387,1.2387,1.2387,1.5884,1.5564,0.0,0.0,0.0,0.0,0.0,1.6009,0.0,0.0,0.0,0.0,0.0,0.0,0.0,0.0,0.0,0.0,0.0,0.0,0.0,0.0,0.0,0.0,0.0,0.0,0.0,0.0,0.0,0.0,0.0,0.0,0.0,0.0,0.0,0.0,1.1623,1.1623,1.1623,1.1623,1.1623,1.1404,1.0966,1.0966,1.0966,1.1021,1.1295,1.1459,1.1459,1.1568,1.1514,1.1459,1.1459,1.1459,1.1459,1.135,1.1459,1.1568,1.1404,1.1404,1.1459,1.135,1.135,1.135,1.135,1.1185,1.0966,1.0966,1.0966,1.1021,1.1076,1.1295,1.1459,1.1459,1.1404,1.135,1.135,1.135,1.124,1.1021,1.0966,1.0907,1.0747,1.0747,1.0852,1.1072,1.1181,1.1345,1.1568,1.1787,1.1787,1.1623,1.1623,1.1623,1.1623,1.1623,1.1568,1.1459,1.1459,1.1459,1.1345,1.1345,1.1514,1.1841,1.2001,1.2114,1.2114,1.2327,1.2387,1.2387,1.2387,1.2387,1.584,0.0,0.0,0.0,0.0,0.0,0.0,0.0,0.0,0.0,0.0,0.0,0.0,0.0,0.0,0.0,0.0,0.0,0.0,0.0,0.0,0.0,0.0,0.0,0.0,0.0,0.0,0.0,0.0,0.0,0.0,0.0,0.0,0.0,0.0,0.0,1.1896,1.1896,1.1896,1.1896,1.1896,1.1787,1.1455,1.135,1.1295,1.1295,1.1623,1.1841,1.1896,1.1896,1.1841,1.1787,1.1787,1.1787,1.1732,1.1623,1.1732,1.1896,1.1678,1.1678,1.1732,1.1623,1.1623,1.1623,1.1623,1.1459,1.1295,1.1295,1.1295,1.1345,1.1459,1.1623,1.1732,1.1623,1.1623,1.1623,1.1623,1.1623,1.1514,1.135,1.1295,1.1236,1.1076,1.1076,1.1131,1.1295,1.1295,1.1404,1.1732,1.1896,1.2005,1.1896,1.1896,1.1896,1.1896,1.1896,1.1896,1.1787,1.1787,1.1623,1.1295,1.14,1.1618,1.1896,1.206,1.2169,1.2169,1.2332,1.2387,1.2387,1.2387,1.2387,1.5635,0.0,0.0,0.0,0.0,0.0,0.0,0.0,0.0,0.0,0.0,0.0,0.0,0.0,0.0,0.0,0.0,0.0,0.0,0.0,0.0,0.0,0.0,0.0,0.0,0.0,0.0,0.0,0.0,0.0,0.0,0.0,0.0,0.0,0.0,0.0,1.2387,1.2387,1.2387,0.0,1.2387,1.2273,1.2005,1.1787,1.1623,1.1623,1.1896,1.2169,1.2387,1.2387,1.2278,1.206,1.206,1.206,1.2005,1.1787,1.2001,1.2332,1.1841,1.1896,1.2169,1.1896,1.1841,1.1841,1.1841,1.1732,1.1623,1.1623,1.1623,1.1678,1.1896,1.2001,1.1951,1.1678,1.1678,1.1678,1.1678,1.1678,1.1678,1.1623,1.1623,1.1623,1.1623,1.1623,1.1623,1.1623,1.1623,1.1732,1.1951,1.2001,1.2114,1.2387,1.2387,1.2387,1.2387,1.2387,1.2278,1.206,1.206,1.1951,1.1678,1.1841,1.206,1.2332,1.2327,1.2387,1.2387,1.2382,1.2387,1.2387,1.2387,1.2387,0.0,1.5579,0.0,0.0,0.0,0.0,0.0,0.0,0.0,0.0,0.0,0.0,0.0,0.0,0.0,0.0,0.0,0.0,0.0,0.0,0.0,0.0,0.0,0.0,0.0,0.0,0.0,0.0,0.0,0.0,0.0,0.0,0.0,0.0,0.0,1.2387,1.2387,1.2387,1.2387,0.0,1.2387,1.2387,1.2273,1.206,1.1896,1.1951,1.2223,1.2327,1.2387,1.2387,1.2387,1.2327,1.2327,1.2327,1.2327,1.2278,1.2273,1.2382,1.2273,1.2871,1.3732,1.3684,1.3624,1.3624,1.3624,1.2817,1.1896,1.1896,1.1787,1.1623,1.1678,1.1841,1.2005,1.1951,1.206,1.2219,1.2219,1.2219,1.2169,1.1951,1.1896,1.1841,1.1623,1.1623,1.1623,1.1623,1.1787,1.1951,1.2005,1.2164,1.2332,1.2382,1.2387,1.2387,1.2387,1.2387,1.2387,1.2332,1.2327,1.2278,1.2219,1.1896,1.1732,1.1787,1.2005,1.2114,1.2114,1.2278,1.2387,1.2387,1.2387,1.2387,0.0,0.0,0.0,0.0,0.0,0.0,0.0,0.0,0.0,0.0,0.0,0.0,0.0,0.0,0.0,0.0,0.0,0.0,0.0,0.0,0.0,0.0,0.0,0.0,0.0,0.0,0.0,0.0,0.0,0.0,0.0,0.0,0.0,0.0,1.4422,1.3835,1.3251,1.3781,1.3511,1.2387,1.298,1.3251,1.3251,1.2545,1.2164,1.2223,1.2332,1.2387,1.2387,1.2387,1.2387,1.2387,1.2387,1.2387,1.2387,1.2387,1.2387,1.2387,1.2387,1.3197,1.4223,1.4223,1.4595,1.4911,1.4379,1.3684,1.3029,1.3029,1.2545,1.2114,1.2708,1.2545,1.2164,1.2164,1.2278,1.2387,1.2387,1.2387,1.2387,1.2223,1.2164,1.2169,1.2005,1.1896,1.1787,1.1787,1.1787,1.1841,1.2001,1.2114,1.2278,1.2382,1.2387,1.2387,1.2387,1.2387,1.2387,1.2387,1.2387,1.2387,1.2387,1.2114,1.2001,1.2001,1.2114,1.2164,1.2164,1.2332,1.2387,1.2387,1.2387,1.2387,0.0,0.0,0.0,0.0,0.0,0.0,0.0,0.0,0.0,0.0,0.0,0.0,0.0,0.0,0.0,0.0,0.0,0.0,0.0,0.0,0.0,0.0,0.0,0.0,0.0,0.0,0.0,0.0,0.0,0.0,0.0,0.0,1.618,1.618,1.6021,1.5441,1.4487,1.5441,1.4953,1.3029,1.4002,1.4487,1.4433,1.3457,1.2975,1.2975,1.2975,1.2975,1.2975,1.2975,1.2975,1.2975,1.2975,1.2975,1.2975,1.2762,1.2817,1.2975,1.2762,1.3624,1.4809,1.4809,1.5441,1.6027,1.5072,1.4648,1.4487,1.4487,1.3786,1.3192,1.4002,1.3467,1.2654,1.2441,1.2387,1.2387,1.2387,1.2387,1.2387,1.2387,1.2387,1.2387,1.2387,1.2223,1.206,1.206,1.1896,1.1841,1.206,1.206,1.2169,1.2387,1.2387,1.2387,1.2387,1.2387,1.2387,1.2387,1.2387,1.2387,1.2387,1.2387,1.2387,1.2387,1.2387,1.2387,1.2387,1.2387,1.2387,1.2387,1.2387,1.2387,0.0,0.0,0.0,0.0,0.0,0.0,0.0,0.0,0.0,0.0,0.0,0.0,0.0,0.0,0.0,0.0,0.0,0.0,0.0,0.0,0.0,0.0,0.0,0.0,0.0,0.0,0.0,0.0,0.0,0.0,0.0,1.7898,1.7364,1.7364,1.6399,1.5808,1.5648,1.5808,1.5755,1.5435,1.5595,1.5648,1.5648,1.5488,1.5435,1.5435,1.5435,1.5435,1.5435,1.5435,1.5435,1.5435,1.5435,1.5435,1.5328,1.432,1.4589,1.5274,1.4326,1.5339,1.7153,1.7153,1.7259,1.7312,1.7206,1.6458,1.5648,1.5648,1.5541,1.5221,1.4433,1.4056,1.3684,1.2654,1.2387,1.2387,1.2387,1.2387,1.2387,1.2387,1.2387,1.2387,1.2387,1.2387,1.2327,1.2327,1.2332,1.2327,1.2327,1.2327,1.2387,1.2387,1.2387,1.2387,1.2387,1.2387,1.2387,1.2387,1.2387,1.2387,1.2387,1.2387,1.2387,1.2387,1.2387,1.2387,1.2387,1.2387,1.2387,1.2387,1.2387,1.2387,0.0,0.0,0.0,0.0,0.0,0.0,0.0,0.0,0.0,0.0,0.0,0.0,0.0,0.0,0.0,0.0,0.0,0.0,0.0,0.0,0.0,0.0,0.0,0.0,0.0,0.0,0.0,0.0,0.0,0.0,1.9279,1.8803,1.8534,1.8534,1.8048,1.7516,1.6882,1.7463,1.7463,1.6829,1.6829,1.6829,1.6882,1.7516,1.7087,1.5914,1.5914,1.5914,1.5914,1.5914,1.5914,1.5914,1.5914,1.5914,1.5861,1.5334,1.5488,1.5808,1.5334,1.6246,1.7582,1.7582,1.8003,1.8429,1.7793,1.7259,1.6829,1.6829,1.6399,1.5914,1.6086,1.5601,1.4852,1.3678,1.3413,1.3197,1.2545,1.2387,1.2387,1.2387,1.2387,1.2387,1.2387,1.2387,1.2387,1.2387,1.2387,1.2387,1.2387,1.2387,1.2387,1.2387,1.2387,1.2387,1.2387,1.2387,1.2387,1.2387,1.2387,1.2387,1.2387,1.2387,1.2387,1.2387,1.2387,1.2387,1.2387,1.2387,1.2387,1.2387,1.2387,1.2387,0.0,0.0,0.0,0.0,0.0,0.0,0.0,0.0,0.0,0.0,0.0,0.0,0.0,0.0,0.0,0.0,0.0,0.0,0.0,0.0,0.0,0.0,0.0,0.0,0.0,0.0,0.0,0.0,0.0,0.0,1.9279,1.9279,1.9279,1.9279,1.9279,1.89,1.8055,1.8907,1.8855,1.8003,1.8003,1.8003,1.8062,1.8907,1.8363,1.6764,1.6764,1.6764,1.6764,1.6764,1.6764,1.6764,1.6764,1.6764,1.6711,1.6452,1.6505,1.6717,1.6452,1.7094,1.8003,1.8003,1.8586,1.9116,1.8272,1.8003,1.8003,1.8003,1.7411,1.6876,1.747,1.6988,1.6027,1.4911,1.4648,1.4218,1.2708,1.2387,1.2387,1.2387,1.2387,1.2387,1.2387,1.2387,1.2387,1.2387,1.2387,1.2387,1.2387,1.2387,1.2387,1.2387,1.2387,1.2387,1.2387,1.2387,1.2387,1.2387,1.2387,1.2387,1.2387,1.2387,1.2387,1.2387,1.2387,1.2387,1.2387,1.2387,1.2387,1.2387,1.2387,1.2387,0.0,0.0,0.0,0.0,0.0,0.0,0.0,0.0,0.0,0.0,0.0,0.0,0.0,0.0,0.0,0.0,0.0,0.0,0.0,0.0,0.0,0.0,0.0,0.0,0.0,0.0,0.0,0.0,0.0,0.0,1.9279,1.9279,1.9279,1.9279,1.9279,1.9272,1.922,1.9272,1.9272,1.922,1.922,1.922,1.922,1.9272,1.922,1.9116,1.9116,1.9116,1.9116,1.9116,1.9116,1.9116,1.9116,1.9116,1.9004,1.7898,1.8213,1.8959,1.7898,1.8265,1.922,1.922,1.9279,1.9272,1.922,1.922,1.922,1.922,1.9168,1.89,1.7845,1.7582,1.7206,1.6074,1.5808,1.5167,1.2866,1.2387,1.2387,1.2387,1.2387,1.2387,1.2387,1.2387,1.2387,1.2387,1.2387,1.2387,1.2387,1.2387,1.2387,1.2387,1.2387,1.2387,1.2387,1.2387,1.2387,1.2387,1.2387,1.2387,1.2387,1.2387,1.2387,1.2387,1.2387,1.2387,1.2387,1.2387,1.2387,1.2387,1.2387,1.2387,0.0,0.0,0.0,0.0,0.0,0.0,0.0,0.0,0.0,0.0,0.0,0.0,0.0,0.0,0.0,0.0,0.0,0.0,0.0,0.0,0.0,0.0,0.0,0.0,0.0,0.0,0.0,0.0,0.0,0.0,1.9279,1.9279,1.9279,1.9279,1.9279,1.9279,1.9279,1.9279,1.9279,1.9279,1.9279,1.9279,1.9279,1.9279,1.9279,1.9279,1.9279,1.9279,1.9279,1.9279,1.9279,1.9279,1.9279,1.9279,1.9279,1.8848,1.8959,1.922,1.8848,1.8959,1.9279,1.9279,1.9279,1.9279,1.9279,1.9279,1.9279,1.9279,1.9279,1.922,1.8803,1.8691,1.8422,1.7252,1.6452,1.5488,1.3894,1.3576,1.3305,1.2545,1.2387,1.2387,1.2387,1.2387,1.2387,1.2387,1.2387,1.2387,1.2387,1.2387,1.2387,1.2387,1.2387,1.2387,1.2387,1.2387,1.2387,1.2387,1.2387,1.2387,1.2387,1.2387,1.2387,1.2387,1.2387,1.2387,1.2387,1.2387,1.2387,1.2387,1.2387,1.2387,0.0,0.0,0.0,0.0,0.0,0.0,0.0,0.0,0.0,0.0,0.0,0.0,0.0,0.0,0.0,0.0,0.0,0.0,0.0,0.0,0.0,0.0,0.0,0.0,0.0,0.0,0.0,0.0,0.0,0.0,1.9279,1.9279,1.9279,1.9279,1.9279,1.9279,1.9279,1.9279,1.9279,1.9279,1.9279,1.9279,1.9279,1.9279,1.9279,1.9279,1.9279,1.9279,1.9279,1.9279,1.9279,1.9279,1.9279,1.9279,1.9279,1.9279,1.9279,1.9279,1.9279,1.9279,1.9279,1.9279,1.9279,1.9279,1.9279,1.9279,1.9279,1.9279,1.9279,1.9279,1.9279,1.9279,1.9116,1.8325,1.7569,1.6717,1.5607,1.5018,1.432,1.2708,1.2708,1.2871,1.2491,1.2387,1.2387,1.2387,1.2387,1.2387,1.2387,1.2387,1.2387,1.2387,1.2387,1.2387,1.2387,1.2387,1.2387,1.2387,1.2387,1.2387,1.2387,1.2387,1.2387,1.2387,1.2387,1.2387,1.2387,1.2387,1.2387,1.2387,1.2387,1.2387,0.0,0.0,0.0,0.0,0.0,0.0,0.0,0.0,0.0,0.0,0.0,0.0,0.0,0.0,0.0,0.0,0.0,0.0,0.0,0.0,0.0,0.0,0.0,0.0,0.0,0.0,0.0,0.0,0.0,1.9279,1.9279,1.9279,1.9279,1.9279,1.9279,1.9279,1.9279,1.9279,1.9279,1.9279,1.9279,1.9279,1.9279,1.9279,1.9279,1.9279,1.9279,1.9279,1.9279,1.9279,1.9279,1.9279,1.9279,1.9279,1.9279,1.9279,1.9279,1.9279,1.9279,1.9279,1.9279,1.9279,1.9279,1.9279,1.9279,1.9279,1.9279,1.9279,1.9279,1.9279,1.9279,1.9279,1.9279,1.9279,1.9279,1.9011,1.7845,1.6776,1.5328,1.292,1.3413,1.3846,1.2599,1.2387,1.2387,1.2387,1.2387,1.2387,1.2387,1.2387,1.2387,1.2387,1.2387,1.2387,1.2387,1.2387,1.2387,1.2387,1.2387,1.2387,1.2387,1.2387,1.2387,1.2387,1.2387,1.2387,1.2387,1.2387,1.2387,1.2387,1.2387,1.2387,1.7731,0.0,0.0,0.0,0.0,0.0,0.0,0.0,0.0,0.0,0.0,0.0,0.0,0.0,0.0,0.0,0.0,0.0,0.0,0.0,0.0,0.0,0.0,0.0,0.0,0.0,0.0,0.0,1.9279,1.9279,1.9279,1.9279,1.9279,1.9279,1.9279,1.9279,1.9279,1.9279,1.9279,1.9279,1.9279,1.9279,1.9279,1.9279,1.9279,1.9279,1.9279,1.9279,1.9279,1.9279,1.9279,1.9279,1.9279,1.9279,1.9279,1.9279,1.9279,1.9279,1.9279,1.9279,1.9279,1.9279,1.9279,1.9279,1.9279,1.9279,1.9279,1.9279,1.9279,1.9279,1.9279,1.9279,1.9279,1.9279,1.9279,1.9011,1.7845,1.7996,1.7463,1.432,1.3948,1.3846,1.2599,1.2387,1.2387,1.2387,1.2387,1.2387,1.2387,1.2387,1.2387,1.2387,1.2387,1.2387,1.2387,1.2387,1.2387,1.2387,1.2387,1.2387,1.2387,1.2387,1.2387,1.2387,1.2387,1.2387,1.2387,1.2387,1.2387,1.2387,1.2387,1.2387,0.0,0.0,0.0,0.0,0.0,0.0,1.7689,1.8153,0.0,0.0,0.0,0.0,0.0,0.0,0.0,0.0,0.0,0.0,0.0,0.0,0.0,0.0,0.0,0.0,0.0,0.0,0.0,0.0,1.9279,1.9279,1.9279,1.9279,1.9279,1.9279,1.9279,1.9279,1.9279,1.9279,1.9279,1.9279,1.9279,1.9279,1.9279,1.9279,1.9279,1.9279,1.9279,1.9279,1.9279,1.9279,1.9279,1.9279,1.9279,1.9279,1.9279,1.9279,1.9279,1.9279,1.9279,1.9279,1.9279,1.9279,1.9279,1.9279,1.9279,1.9279,1.9279,1.9279,1.9279,1.9279,1.9279,1.9279,1.9279,1.9279,1.9279,1.9116,1.8429,1.8855,1.8422,1.5494,1.4911,1.4535,1.3354,1.2708,1.2387,1.2387,1.2387,1.2387,1.2387,1.2387,1.2387,1.2387,1.2387,1.2387,1.2387,1.2387,1.2387,1.2387,1.2387,1.2387,1.2387,1.2387,1.2387,1.2387,1.2387,1.2387,1.2387,1.2387,1.2387,1.2387,1.2387,1.2387,0.0,0.0,0.0,0.0,0.0,0.0,1.7842,1.7864,1.806,0.0,0.0,0.0,0.0,0.0,0.0,0.0,0.0,0.0,0.0,0.0,0.0,0.0,0.0,0.0,0.0,0.0,1.9279,1.9279,1.9279,1.9279,1.9279,1.9279,1.9279,1.9279,1.9279,1.9279,1.9279,1.9279,1.9279,1.9279,1.9279,1.9279,1.9279,1.9279,1.9279,1.9279,1.9279,1.9279,1.9279,1.9279,1.9279,1.9279,1.9279,1.9279,1.9279,1.9279,1.9279,1.9279,1.9279,1.9279,1.9279,1.9279,1.9279,1.9279,1.9279,1.9279,1.9279,1.9279,1.9279,1.9279,1.9279,1.9279,1.9279,1.9279,1.9279,1.9279,1.9279,1.9279,1.8684,1.6658,1.618,1.5707,1.4595,1.3408,1.2599,1.2599,1.2495,1.2387,1.2387,1.2387,1.2387,1.2387,1.2387,1.2387,1.2387,1.2387,1.2387,1.2387,1.2387,1.2387,1.2387,1.2387,1.2387,1.2387,1.2387,1.2387,1.2387,1.2387,1.2387,1.2387,1.2387,1.2387,0.0,0.0,0.0,0.0,0.0,0.0,1.7735,1.8021,1.8246,0.0,0.0,0.0,0.0,0.0,0.0,0.0,0.0,0.0,0.0,0.0,0.0,0.0,0.0,0.0,0.0,0.0,1.9279,1.9279,1.9279,1.9279,1.9279,1.9279,1.9279,1.9279,1.9279,1.9279,1.9279,1.9279,1.9279,1.9279,1.9279,1.9279,1.9279,1.9279,1.9279,1.9279,1.9279,1.9279,1.9279,1.9279,1.9279,1.9279,1.9279,1.9279,1.9279,1.9279,1.9279,1.9279,1.9279,1.9279,1.9279,1.9279,1.9279,1.9279,1.9279,1.9279,1.9279,1.9279,1.9279,1.9279,1.9279,1.9279,1.9279,1.9279,1.9279,1.9279,1.9279,1.9279,1.9168,1.8743,1.7898,1.6882,1.5761,1.4589,1.3846,1.3846,1.3034,1.2387,1.2387,1.2387,1.2387,1.2387,1.2387,1.2387,1.2387,1.2387,1.2387,1.2387,1.2387,1.2387,1.2387,1.2387,1.2387,1.2387,1.2387,1.2387,1.2387,1.2387,1.2387,1.2387,1.2387,1.2387,0.0,0.0,0.0,1.8653,0.0,0.0,0.0,1.8212,0.0,0.0,0.0,0.0,0.0,0.0,0.0,0.0,0.0,0.0,0.0,0.0,0.0,0.0,0.0,0.0,0.0,0.0,1.9279,1.9279,1.9279,1.9279,1.9279,1.9279,1.9279,1.9279,1.9279,1.9279,1.9279,1.9279,1.9279,1.9279,1.9279,1.9279,1.9279,1.9279,1.9279,1.9279,1.9279,1.9279,1.9279,1.9279,1.9279,1.9279,1.9279,1.9279,1.9279,1.9279,1.9279,1.9279,1.9279,1.9279,1.9279,1.9279,1.9279,1.9279,1.9279,1.9279,1.9279,1.9279,1.9279,1.9279,1.9279,1.9279,1.9279,1.9279,1.9279,1.9279,1.9279,1.9279,1.9279,1.9279,1.8848,1.8108,1.6935,1.5814,1.4857,1.4277,1.3684,1.3088,1.2495,1.2387,1.2387,1.2387,1.2387,1.2387,1.2387,1.2387,1.2387,1.2387,1.2387,1.2387,1.2387,1.2387,1.2387,1.2387,1.2387,1.2387,1.2387,1.2387,1.2387,1.2387,1.2387,1.2387,0.0,0.0,0.0,0.0,0.0,1.8838,0.0,0.0,0.0,0.0,0.0,0.0,0.0,0.0,0.0,0.0,0.0,0.0,0.0,0.0,0.0,0.0,0.0,0.0,0.0,0.0,1.9279,1.9279,1.9279,1.9279,1.9279,1.9279,1.9279,1.9279,1.9279,1.9279,1.9279,1.9279,1.9279,1.9279,1.9279,1.9279,1.9279,1.9279,1.9279,1.9279,1.9279,1.9279,1.9279,1.9279,1.9279,1.9279,1.9279,1.9279,1.9279,1.9279,1.9279,1.9279,1.9279,1.9279,1.9279,1.9279,1.9279,1.9279,1.9279,1.9279,1.9279,1.9279,1.9279,1.9279,1.9279,1.9279,1.9279,1.9279,1.9279,1.9279,1.9279,1.9279,1.9279,1.9279,1.9279,1.9011,1.8115,1.6988,1.5921,1.4965,1.4487,1.3846,1.2871,1.2545,1.2387,1.2387,1.2599,1.2654,1.2436,1.2599,1.2654,1.2387,1.2387,1.2387,1.2387,1.2387,1.2387,1.2387,1.2387,1.2387,1.2387,1.2387,1.2387,1.2387,1.2387,1.2387,0.0,0.0,0.0,0.0,1.9526,0.0,0.0,0.0,0.0,0.0,0.0,0.0,0.0,0.0,0.0,0.0,0.0,0.0,0.0,0.0,0.0,0.0,0.0,0.0,0.0,0.0,0.0,1.9279,1.9279,1.9279,1.9279,1.9279,1.9279,1.9279,1.9279,1.9279,1.9279,1.9279,1.9279,1.9279,1.9279,1.9279,1.9279,1.9279,1.9279,1.9279,1.9279,1.9279,1.9279,1.9279,1.9279,1.9279,1.9279,1.9279,1.9279,1.9279,1.9279,1.9279,1.9279,1.9279,1.9279,1.9279,1.9279,1.9279,1.9279,1.9279,1.9279,1.9279,1.9279,1.9279,1.9279,1.9279,1.9279,1.9279,1.9279,1.9279,1.9279,1.9279,1.9279,1.9279,1.9279,1.9272,1.9116,1.816,1.7364,1.7206,1.55,1.4164,1.4002,1.3034,1.2387,1.2387,1.3359,1.3576,1.2491,1.3359,1.3516,1.2491,1.2387,1.2387,1.2387,1.2387,1.2387,1.2387,1.2387,1.2387,1.2387,1.2387,1.2387,1.2387,1.2387,1.2387,0.0,0.0,0.0,0.0,0.0,0.0,0.0,0.0,1.9798,0.0,0.0,0.0,0.0,0.0,0.0,0.0,0.0,0.0,0.0,0.0,0.0,0.0,0.0,0.0,0.0,0.0,0.0,0.0,0.0,1.9279,1.9279,1.9279,1.9279,1.9279,1.9279,1.9279,1.9279,1.9279,1.9279,1.9279,1.9279,1.9279,1.9279,1.9279,1.9279,1.9279,1.9279,1.9279,1.9279,1.9279,1.9279,1.9279,1.9279,1.9279,1.9279,1.9279,1.9279,1.9279,1.9279,1.9279,1.9279,1.9279,1.9279,1.9279,1.9279,1.9279,1.9279,1.9279,1.9279,1.9279,1.9279,1.9279,1.9279,1.9279,1.9279,1.9279,1.9279,1.9279,1.9279,1.9279,1.9279,1.9279,1.9279,1.8907,1.8377,1.7687,1.6783,1.5719,1.4379,1.3732,1.3467,1.3467,1.3894,1.4272,1.4417,1.4272,1.4008,1.3467,1.2817,1.2387,1.2387,1.2387,1.2387,1.2387,1.2387,1.2387,1.2387,1.2387,1.2387,1.2387,1.2387,1.2387,2.0925,0.0,0.0,0.0,0.0,0.0,0.0,0.0,0.0,0.0,0.0,0.0,0.0,0.0,0.0,0.0,0.0,0.0,0.0,0.0,0.0,0.0,0.0,0.0,0.0,0.0,0.0,0.0,0.0,0.0,1.9279,1.9279,1.9279,1.9279,1.9279,1.9279,1.9279,1.9279,1.9279,1.9279,1.9279,1.9279,1.9279,1.9279,1.9279,1.9279,1.9279,1.9279,1.9279,1.9279,1.9279,1.9279,1.9279,1.9279,1.9279,1.9279,1.9279,1.9279,1.9279,1.9279,1.9279,1.9279,1.9279,1.9279,1.9279,1.9279,1.9279,1.9279,1.9279,1.9279,1.9279,1.9279,1.9279,1.9279,1.9279,1.9279,1.9279,1.9279,1.9279,1.9279,1.9279,1.9279,1.9279,1.9279,1.9011,1.8213,1.7793,1.6995,1.5339,1.4857,1.4541,1.4223,1.4756,1.5232,1.5441,1.5232,1.4863,1.4223,1.3088,1.2387,1.2387,1.2387,1.2387,1.2387,1.2387,1.2387,1.2387,1.2387,1.2387,1.2387,1.2387,1.2387,0.0,0.0,0.0,2.2156,0.0,0.0,0.0,0.0,2.3892,0.0,0.0,0.0,0.0,0.0,0.0,2.0624,0.0,0.0,0.0,0.0,0.0,0.0,0.0,0.0,0.0,0.0,0.0,0.0,0.0,0.0,1.9279,1.9279,1.9279,1.9279,1.9279,1.9279,1.9279,1.9279,1.9279,1.9279,1.9279,1.9279,1.9279,1.9279,1.9279,1.9279,1.9279,1.9279,1.9279,1.9279,1.9279,1.9279,1.9279,1.9279,1.9279,1.9279,1.9279,1.9279,1.9279,1.9279,1.9279,1.9279,1.9279,1.9279,1.9279,1.9279,1.9279,1.9279,1.9279,1.9279,1.9279,1.9279,1.9279,1.9279,1.9279,1.9279,1.9279,1.9279,1.9279,1.9279,1.9279,1.9279,1.9279,1.9279,1.9272,1.9279,1.8325,1.7582,1.7477,1.6505,1.5441,1.4326,1.6193,1.6624,1.4433,1.6246,1.6571,1.4326,1.3088,1.2387,1.2387,1.2387,1.2387,1.2387,1.2387,1.2387,1.2387,1.2387,1.2387,1.2387,1.2387,1.2387,0.0,0.0,2.0976,2.1369,0.0,0.0,0.0,0.0,0.0,0.0,0.0,0.0,0.0,0.0,0.0,2.0922,0.0,0.0,0.0,0.0,0.0,0.0,0.0,0.0,0.0,0.0,0.0,0.0,0.0,0.0,0.0,1.9279,1.9279,1.9279,1.9279,1.9279,1.9279,1.9279,1.9279,1.9279,1.9279,1.9279,1.9279,1.9279,1.9279,1.9279,1.9279,1.9279,1.9279,1.9279,1.9279,1.9279,1.9279,1.9279,1.9279,1.9279,1.9279,1.9279,1.9279,1.9279,1.9279,1.9279,1.9279,1.9279,1.9279,1.9279,1.9279,1.9279,1.9279,1.9279,1.9279,1.9279,1.9279,1.9279,1.9279,1.9279,1.9279,1.9279,1.9279,1.9279,1.9279,1.9279,1.9279,1.9279,1.9279,1.9279,1.8959,1.8429,1.7687,1.7259,1.6617,1.5441,1.6027,1.6452,1.6458,1.7153,1.6617,1.4326,1.453,1.4046,1.2436,1.3277,1.3412,1.2658,1.2786,1.2852,1.2852,1.2852,1.2852,1.2852,1.2852,1.2706,2.0925,2.0925,0.0,2.1369,2.1979,0.0,2.385,0.0,0.0,0.0,0.0,0.0,0.0,0.0,0.0,2.2043,2.3208,0.0,0.0,2.3594,0.0,0.0,0.0,0.0,0.0,0.0,0.0,0.0,0.0,0.0,0.0,0.0,1.9279,1.9279,1.9279,1.9279,1.9279,1.9279,1.9279,1.9279,1.9279,1.9279,1.9279,1.9279,1.9279,1.9279,1.9279,1.9279,1.9279,1.9279,1.9279,1.9279,1.9279,1.9279,1.9279,1.9279,1.9279,1.9279,1.9279,1.9279,1.9279,1.9279,1.9279,1.9279,1.9279,1.9279,1.9279,1.9279,1.9279,1.9279,1.9279,1.9279,1.9279,1.9279,1.9279,1.9279,1.9279,1.9279,1.9279,1.9279,1.9279,1.9279,1.9279,1.9279,1.9279,1.9279,1.9279,1.9011,1.8325,1.822,1.7786,1.6611,1.6505,1.6823,1.7529,1.7206,1.6602,1.5624,1.5839,1.5232,1.3367,1.4169,1.4085,1.2932,1.3003,1.3122,1.3122,1.3122,1.3122,1.3122,1.3122,1.2923]}]]